<?xml version="1.0" encoding="UTF-8" standalone="no" ?>
<gpx xmlns="http://www.topografix.com/GPX/1/1" creator="www.cicloide.com" version="1.1" xmlns:xsi="http://www.w3.org/2001/XMLSchema-instance" xsi:schemaLocation="http://www.topografix.com/GPX/1/1 http://www.topografix.com/GPX/1/1/gpx.xsd">
  <wpt lat="41.632232" lon="2.4931846">
    <ele>439.9</ele>
    <time>2013-06-24T22:33:36Z</time>
    <name>PI FLORIT</name>
    <cmt>PI FLORIT</cmt>
    <desc>14260_74258</desc>
  </wpt>
  <trk>
    <name>www.cicloide.com 14260</name>
    <desc>www.cicloide.com 14260</desc>
    <trkseg>
      <trkpt lat="41.606586423" lon="2.540638024">
        <ele>105.88</ele>
        <time>2013-06-23T07:40:55Z</time>
      </trkpt>
      <trkpt lat="41.606740734" lon="2.540722849">
        <ele>105.88</ele>
        <time>2013-06-23T07:41:03Z</time>
      </trkpt>
      <trkpt lat="41.606982133" lon="2.540812871">
        <ele>107.32</ele>
        <time>2013-06-23T07:41:14Z</time>
      </trkpt>
      <trkpt lat="41.607207354" lon="2.540852266">
        <ele>107.81</ele>
        <time>2013-06-23T07:41:24Z</time>
      </trkpt>
      <trkpt lat="41.607395277" lon="2.540880848">
        <ele>108.29</ele>
        <time>2013-06-23T07:41:32Z</time>
      </trkpt>
      <trkpt lat="41.607517569" lon="2.540897612">
        <ele>112.13</ele>
        <time>2013-06-23T07:41:37Z</time>
      </trkpt>
      <trkpt lat="41.607633658" lon="2.540897863">
        <ele>115.01</ele>
        <time>2013-06-23T07:41:42Z</time>
      </trkpt>
      <trkpt lat="41.607801212" lon="2.540884117">
        <ele>116.46</ele>
        <time>2013-06-23T07:41:49Z</time>
      </trkpt>
      <trkpt lat="41.607904477" lon="2.540881099">
        <ele>118.86</ele>
        <time>2013-06-23T07:41:54Z</time>
      </trkpt>
      <trkpt lat="41.608100865" lon="2.540850924">
        <ele>120.78</ele>
        <time>2013-06-23T07:42:02Z</time>
      </trkpt>
      <trkpt lat="41.608243274" lon="2.540822929">
        <ele>122.71</ele>
        <time>2013-06-23T07:42:08Z</time>
      </trkpt>
      <trkpt lat="41.608357016" lon="2.540817062">
        <ele>123.19</ele>
        <time>2013-06-23T07:42:13Z</time>
      </trkpt>
      <trkpt lat="41.608520547" lon="2.540781606">
        <ele>124.15</ele>
        <time>2013-06-23T07:42:18Z</time>
      </trkpt>
      <trkpt lat="41.608720623" lon="2.540757802">
        <ele>126.55</ele>
        <time>2013-06-23T07:42:25Z</time>
      </trkpt>
      <trkpt lat="41.608926064" lon="2.540686723">
        <ele>127.51</ele>
        <time>2013-06-23T07:42:32Z</time>
      </trkpt>
      <trkpt lat="41.609125553" lon="2.540644646">
        <ele>129.43</ele>
        <time>2013-06-23T07:42:39Z</time>
      </trkpt>
      <trkpt lat="41.609344656" lon="2.540623775">
        <ele>130.88</ele>
        <time>2013-06-23T07:42:47Z</time>
      </trkpt>
      <trkpt lat="41.609515311" lon="2.540603072">
        <ele>131.36</ele>
        <time>2013-06-23T07:42:54Z</time>
      </trkpt>
      <trkpt lat="41.609683285" lon="2.540568790">
        <ele>131.84</ele>
        <time>2013-06-23T07:43:01Z</time>
      </trkpt>
      <trkpt lat="41.609850839" lon="2.540516151">
        <ele>132.32</ele>
        <time>2013-06-23T07:43:07Z</time>
      </trkpt>
      <trkpt lat="41.610070026" lon="2.540426381">
        <ele>132.80</ele>
        <time>2013-06-23T07:43:15Z</time>
      </trkpt>
      <trkpt lat="41.610251494" lon="2.540331163">
        <ele>133.76</ele>
        <time>2013-06-23T07:43:22Z</time>
      </trkpt>
      <trkpt lat="41.610454839" lon="2.540225467">
        <ele>134.72</ele>
        <time>2013-06-23T07:43:30Z</time>
      </trkpt>
      <trkpt lat="41.610678552" lon="2.540123459">
        <ele>135.68</ele>
        <time>2013-06-23T07:43:38Z</time>
      </trkpt>
      <trkpt lat="41.610842837" lon="2.540042406">
        <ele>136.16</ele>
        <time>2013-06-23T07:43:44Z</time>
      </trkpt>
      <trkpt lat="41.611053139" lon="2.539944003">
        <ele>136.16</ele>
        <time>2013-06-23T07:43:52Z</time>
      </trkpt>
      <trkpt lat="41.611207534" lon="2.539858339">
        <ele>137.13</ele>
        <time>2013-06-23T07:43:58Z</time>
      </trkpt>
      <trkpt lat="41.611427643" lon="2.539710483">
        <ele>137.61</ele>
        <time>2013-06-23T07:44:06Z</time>
      </trkpt>
      <trkpt lat="41.611575164" lon="2.539576791">
        <ele>138.57</ele>
        <time>2013-06-23T07:44:12Z</time>
      </trkpt>
      <trkpt lat="41.611710783" lon="2.539437819">
        <ele>139.05</ele>
        <time>2013-06-23T07:44:18Z</time>
      </trkpt>
      <trkpt lat="41.611830309" lon="2.539319802">
        <ele>139.53</ele>
        <time>2013-06-23T07:44:24Z</time>
      </trkpt>
      <trkpt lat="41.611933910" lon="2.539212179">
        <ele>140.01</ele>
        <time>2013-06-23T07:44:29Z</time>
      </trkpt>
      <trkpt lat="41.612056118" lon="2.539028028">
        <ele>140.97</ele>
        <time>2013-06-23T07:44:37Z</time>
      </trkpt>
      <trkpt lat="41.612164328" lon="2.538843123">
        <ele>141.93</ele>
        <time>2013-06-23T07:44:45Z</time>
      </trkpt>
      <trkpt lat="41.612200873" lon="2.538786210">
        <ele>142.41</ele>
        <time>2013-06-23T07:44:48Z</time>
      </trkpt>
      <trkpt lat="41.612268767" lon="2.538686466">
        <ele>142.89</ele>
        <time>2013-06-23T07:44:52Z</time>
      </trkpt>
      <trkpt lat="41.612422239" lon="2.538449090">
        <ele>143.37</ele>
        <time>2013-06-23T07:45:00Z</time>
      </trkpt>
      <trkpt lat="41.612624662" lon="2.538103253">
        <ele>143.85</ele>
        <time>2013-06-23T07:45:04Z</time>
      </trkpt>
      <trkpt lat="41.612776458" lon="2.537919270">
        <ele>144.34</ele>
        <time>2013-06-23T07:45:11Z</time>
      </trkpt>
      <trkpt lat="41.612924567" lon="2.537762445">
        <ele>144.82</ele>
        <time>2013-06-23T07:45:17Z</time>
      </trkpt>
      <trkpt lat="41.613077620" lon="2.537592795">
        <ele>145.78</ele>
        <time>2013-06-23T07:45:24Z</time>
      </trkpt>
      <trkpt lat="41.613234529" lon="2.537399508">
        <ele>146.26</ele>
        <time>2013-06-23T07:45:31Z</time>
      </trkpt>
      <trkpt lat="41.613436617" lon="2.537161378">
        <ele>147.70</ele>
        <time>2013-06-23T07:45:40Z</time>
      </trkpt>
      <trkpt lat="41.613589000" lon="2.536905563">
        <ele>148.18</ele>
        <time>2013-06-23T07:45:49Z</time>
      </trkpt>
      <trkpt lat="41.613599645" lon="2.536737003">
        <ele>148.66</ele>
        <time>2013-06-23T07:45:55Z</time>
      </trkpt>
      <trkpt lat="41.613581456" lon="2.536677575">
        <ele>149.14</ele>
        <time>2013-06-23T07:45:57Z</time>
      </trkpt>
      <trkpt lat="41.613627557" lon="2.536538268">
        <ele>149.14</ele>
        <time>2013-06-23T07:46:02Z</time>
      </trkpt>
      <trkpt lat="41.613756219" lon="2.536257474">
        <ele>150.10</ele>
        <time>2013-06-23T07:46:11Z</time>
      </trkpt>
      <trkpt lat="41.613867866" lon="2.535968550">
        <ele>151.06</ele>
        <time>2013-06-23T07:46:20Z</time>
      </trkpt>
      <trkpt lat="41.613988230" lon="2.535633357">
        <ele>152.03</ele>
        <time>2013-06-23T07:46:30Z</time>
      </trkpt>
      <trkpt lat="41.614094429" lon="2.535282239">
        <ele>152.99</ele>
        <time>2013-06-23T07:46:40Z</time>
      </trkpt>
      <trkpt lat="41.614204735" lon="2.534930451">
        <ele>154.43</ele>
        <time>2013-06-23T07:46:50Z</time>
      </trkpt>
      <trkpt lat="41.614313113" lon="2.534578746">
        <ele>155.87</ele>
        <time>2013-06-23T07:47:00Z</time>
      </trkpt>
      <trkpt lat="41.614400536" lon="2.534343382">
        <ele>156.35</ele>
        <time>2013-06-23T07:47:07Z</time>
      </trkpt>
      <trkpt lat="41.614467926" lon="2.534064349">
        <ele>157.79</ele>
        <time>2013-06-23T07:47:15Z</time>
      </trkpt>
      <trkpt lat="41.614559541" lon="2.533742149">
        <ele>158.75</ele>
        <time>2013-06-23T07:47:24Z</time>
      </trkpt>
      <trkpt lat="41.614678228" lon="2.533391534">
        <ele>160.20</ele>
        <time>2013-06-23T07:47:34Z</time>
      </trkpt>
      <trkpt lat="41.614784092" lon="2.533045612">
        <ele>160.68</ele>
        <time>2013-06-23T07:47:43Z</time>
      </trkpt>
      <trkpt lat="41.614872186" lon="2.532752413">
        <ele>161.16</ele>
        <time>2013-06-23T07:47:51Z</time>
      </trkpt>
      <trkpt lat="41.614974193" lon="2.532480672">
        <ele>162.12</ele>
        <time>2013-06-23T07:47:59Z</time>
      </trkpt>
      <trkpt lat="41.615071591" lon="2.532066187">
        <ele>163.56</ele>
        <time>2013-06-23T07:48:10Z</time>
      </trkpt>
      <trkpt lat="41.615104951" lon="2.531717416">
        <ele>164.04</ele>
        <time>2013-06-23T07:48:19Z</time>
      </trkpt>
      <trkpt lat="41.615106711" lon="2.531375183">
        <ele>165.00</ele>
        <time>2013-06-23T07:48:28Z</time>
      </trkpt>
      <trkpt lat="41.615134707" lon="2.531058431">
        <ele>165.96</ele>
        <time>2013-06-23T07:48:36Z</time>
      </trkpt>
      <trkpt lat="41.615173180" lon="2.530630870">
        <ele>166.93</ele>
        <time>2013-06-23T07:48:46Z</time>
      </trkpt>
      <trkpt lat="41.615159098" lon="2.530235496">
        <ele>168.37</ele>
        <time>2013-06-23T07:48:56Z</time>
      </trkpt>
      <trkpt lat="41.615162032" lon="2.529928047">
        <ele>168.85</ele>
        <time>2013-06-23T07:49:04Z</time>
      </trkpt>
      <trkpt lat="41.615176868" lon="2.529548934">
        <ele>169.81</ele>
        <time>2013-06-23T07:49:14Z</time>
      </trkpt>
      <trkpt lat="41.615189860" lon="2.529133191">
        <ele>171.73</ele>
        <time>2013-06-23T07:49:25Z</time>
      </trkpt>
      <trkpt lat="41.615228752" lon="2.528863546">
        <ele>172.21</ele>
        <time>2013-06-23T07:49:32Z</time>
      </trkpt>
      <trkpt lat="41.615278708" lon="2.528554589">
        <ele>172.69</ele>
        <time>2013-06-23T07:49:40Z</time>
      </trkpt>
      <trkpt lat="41.615334951" lon="2.528294498">
        <ele>173.66</ele>
        <time>2013-06-23T07:49:47Z</time>
      </trkpt>
      <trkpt lat="41.615404353" lon="2.527958803">
        <ele>174.62</ele>
        <time>2013-06-23T07:49:56Z</time>
      </trkpt>
      <trkpt lat="41.615472917" lon="2.527591424">
        <ele>175.58</ele>
        <time>2013-06-23T07:50:06Z</time>
      </trkpt>
      <trkpt lat="41.615539972" lon="2.527272074">
        <ele>176.54</ele>
        <time>2013-06-23T07:50:15Z</time>
      </trkpt>
      <trkpt lat="41.615583139" lon="2.526980970">
        <ele>177.98</ele>
        <time>2013-06-23T07:50:23Z</time>
      </trkpt>
      <trkpt lat="41.615590682" lon="2.526730435">
        <ele>179.42</ele>
        <time>2013-06-23T07:50:30Z</time>
      </trkpt>
      <trkpt lat="41.615569979" lon="2.526510997">
        <ele>179.90</ele>
        <time>2013-06-23T07:50:36Z</time>
      </trkpt>
      <trkpt lat="41.615527064" lon="2.526226180">
        <ele>180.38</ele>
        <time>2013-06-23T07:50:44Z</time>
      </trkpt>
      <trkpt lat="41.615513820" lon="2.525959132">
        <ele>181.35</ele>
        <time>2013-06-23T07:50:51Z</time>
      </trkpt>
      <trkpt lat="41.615519688" lon="2.525676159">
        <ele>182.31</ele>
        <time>2013-06-23T07:50:58Z</time>
      </trkpt>
      <trkpt lat="41.615526058" lon="2.525395030">
        <ele>182.79</ele>
        <time>2013-06-23T07:51:05Z</time>
      </trkpt>
      <trkpt lat="41.615548941" lon="2.525040057">
        <ele>183.75</ele>
        <time>2013-06-23T07:51:14Z</time>
      </trkpt>
      <trkpt lat="41.615576266" lon="2.524687430">
        <ele>185.19</ele>
        <time>2013-06-23T07:51:23Z</time>
      </trkpt>
      <trkpt lat="41.615616247" lon="2.524361039">
        <ele>186.15</ele>
        <time>2013-06-23T07:51:32Z</time>
      </trkpt>
      <trkpt lat="41.615636029" lon="2.524154173">
        <ele>187.11</ele>
        <time>2013-06-23T07:51:38Z</time>
      </trkpt>
      <trkpt lat="41.615651703" lon="2.523918977">
        <ele>188.56</ele>
        <time>2013-06-23T07:51:45Z</time>
      </trkpt>
      <trkpt lat="41.615674166" lon="2.523605326">
        <ele>190.00</ele>
        <time>2013-06-23T07:51:53Z</time>
      </trkpt>
      <trkpt lat="41.615709622" lon="2.523254208">
        <ele>190.48</ele>
        <time>2013-06-23T07:52:02Z</time>
      </trkpt>
      <trkpt lat="41.615749519" lon="2.523028316">
        <ele>190.96</ele>
        <time>2013-06-23T07:52:08Z</time>
      </trkpt>
      <trkpt lat="41.615791345" lon="2.522779541">
        <ele>191.92</ele>
        <time>2013-06-23T07:52:15Z</time>
      </trkpt>
      <trkpt lat="41.615835183" lon="2.522416605">
        <ele>193.36</ele>
        <time>2013-06-23T07:52:25Z</time>
      </trkpt>
      <trkpt lat="41.615867453" lon="2.522145953">
        <ele>194.32</ele>
        <time>2013-06-23T07:52:33Z</time>
      </trkpt>
      <trkpt lat="41.615907099" lon="2.521847390">
        <ele>196.25</ele>
        <time>2013-06-23T07:52:42Z</time>
      </trkpt>
      <trkpt lat="41.615949679" lon="2.521561986">
        <ele>196.25</ele>
        <time>2013-06-23T07:52:49Z</time>
      </trkpt>
      <trkpt lat="41.615993517" lon="2.521269877">
        <ele>196.25</ele>
        <time>2013-06-23T07:52:57Z</time>
      </trkpt>
      <trkpt lat="41.616050514" lon="2.520963267">
        <ele>197.21</ele>
        <time>2013-06-23T07:53:05Z</time>
      </trkpt>
      <trkpt lat="41.616106840" lon="2.520673672">
        <ele>197.69</ele>
        <time>2013-06-23T07:53:13Z</time>
      </trkpt>
      <trkpt lat="41.616176661" lon="2.520454485">
        <ele>198.17</ele>
        <time>2013-06-23T07:53:19Z</time>
      </trkpt>
      <trkpt lat="41.616251009" lon="2.520242339">
        <ele>198.65</ele>
        <time>2013-06-23T07:53:25Z</time>
      </trkpt>
      <trkpt lat="41.616366260" lon="2.520018291">
        <ele>199.13</ele>
        <time>2013-06-23T07:53:32Z</time>
      </trkpt>
      <trkpt lat="41.616438260" lon="2.519940507">
        <ele>197.69</ele>
        <time>2013-06-23T07:53:34Z</time>
      </trkpt>
      <trkpt lat="41.616643533" lon="2.519817628">
        <ele>197.69</ele>
        <time>2013-06-23T07:53:40Z</time>
      </trkpt>
      <trkpt lat="41.616837323" lon="2.519735821">
        <ele>199.61</ele>
        <time>2013-06-23T07:53:48Z</time>
      </trkpt>
      <trkpt lat="41.617081907" lon="2.519686116">
        <ele>201.05</ele>
        <time>2013-06-23T07:53:57Z</time>
      </trkpt>
      <trkpt lat="41.617308386" lon="2.519659294">
        <ele>202.01</ele>
        <time>2013-06-23T07:54:05Z</time>
      </trkpt>
      <trkpt lat="41.617519442" lon="2.519640435">
        <ele>202.98</ele>
        <time>2013-06-23T07:54:13Z</time>
      </trkpt>
      <trkpt lat="41.617775174" lon="2.519613361">
        <ele>203.94</ele>
        <time>2013-06-23T07:54:23Z</time>
      </trkpt>
      <trkpt lat="41.617817922" lon="2.519620067">
        <ele>203.94</ele>
        <time>2013-06-23T07:54:28Z</time>
      </trkpt>
      <trkpt lat="41.617813144" lon="2.519658372">
        <ele>204.90</ele>
        <time>2013-06-23T07:54:35Z</time>
      </trkpt>
      <trkpt lat="41.617811300" lon="2.519671448">
        <ele>204.90</ele>
        <time>2013-06-23T07:54:40Z</time>
      </trkpt>
      <trkpt lat="41.617840050" lon="2.519729450">
        <ele>204.90</ele>
        <time>2013-06-23T07:54:48Z</time>
      </trkpt>
      <trkpt lat="41.617848264" lon="2.519737665">
        <ele>204.90</ele>
        <time>2013-06-23T07:54:49Z</time>
      </trkpt>
      <trkpt lat="41.617890509" lon="2.519796673">
        <ele>205.38</ele>
        <time>2013-06-23T07:54:53Z</time>
      </trkpt>
      <trkpt lat="41.617899478" lon="2.519980572">
        <ele>206.82</ele>
        <time>2013-06-23T07:55:02Z</time>
      </trkpt>
      <trkpt lat="41.617821945" lon="2.520075036">
        <ele>208.26</ele>
        <time>2013-06-23T07:55:09Z</time>
      </trkpt>
      <trkpt lat="41.617720859" lon="2.520175452">
        <ele>210.19</ele>
        <time>2013-06-23T07:55:17Z</time>
      </trkpt>
      <trkpt lat="41.617698983" lon="2.520331187">
        <ele>211.63</ele>
        <time>2013-06-23T07:55:25Z</time>
      </trkpt>
      <trkpt lat="41.617710214" lon="2.520396901">
        <ele>212.11</ele>
        <time>2013-06-23T07:55:28Z</time>
      </trkpt>
      <trkpt lat="41.617672328" lon="2.520645425">
        <ele>213.07</ele>
        <time>2013-06-23T07:55:38Z</time>
      </trkpt>
      <trkpt lat="41.617696887" lon="2.520814823">
        <ele>213.55</ele>
        <time>2013-06-23T07:55:45Z</time>
      </trkpt>
      <trkpt lat="41.617738126" lon="2.521014815">
        <ele>214.51</ele>
        <time>2013-06-23T07:55:53Z</time>
      </trkpt>
      <trkpt lat="41.617814904" lon="2.521278678">
        <ele>215.47</ele>
        <time>2013-06-23T07:56:04Z</time>
      </trkpt>
      <trkpt lat="41.617873661" lon="2.521482358">
        <ele>216.43</ele>
        <time>2013-06-23T07:56:13Z</time>
      </trkpt>
      <trkpt lat="41.617913308" lon="2.521611439">
        <ele>218.36</ele>
        <time>2013-06-23T07:56:20Z</time>
      </trkpt>
      <trkpt lat="41.617973741" lon="2.521609595">
        <ele>218.84</ele>
        <time>2013-06-23T07:56:24Z</time>
      </trkpt>
      <trkpt lat="41.618060075" lon="2.521452099">
        <ele>221.24</ele>
        <time>2013-06-23T07:56:33Z</time>
      </trkpt>
      <trkpt lat="41.618139368" lon="2.521313630">
        <ele>222.68</ele>
        <time>2013-06-23T07:56:42Z</time>
      </trkpt>
      <trkpt lat="41.618222181" lon="2.521148004">
        <ele>224.61</ele>
        <time>2013-06-23T07:56:52Z</time>
      </trkpt>
      <trkpt lat="41.618274065" lon="2.521019258">
        <ele>226.05</ele>
        <time>2013-06-23T07:57:00Z</time>
      </trkpt>
      <trkpt lat="41.618312873" lon="2.520878526">
        <ele>227.97</ele>
        <time>2013-06-23T07:57:08Z</time>
      </trkpt>
      <trkpt lat="41.618333325" lon="2.520785067">
        <ele>228.93</ele>
        <time>2013-06-23T07:57:13Z</time>
      </trkpt>
      <trkpt lat="41.618369870" lon="2.520672331">
        <ele>230.37</ele>
        <time>2013-06-23T07:57:19Z</time>
      </trkpt>
      <trkpt lat="41.618493838" lon="2.520586249">
        <ele>231.33</ele>
        <time>2013-06-23T07:57:30Z</time>
      </trkpt>
      <trkpt lat="41.618646305" lon="2.520573592">
        <ele>232.78</ele>
        <time>2013-06-23T07:57:40Z</time>
      </trkpt>
      <trkpt lat="41.618792821" lon="2.520544423">
        <ele>234.70</ele>
        <time>2013-06-23T07:57:50Z</time>
      </trkpt>
      <trkpt lat="41.618906060" lon="2.520498406">
        <ele>236.14</ele>
        <time>2013-06-23T07:57:58Z</time>
      </trkpt>
      <trkpt lat="41.618919136" lon="2.520489186">
        <ele>236.14</ele>
        <time>2013-06-23T07:57:59Z</time>
      </trkpt>
      <trkpt lat="41.619046541" lon="2.520432608">
        <ele>238.06</ele>
        <time>2013-06-23T07:58:09Z</time>
      </trkpt>
      <trkpt lat="41.619205713" lon="2.520347867">
        <ele>240.47</ele>
        <time>2013-06-23T07:58:21Z</time>
      </trkpt>
      <trkpt lat="41.619341836" lon="2.520328421">
        <ele>241.43</ele>
        <time>2013-06-23T07:58:30Z</time>
      </trkpt>
      <trkpt lat="41.619467396" lon="2.520372845">
        <ele>243.35</ele>
        <time>2013-06-23T07:58:39Z</time>
      </trkpt>
      <trkpt lat="41.619622126" lon="2.520369660">
        <ele>245.75</ele>
        <time>2013-06-23T07:58:49Z</time>
      </trkpt>
      <trkpt lat="41.619757326" lon="2.520319117">
        <ele>248.16</ele>
        <time>2013-06-23T07:59:00Z</time>
      </trkpt>
      <trkpt lat="41.619850533" lon="2.520276956">
        <ele>250.08</ele>
        <time>2013-06-23T07:59:08Z</time>
      </trkpt>
      <trkpt lat="41.619979112" lon="2.520207722">
        <ele>252.00</ele>
        <time>2013-06-23T07:59:18Z</time>
      </trkpt>
      <trkpt lat="41.620119676" lon="2.520145612">
        <ele>253.93</ele>
        <time>2013-06-23T07:59:28Z</time>
      </trkpt>
      <trkpt lat="41.620259905" lon="2.520154581">
        <ele>254.89</ele>
        <time>2013-06-23T07:59:37Z</time>
      </trkpt>
      <trkpt lat="41.620383622" lon="2.520180984">
        <ele>256.33</ele>
        <time>2013-06-23T07:59:46Z</time>
      </trkpt>
      <trkpt lat="41.620530976" lon="2.520214511">
        <ele>257.77</ele>
        <time>2013-06-23T07:59:56Z</time>
      </trkpt>
      <trkpt lat="41.620665757" lon="2.520218115">
        <ele>259.69</ele>
        <time>2013-06-23T08:00:05Z</time>
      </trkpt>
      <trkpt lat="41.620793246" lon="2.520237394">
        <ele>261.14</ele>
        <time>2013-06-23T08:00:14Z</time>
      </trkpt>
      <trkpt lat="41.620939259" lon="2.520261785">
        <ele>262.58</ele>
        <time>2013-06-23T08:00:24Z</time>
      </trkpt>
      <trkpt lat="41.621084098" lon="2.520293972">
        <ele>264.02</ele>
        <time>2013-06-23T08:00:34Z</time>
      </trkpt>
      <trkpt lat="41.621225752" lon="2.520318531">
        <ele>265.94</ele>
        <time>2013-06-23T08:00:43Z</time>
      </trkpt>
      <trkpt lat="41.621352151" lon="2.520320626">
        <ele>267.38</ele>
        <time>2013-06-23T08:00:51Z</time>
      </trkpt>
      <trkpt lat="41.621481735" lon="2.520343593">
        <ele>269.31</ele>
        <time>2013-06-23T08:01:00Z</time>
      </trkpt>
      <trkpt lat="41.621604027" lon="2.520391705">
        <ele>270.75</ele>
        <time>2013-06-23T08:01:09Z</time>
      </trkpt>
      <trkpt lat="41.621661108" lon="2.520408049">
        <ele>271.71</ele>
        <time>2013-06-23T08:01:14Z</time>
      </trkpt>
      <trkpt lat="41.621711986" lon="2.520419868">
        <ele>272.67</ele>
        <time>2013-06-23T08:01:18Z</time>
      </trkpt>
      <trkpt lat="41.621849785" lon="2.520439817">
        <ele>276.04</ele>
        <time>2013-06-23T08:01:29Z</time>
      </trkpt>
      <trkpt lat="41.621972496" lon="2.520459011">
        <ele>278.44</ele>
        <time>2013-06-23T08:01:39Z</time>
      </trkpt>
      <trkpt lat="41.622086574" lon="2.520459514">
        <ele>279.88</ele>
        <time>2013-06-23T08:01:48Z</time>
      </trkpt>
      <trkpt lat="41.622233089" lon="2.520412995">
        <ele>282.77</ele>
        <time>2013-06-23T08:02:00Z</time>
      </trkpt>
      <trkpt lat="41.622357225" lon="2.520374270">
        <ele>284.21</ele>
        <time>2013-06-23T08:02:09Z</time>
      </trkpt>
      <trkpt lat="41.622462502" lon="2.520394052">
        <ele>285.17</ele>
        <time>2013-06-23T08:02:17Z</time>
      </trkpt>
      <trkpt lat="41.622464430" lon="2.520504693">
        <ele>286.61</ele>
        <time>2013-06-23T08:02:25Z</time>
      </trkpt>
      <trkpt lat="41.622415982" lon="2.520519277">
        <ele>287.09</ele>
        <time>2013-06-23T08:02:29Z</time>
      </trkpt>
      <trkpt lat="41.622389663" lon="2.520519696">
        <ele>287.57</ele>
        <time>2013-06-23T08:02:31Z</time>
      </trkpt>
      <trkpt lat="41.622271059" lon="2.520599073">
        <ele>289.01</ele>
        <time>2013-06-23T08:02:41Z</time>
      </trkpt>
      <trkpt lat="41.622157987" lon="2.520695213">
        <ele>290.94</ele>
        <time>2013-06-23T08:02:52Z</time>
      </trkpt>
      <trkpt lat="41.622077102" lon="2.520762017">
        <ele>291.90</ele>
        <time>2013-06-23T08:03:00Z</time>
      </trkpt>
      <trkpt lat="41.621955061" lon="2.520847429">
        <ele>293.82</ele>
        <time>2013-06-23T08:03:10Z</time>
      </trkpt>
      <trkpt lat="41.621837799" lon="2.520939294">
        <ele>295.26</ele>
        <time>2013-06-23T08:03:20Z</time>
      </trkpt>
      <trkpt lat="41.621727241" lon="2.521026550">
        <ele>295.74</ele>
        <time>2013-06-23T08:03:29Z</time>
      </trkpt>
      <trkpt lat="41.621713244" lon="2.521034513">
        <ele>296.22</ele>
        <time>2013-06-23T08:03:30Z</time>
      </trkpt>
      <trkpt lat="41.621546947" lon="2.520994280">
        <ele>296.70</ele>
        <time>2013-06-23T08:03:41Z</time>
      </trkpt>
      <trkpt lat="41.621415015" lon="2.520970978">
        <ele>297.18</ele>
        <time>2013-06-23T08:03:50Z</time>
      </trkpt>
      <trkpt lat="41.621328179" lon="2.520987574">
        <ele>297.67</ele>
        <time>2013-06-23T08:03:56Z</time>
      </trkpt>
      <trkpt lat="41.621215191" lon="2.521028478">
        <ele>298.63</ele>
        <time>2013-06-23T08:04:04Z</time>
      </trkpt>
      <trkpt lat="41.621141765" lon="2.521040464">
        <ele>299.11</ele>
        <time>2013-06-23T08:04:09Z</time>
      </trkpt>
      <trkpt lat="41.621117123" lon="2.521134090">
        <ele>300.07</ele>
        <time>2013-06-23T08:04:17Z</time>
      </trkpt>
      <trkpt lat="41.621152327" lon="2.521137610">
        <ele>300.55</ele>
        <time>2013-06-23T08:04:20Z</time>
      </trkpt>
      <trkpt lat="41.621277468" lon="2.521168288">
        <ele>302.95</ele>
        <time>2013-06-23T08:04:30Z</time>
      </trkpt>
      <trkpt lat="41.621353911" lon="2.521261914">
        <ele>304.88</ele>
        <time>2013-06-23T08:04:38Z</time>
      </trkpt>
      <trkpt lat="41.621422811" lon="2.521345481">
        <ele>305.84</ele>
        <time>2013-06-23T08:04:45Z</time>
      </trkpt>
      <trkpt lat="41.621511910" lon="2.521465510">
        <ele>307.76</ele>
        <time>2013-06-23T08:04:54Z</time>
      </trkpt>
      <trkpt lat="41.621572931" lon="2.521572044">
        <ele>308.72</ele>
        <time>2013-06-23T08:05:01Z</time>
      </trkpt>
      <trkpt lat="41.621652475" lon="2.521711100">
        <ele>310.16</ele>
        <time>2013-06-23T08:05:10Z</time>
      </trkpt>
      <trkpt lat="41.621721206" lon="2.521834230">
        <ele>312.09</ele>
        <time>2013-06-23T08:05:19Z</time>
      </trkpt>
      <trkpt lat="41.621781053" lon="2.521957947">
        <ele>313.05</ele>
        <time>2013-06-23T08:05:27Z</time>
      </trkpt>
      <trkpt lat="41.621822208" lon="2.522073366">
        <ele>314.01</ele>
        <time>2013-06-23T08:05:35Z</time>
      </trkpt>
      <trkpt lat="41.621859005" lon="2.522165399">
        <ele>315.45</ele>
        <time>2013-06-23T08:05:40Z</time>
      </trkpt>
      <trkpt lat="41.621934274" lon="2.522256091">
        <ele>316.41</ele>
        <time>2013-06-23T08:05:47Z</time>
      </trkpt>
      <trkpt lat="41.621976854" lon="2.522179229">
        <ele>317.85</ele>
        <time>2013-06-23T08:05:54Z</time>
      </trkpt>
      <trkpt lat="41.621968473" lon="2.522078898">
        <ele>318.33</ele>
        <time>2013-06-23T08:06:00Z</time>
      </trkpt>
      <trkpt lat="41.621968640" lon="2.522046460">
        <ele>319.30</ele>
        <time>2013-06-23T08:06:02Z</time>
      </trkpt>
      <trkpt lat="41.621971155" lon="2.522012513">
        <ele>319.30</ele>
        <time>2013-06-23T08:06:04Z</time>
      </trkpt>
      <trkpt lat="41.621983225" lon="2.521968844">
        <ele>319.78</ele>
        <time>2013-06-23T08:06:07Z</time>
      </trkpt>
      <trkpt lat="41.621998396" lon="2.521781173">
        <ele>320.74</ele>
        <time>2013-06-23T08:06:17Z</time>
      </trkpt>
      <trkpt lat="41.622058829" lon="2.521627784">
        <ele>322.18</ele>
        <time>2013-06-23T08:06:27Z</time>
      </trkpt>
      <trkpt lat="41.622128399" lon="2.521549413">
        <ele>323.14</ele>
        <time>2013-06-23T08:06:34Z</time>
      </trkpt>
      <trkpt lat="41.622165112" lon="2.521538684">
        <ele>323.62</ele>
        <time>2013-06-23T08:06:37Z</time>
      </trkpt>
      <trkpt lat="41.622285728" lon="2.521595011">
        <ele>324.58</ele>
        <time>2013-06-23T08:06:46Z</time>
      </trkpt>
      <trkpt lat="41.622322776" lon="2.521628119">
        <ele>325.06</ele>
        <time>2013-06-23T08:06:49Z</time>
      </trkpt>
      <trkpt lat="41.622452192" lon="2.521737419">
        <ele>326.99</ele>
        <time>2013-06-23T08:06:59Z</time>
      </trkpt>
      <trkpt lat="41.622573897" lon="2.521830458">
        <ele>327.95</ele>
        <time>2013-06-23T08:07:09Z</time>
      </trkpt>
      <trkpt lat="41.622691831" lon="2.521875385">
        <ele>329.87</ele>
        <time>2013-06-23T08:07:18Z</time>
      </trkpt>
      <trkpt lat="41.622832060" lon="2.521874463">
        <ele>330.83</ele>
        <time>2013-06-23T08:07:27Z</time>
      </trkpt>
      <trkpt lat="41.622981928" lon="2.521865746">
        <ele>332.75</ele>
        <time>2013-06-23T08:07:37Z</time>
      </trkpt>
      <trkpt lat="41.623095587" lon="2.521834733">
        <ele>333.71</ele>
        <time>2013-06-23T08:07:45Z</time>
      </trkpt>
      <trkpt lat="41.623258028" lon="2.521897765">
        <ele>334.68</ele>
        <time>2013-06-23T08:07:56Z</time>
      </trkpt>
      <trkpt lat="41.623372693" lon="2.522024751">
        <ele>335.64</ele>
        <time>2013-06-23T08:08:04Z</time>
      </trkpt>
      <trkpt lat="41.623482160" lon="2.522165315">
        <ele>336.60</ele>
        <time>2013-06-23T08:08:12Z</time>
      </trkpt>
      <trkpt lat="41.623639405" lon="2.522306718">
        <ele>337.56</ele>
        <time>2013-06-23T08:08:22Z</time>
      </trkpt>
      <trkpt lat="41.623787262" lon="2.522414090">
        <ele>338.04</ele>
        <time>2013-06-23T08:08:30Z</time>
      </trkpt>
      <trkpt lat="41.623937046" lon="2.522541998">
        <ele>339.00</ele>
        <time>2013-06-23T08:08:39Z</time>
      </trkpt>
      <trkpt lat="41.624023967" lon="2.522673091">
        <ele>339.48</ele>
        <time>2013-06-23T08:08:46Z</time>
      </trkpt>
      <trkpt lat="41.624132680" lon="2.522905018">
        <ele>339.96</ele>
        <time>2013-06-23T08:08:56Z</time>
      </trkpt>
      <trkpt lat="41.624210213" lon="2.523149854">
        <ele>339.96</ele>
        <time>2013-06-23T08:09:05Z</time>
      </trkpt>
      <trkpt lat="41.624274418" lon="2.523376584">
        <ele>340.44</ele>
        <time>2013-06-23T08:09:13Z</time>
      </trkpt>
      <trkpt lat="41.624340383" lon="2.523592753">
        <ele>341.41</ele>
        <time>2013-06-23T08:09:22Z</time>
      </trkpt>
      <trkpt lat="41.624367625" lon="2.523677494">
        <ele>341.89</ele>
        <time>2013-06-23T08:09:26Z</time>
      </trkpt>
      <trkpt lat="41.624472147" lon="2.523894837">
        <ele>343.33</ele>
        <time>2013-06-23T08:09:36Z</time>
      </trkpt>
      <trkpt lat="41.624544315" lon="2.524054680">
        <ele>344.77</ele>
        <time>2013-06-23T08:09:44Z</time>
      </trkpt>
      <trkpt lat="41.624622015" lon="2.524263138">
        <ele>346.21</ele>
        <time>2013-06-23T08:09:54Z</time>
      </trkpt>
      <trkpt lat="41.624699800" lon="2.524493808">
        <ele>347.17</ele>
        <time>2013-06-23T08:10:04Z</time>
      </trkpt>
      <trkpt lat="41.624780685" lon="2.524690447">
        <ele>348.13</ele>
        <time>2013-06-23T08:10:13Z</time>
      </trkpt>
      <trkpt lat="41.624852099" lon="2.524899241">
        <ele>348.62</ele>
        <time>2013-06-23T08:10:22Z</time>
      </trkpt>
      <trkpt lat="41.624958549" lon="2.525108621">
        <ele>349.10</ele>
        <time>2013-06-23T08:10:31Z</time>
      </trkpt>
      <trkpt lat="41.625090648" lon="2.525292687">
        <ele>350.06</ele>
        <time>2013-06-23T08:10:39Z</time>
      </trkpt>
      <trkpt lat="41.625214532" lon="2.525403077">
        <ele>349.58</ele>
        <time>2013-06-23T08:10:45Z</time>
      </trkpt>
      <trkpt lat="41.625325006" lon="2.525552862">
        <ele>350.54</ele>
        <time>2013-06-23T08:10:52Z</time>
      </trkpt>
      <trkpt lat="41.625442604" lon="2.525755704">
        <ele>351.02</ele>
        <time>2013-06-23T08:11:01Z</time>
      </trkpt>
      <trkpt lat="41.625593562" lon="2.525994672">
        <ele>351.02</ele>
        <time>2013-06-23T08:11:10Z</time>
      </trkpt>
      <trkpt lat="41.625761619" lon="2.526150575">
        <ele>351.02</ele>
        <time>2013-06-23T08:11:17Z</time>
      </trkpt>
      <trkpt lat="41.625993462" lon="2.526325757">
        <ele>351.02</ele>
        <time>2013-06-23T08:11:26Z</time>
      </trkpt>
      <trkpt lat="41.626145175" lon="2.526513931">
        <ele>351.02</ele>
        <time>2013-06-23T08:11:34Z</time>
      </trkpt>
      <trkpt lat="41.626254056" lon="2.526716605">
        <ele>351.02</ele>
        <time>2013-06-23T08:11:42Z</time>
      </trkpt>
      <trkpt lat="41.626322955" lon="2.526930260">
        <ele>351.98</ele>
        <time>2013-06-23T08:11:50Z</time>
      </trkpt>
      <trkpt lat="41.626405433" lon="2.527023299">
        <ele>351.98</ele>
        <time>2013-06-23T08:11:56Z</time>
      </trkpt>
      <trkpt lat="41.626437284" lon="2.527078871">
        <ele>351.98</ele>
        <time>2013-06-23T08:11:59Z</time>
      </trkpt>
      <trkpt lat="41.626524707" lon="2.527191691">
        <ele>353.90</ele>
        <time>2013-06-23T08:12:06Z</time>
      </trkpt>
      <trkpt lat="41.626585309" lon="2.527238714">
        <ele>353.90</ele>
        <time>2013-06-23T08:12:09Z</time>
      </trkpt>
      <trkpt lat="41.626640629" lon="2.527272912">
        <ele>354.38</ele>
        <time>2013-06-23T08:12:12Z</time>
      </trkpt>
      <trkpt lat="41.626760407" lon="2.527281378">
        <ele>356.31</ele>
        <time>2013-06-23T08:12:20Z</time>
      </trkpt>
      <trkpt lat="41.626896529" lon="2.527291687">
        <ele>358.71</ele>
        <time>2013-06-23T08:12:28Z</time>
      </trkpt>
      <trkpt lat="41.627022593" lon="2.527350361">
        <ele>360.63</ele>
        <time>2013-06-23T08:12:36Z</time>
      </trkpt>
      <trkpt lat="41.627140107" lon="2.527387492">
        <ele>361.59</ele>
        <time>2013-06-23T08:12:43Z</time>
      </trkpt>
      <trkpt lat="41.627283773" lon="2.527462930">
        <ele>363.52</ele>
        <time>2013-06-23T08:12:51Z</time>
      </trkpt>
      <trkpt lat="41.627432048" lon="2.527564351">
        <ele>364.48</ele>
        <time>2013-06-23T08:13:00Z</time>
      </trkpt>
      <trkpt lat="41.627483178" lon="2.527600560">
        <ele>364.96</ele>
        <time>2013-06-23T08:13:03Z</time>
      </trkpt>
      <trkpt lat="41.627616115" lon="2.527681362">
        <ele>365.92</ele>
        <time>2013-06-23T08:13:11Z</time>
      </trkpt>
      <trkpt lat="41.627736982" lon="2.527756715">
        <ele>366.88</ele>
        <time>2013-06-23T08:13:18Z</time>
      </trkpt>
      <trkpt lat="41.627964299" lon="2.527898789">
        <ele>368.80</ele>
        <time>2013-06-23T08:13:30Z</time>
      </trkpt>
      <trkpt lat="41.628098242" lon="2.528015632">
        <ele>370.24</ele>
        <time>2013-06-23T08:13:38Z</time>
      </trkpt>
      <trkpt lat="41.628292199" lon="2.528166255">
        <ele>371.69</ele>
        <time>2013-06-23T08:13:49Z</time>
      </trkpt>
      <trkpt lat="41.628418598" lon="2.528295253">
        <ele>373.13</ele>
        <time>2013-06-23T08:13:57Z</time>
      </trkpt>
      <trkpt lat="41.628536700" lon="2.528440260">
        <ele>374.57</ele>
        <time>2013-06-23T08:14:05Z</time>
      </trkpt>
      <trkpt lat="41.628654633" lon="2.528638659">
        <ele>374.57</ele>
        <time>2013-06-23T08:14:13Z</time>
      </trkpt>
      <trkpt lat="41.628780529" lon="2.528910149">
        <ele>374.57</ele>
        <time>2013-06-23T08:14:22Z</time>
      </trkpt>
      <trkpt lat="41.628911873" lon="2.529179627">
        <ele>375.05</ele>
        <time>2013-06-23T08:14:30Z</time>
      </trkpt>
      <trkpt lat="41.629116979" lon="2.529573493">
        <ele>375.05</ele>
        <time>2013-06-23T08:14:41Z</time>
      </trkpt>
      <trkpt lat="41.629260393" lon="2.529866021">
        <ele>375.53</ele>
        <time>2013-06-23T08:14:50Z</time>
      </trkpt>
      <trkpt lat="41.629350498" lon="2.530117478">
        <ele>377.45</ele>
        <time>2013-06-23T08:14:59Z</time>
      </trkpt>
      <trkpt lat="41.629380338" lon="2.530355441">
        <ele>378.90</ele>
        <time>2013-06-23T08:15:07Z</time>
      </trkpt>
      <trkpt lat="41.629405400" lon="2.530592900">
        <ele>380.34</ele>
        <time>2013-06-23T08:15:15Z</time>
      </trkpt>
      <trkpt lat="41.629407244" lon="2.530857181">
        <ele>381.78</ele>
        <time>2013-06-23T08:15:24Z</time>
      </trkpt>
      <trkpt lat="41.629427863" lon="2.531059101">
        <ele>382.74</ele>
        <time>2013-06-23T08:15:31Z</time>
      </trkpt>
      <trkpt lat="41.629567087" lon="2.531258758">
        <ele>383.22</ele>
        <time>2013-06-23T08:15:38Z</time>
      </trkpt>
      <trkpt lat="41.629601285" lon="2.531287173">
        <ele>383.22</ele>
        <time>2013-06-23T08:15:39Z</time>
      </trkpt>
      <trkpt lat="41.629687535" lon="2.531341907">
        <ele>383.22</ele>
        <time>2013-06-23T08:15:41Z</time>
      </trkpt>
      <trkpt lat="41.629780658" lon="2.531406028">
        <ele>381.78</ele>
        <time>2013-06-23T08:15:43Z</time>
      </trkpt>
      <trkpt lat="41.629832961" lon="2.531439053">
        <ele>381.30</ele>
        <time>2013-06-23T08:15:44Z</time>
      </trkpt>
      <trkpt lat="41.630202351" lon="2.531586491">
        <ele>379.38</ele>
        <time>2013-06-23T08:15:50Z</time>
      </trkpt>
      <trkpt lat="41.630515667" lon="2.531593196">
        <ele>377.45</ele>
        <time>2013-06-23T08:15:55Z</time>
      </trkpt>
      <trkpt lat="41.630860582" lon="2.531441065">
        <ele>376.97</ele>
        <time>2013-06-23T08:16:01Z</time>
      </trkpt>
      <trkpt lat="41.631186219" lon="2.531457158">
        <ele>376.97</ele>
        <time>2013-06-23T08:16:07Z</time>
      </trkpt>
      <trkpt lat="41.631392917" lon="2.531452548">
        <ele>376.49</ele>
        <time>2013-06-23T08:16:12Z</time>
      </trkpt>
      <trkpt lat="41.631494254" lon="2.531335285">
        <ele>376.01</ele>
        <time>2013-06-23T08:16:15Z</time>
      </trkpt>
      <trkpt lat="41.631788040" lon="2.530855086">
        <ele>374.09</ele>
        <time>2013-06-23T08:16:24Z</time>
      </trkpt>
      <trkpt lat="41.631914104" lon="2.530625422">
        <ele>373.61</ele>
        <time>2013-06-23T08:16:28Z</time>
      </trkpt>
      <trkpt lat="41.631965568" lon="2.530537412">
        <ele>372.17</ele>
        <time>2013-06-23T08:16:30Z</time>
      </trkpt>
      <trkpt lat="41.632110324" lon="2.530557528">
        <ele>371.21</ele>
        <time>2013-06-23T08:16:36Z</time>
      </trkpt>
      <trkpt lat="41.632193556" lon="2.530637324">
        <ele>370.24</ele>
        <time>2013-06-23T08:16:38Z</time>
      </trkpt>
      <trkpt lat="41.632578286" lon="2.531034207">
        <ele>369.28</ele>
        <time>2013-06-23T08:16:46Z</time>
      </trkpt>
      <trkpt lat="41.632902330" lon="2.531440310">
        <ele>367.84</ele>
        <time>2013-06-23T08:16:53Z</time>
      </trkpt>
      <trkpt lat="41.633078350" lon="2.531718589">
        <ele>367.84</ele>
        <time>2013-06-23T08:16:58Z</time>
      </trkpt>
      <trkpt lat="41.633187818" lon="2.531914475">
        <ele>369.28</ele>
        <time>2013-06-23T08:17:04Z</time>
      </trkpt>
      <trkpt lat="41.633228889" lon="2.532104744">
        <ele>371.21</ele>
        <time>2013-06-23T08:17:10Z</time>
      </trkpt>
      <trkpt lat="41.633237438" lon="2.532359386">
        <ele>373.13</ele>
        <time>2013-06-23T08:17:18Z</time>
      </trkpt>
      <trkpt lat="41.633231823" lon="2.532577986">
        <ele>375.53</ele>
        <time>2013-06-23T08:17:26Z</time>
      </trkpt>
      <trkpt lat="41.633245485" lon="2.532699105">
        <ele>376.97</ele>
        <time>2013-06-23T08:17:32Z</time>
      </trkpt>
      <trkpt lat="41.633251436" lon="2.532711091">
        <ele>377.45</ele>
        <time>2013-06-23T08:17:33Z</time>
      </trkpt>
      <trkpt lat="41.633353109" lon="2.532852074">
        <ele>377.45</ele>
        <time>2013-06-23T08:17:40Z</time>
      </trkpt>
      <trkpt lat="41.633464253" lon="2.533001440">
        <ele>374.57</ele>
        <time>2013-06-23T08:17:44Z</time>
      </trkpt>
      <trkpt lat="41.633550167" lon="2.533143848">
        <ele>372.17</ele>
        <time>2013-06-23T08:17:47Z</time>
      </trkpt>
      <trkpt lat="41.633759380" lon="2.533466132">
        <ele>367.84</ele>
        <time>2013-06-23T08:17:52Z</time>
      </trkpt>
      <trkpt lat="41.633807575" lon="2.533512736">
        <ele>367.84</ele>
        <time>2013-06-23T08:17:53Z</time>
      </trkpt>
      <trkpt lat="41.633962305" lon="2.533598902">
        <ele>369.28</ele>
        <time>2013-06-23T08:17:58Z</time>
      </trkpt>
      <trkpt lat="41.634100104" lon="2.533569230">
        <ele>369.76</ele>
        <time>2013-06-23T08:18:04Z</time>
      </trkpt>
      <trkpt lat="41.634353656" lon="2.533489434">
        <ele>366.88</ele>
        <time>2013-06-23T08:18:10Z</time>
      </trkpt>
      <trkpt lat="41.634558678" lon="2.533536876">
        <ele>365.44</ele>
        <time>2013-06-23T08:18:15Z</time>
      </trkpt>
      <trkpt lat="41.634653477" lon="2.533405950">
        <ele>364.96</ele>
        <time>2013-06-23T08:18:18Z</time>
      </trkpt>
      <trkpt lat="41.634652136" lon="2.533042260">
        <ele>362.55</ele>
        <time>2013-06-23T08:18:23Z</time>
      </trkpt>
      <trkpt lat="41.634614501" lon="2.532789294">
        <ele>361.59</ele>
        <time>2013-06-23T08:18:26Z</time>
      </trkpt>
      <trkpt lat="41.634602264" lon="2.532432309">
        <ele>358.23</ele>
        <time>2013-06-23T08:18:30Z</time>
      </trkpt>
      <trkpt lat="41.634615340" lon="2.532296941">
        <ele>357.75</ele>
        <time>2013-06-23T08:18:32Z</time>
      </trkpt>
      <trkpt lat="41.634716258" lon="2.532089908">
        <ele>357.75</ele>
        <time>2013-06-23T08:18:36Z</time>
      </trkpt>
      <trkpt lat="41.634832179" lon="2.531904835">
        <ele>359.67</ele>
        <time>2013-06-23T08:18:41Z</time>
      </trkpt>
      <trkpt lat="41.634992106" lon="2.531807102">
        <ele>362.55</ele>
        <time>2013-06-23T08:18:48Z</time>
      </trkpt>
      <trkpt lat="41.635155721" lon="2.531946158">
        <ele>364.96</ele>
        <time>2013-06-23T08:18:55Z</time>
      </trkpt>
      <trkpt lat="41.635325203" lon="2.532131985">
        <ele>365.92</ele>
        <time>2013-06-23T08:19:03Z</time>
      </trkpt>
      <trkpt lat="41.635452356" lon="2.532164591">
        <ele>365.44</ele>
        <time>2013-06-23T08:19:07Z</time>
      </trkpt>
      <trkpt lat="41.635543719" lon="2.532005418">
        <ele>365.44</ele>
        <time>2013-06-23T08:19:11Z</time>
      </trkpt>
      <trkpt lat="41.635593340" lon="2.531670477">
        <ele>365.44</ele>
        <time>2013-06-23T08:19:19Z</time>
      </trkpt>
      <trkpt lat="41.635631142" lon="2.531433856">
        <ele>367.36</ele>
        <time>2013-06-23T08:19:27Z</time>
      </trkpt>
      <trkpt lat="41.635677746" lon="2.531250293">
        <ele>369.28</ele>
        <time>2013-06-23T08:19:34Z</time>
      </trkpt>
      <trkpt lat="41.635754943" lon="2.531025490">
        <ele>371.21</ele>
        <time>2013-06-23T08:19:43Z</time>
      </trkpt>
      <trkpt lat="41.635878325" lon="2.530943347">
        <ele>372.17</ele>
        <time>2013-06-23T08:19:50Z</time>
      </trkpt>
      <trkpt lat="41.636051411" lon="2.530903030">
        <ele>373.61</ele>
        <time>2013-06-23T08:19:59Z</time>
      </trkpt>
      <trkpt lat="41.636241345" lon="2.530898672">
        <ele>374.09</ele>
        <time>2013-06-23T08:20:08Z</time>
      </trkpt>
      <trkpt lat="41.636323907" lon="2.531060107">
        <ele>374.09</ele>
        <time>2013-06-23T08:20:13Z</time>
      </trkpt>
      <trkpt lat="41.636349136" lon="2.531318940">
        <ele>374.09</ele>
        <time>2013-06-23T08:20:19Z</time>
      </trkpt>
      <trkpt lat="41.636361709" lon="2.531649858">
        <ele>374.09</ele>
        <time>2013-06-23T08:20:27Z</time>
      </trkpt>
      <trkpt lat="41.636439745" lon="2.531934088">
        <ele>374.09</ele>
        <time>2013-06-23T08:20:34Z</time>
      </trkpt>
      <trkpt lat="41.636560109" lon="2.532214882">
        <ele>374.09</ele>
        <time>2013-06-23T08:20:42Z</time>
      </trkpt>
      <trkpt lat="41.636544267" lon="2.532426274">
        <ele>374.09</ele>
        <time>2013-06-23T08:20:48Z</time>
      </trkpt>
      <trkpt lat="41.636449803" lon="2.532747133">
        <ele>374.09</ele>
        <time>2013-06-23T08:20:56Z</time>
      </trkpt>
      <trkpt lat="41.636463549" lon="2.532841848">
        <ele>374.09</ele>
        <time>2013-06-23T08:20:58Z</time>
      </trkpt>
      <trkpt lat="41.636637725" lon="2.533035638">
        <ele>374.09</ele>
        <time>2013-06-23T08:21:05Z</time>
      </trkpt>
      <trkpt lat="41.636737721" lon="2.533228170">
        <ele>374.09</ele>
        <time>2013-06-23T08:21:10Z</time>
      </trkpt>
      <trkpt lat="41.636741745" lon="2.533505863">
        <ele>374.09</ele>
        <time>2013-06-23T08:21:17Z</time>
      </trkpt>
      <trkpt lat="41.636657758" lon="2.533779448">
        <ele>374.09</ele>
        <time>2013-06-23T08:21:24Z</time>
      </trkpt>
      <trkpt lat="41.636576286" lon="2.533979608">
        <ele>374.09</ele>
        <time>2013-06-23T08:21:30Z</time>
      </trkpt>
      <trkpt lat="41.636677120" lon="2.534142552">
        <ele>374.09</ele>
        <time>2013-06-23T08:21:36Z</time>
      </trkpt>
      <trkpt lat="41.636819361" lon="2.534192927">
        <ele>372.65</ele>
        <time>2013-06-23T08:21:40Z</time>
      </trkpt>
      <trkpt lat="41.637196463" lon="2.534458634">
        <ele>371.21</ele>
        <time>2013-06-23T08:21:48Z</time>
      </trkpt>
      <trkpt lat="41.637295453" lon="2.534526611">
        <ele>370.24</ele>
        <time>2013-06-23T08:21:50Z</time>
      </trkpt>
      <trkpt lat="41.637440209" lon="2.534591487">
        <ele>369.28</ele>
        <time>2013-06-23T08:21:55Z</time>
      </trkpt>
      <trkpt lat="41.637418416" lon="2.534577908">
        <ele>369.28</ele>
        <time>2013-06-23T08:22:03Z</time>
      </trkpt>
      <trkpt lat="41.637428641" lon="2.534562234">
        <ele>368.32</ele>
        <time>2013-06-23T08:22:11Z</time>
      </trkpt>
      <trkpt lat="41.637432832" lon="2.534544800">
        <ele>368.32</ele>
        <time>2013-06-23T08:22:34Z</time>
      </trkpt>
      <trkpt lat="41.637424283" lon="2.534532394">
        <ele>367.84</ele>
        <time>2013-06-23T08:22:53Z</time>
      </trkpt>
      <trkpt lat="41.637423612" lon="2.534528539">
        <ele>367.84</ele>
        <time>2013-06-23T08:23:17Z</time>
      </trkpt>
      <trkpt lat="41.637427468" lon="2.534532311">
        <ele>367.84</ele>
        <time>2013-06-23T08:23:40Z</time>
      </trkpt>
      <trkpt lat="41.637434006" lon="2.534564413">
        <ele>367.84</ele>
        <time>2013-06-23T08:23:48Z</time>
      </trkpt>
      <trkpt lat="41.637484465" lon="2.534586793">
        <ele>367.84</ele>
        <time>2013-06-23T08:23:54Z</time>
      </trkpt>
      <trkpt lat="41.637624946" lon="2.534690645">
        <ele>367.84</ele>
        <time>2013-06-23T08:23:59Z</time>
      </trkpt>
      <trkpt lat="41.637840696" lon="2.534937995">
        <ele>366.88</ele>
        <time>2013-06-23T08:24:06Z</time>
      </trkpt>
      <trkpt lat="41.638023924" lon="2.534854511">
        <ele>365.92</ele>
        <time>2013-06-23T08:24:11Z</time>
      </trkpt>
      <trkpt lat="41.638162896" lon="2.534730962">
        <ele>364.96</ele>
        <time>2013-06-23T08:24:14Z</time>
      </trkpt>
      <trkpt lat="41.638478978" lon="2.534634402">
        <ele>364.00</ele>
        <time>2013-06-23T08:24:20Z</time>
      </trkpt>
      <trkpt lat="41.638817104" lon="2.534804471">
        <ele>364.00</ele>
        <time>2013-06-23T08:24:27Z</time>
      </trkpt>
      <trkpt lat="41.639135532" lon="2.534958195">
        <ele>363.04</ele>
        <time>2013-06-23T08:24:35Z</time>
      </trkpt>
      <trkpt lat="41.639316498" lon="2.534964733">
        <ele>364.96</ele>
        <time>2013-06-23T08:24:41Z</time>
      </trkpt>
      <trkpt lat="41.639339212" lon="2.534972025">
        <ele>364.96</ele>
        <time>2013-06-23T08:24:42Z</time>
      </trkpt>
      <trkpt lat="41.639501067" lon="2.534980659">
        <ele>366.88</ele>
        <time>2013-06-23T08:24:49Z</time>
      </trkpt>
      <trkpt lat="41.639668537" lon="2.535008570">
        <ele>367.84</ele>
        <time>2013-06-23T08:24:56Z</time>
      </trkpt>
      <trkpt lat="41.639800133" lon="2.535035560">
        <ele>369.28</ele>
        <time>2013-06-23T08:25:02Z</time>
      </trkpt>
      <trkpt lat="41.639987050" lon="2.535131868">
        <ele>370.73</ele>
        <time>2013-06-23T08:25:10Z</time>
      </trkpt>
      <trkpt lat="41.640178241" lon="2.535247455">
        <ele>372.17</ele>
        <time>2013-06-23T08:25:18Z</time>
      </trkpt>
      <trkpt lat="41.640384352" lon="2.535216944">
        <ele>372.65</ele>
        <time>2013-06-23T08:25:25Z</time>
      </trkpt>
      <trkpt lat="41.640618039" lon="2.535212586">
        <ele>373.13</ele>
        <time>2013-06-23T08:25:33Z</time>
      </trkpt>
      <trkpt lat="41.640810991" lon="2.535276540">
        <ele>373.61</ele>
        <time>2013-06-23T08:25:41Z</time>
      </trkpt>
      <trkpt lat="41.641014839" lon="2.535434203">
        <ele>374.09</ele>
        <time>2013-06-23T08:25:48Z</time>
      </trkpt>
      <trkpt lat="41.641104106" lon="2.535591196">
        <ele>374.09</ele>
        <time>2013-06-23T08:25:53Z</time>
      </trkpt>
      <trkpt lat="41.641200749" lon="2.535830164">
        <ele>374.57</ele>
        <time>2013-06-23T08:26:00Z</time>
      </trkpt>
      <trkpt lat="41.641301919" lon="2.536104588">
        <ele>376.49</ele>
        <time>2013-06-23T08:26:09Z</time>
      </trkpt>
      <trkpt lat="41.641362604" lon="2.536338108">
        <ele>377.94</ele>
        <time>2013-06-23T08:26:17Z</time>
      </trkpt>
      <trkpt lat="41.641397137" lon="2.536498202">
        <ele>378.90</ele>
        <time>2013-06-23T08:26:24Z</time>
      </trkpt>
      <trkpt lat="41.641480202" lon="2.536701966">
        <ele>380.34</ele>
        <time>2013-06-23T08:26:33Z</time>
      </trkpt>
      <trkpt lat="41.641576091" lon="2.536838256">
        <ele>381.78</ele>
        <time>2013-06-23T08:26:40Z</time>
      </trkpt>
      <trkpt lat="41.641661251" lon="2.537054258">
        <ele>382.26</ele>
        <time>2013-06-23T08:26:48Z</time>
      </trkpt>
      <trkpt lat="41.641618420" lon="2.537278222">
        <ele>382.26</ele>
        <time>2013-06-23T08:26:54Z</time>
      </trkpt>
      <trkpt lat="41.641601907" lon="2.537546024">
        <ele>382.26</ele>
        <time>2013-06-23T08:27:01Z</time>
      </trkpt>
      <trkpt lat="41.641637195" lon="2.537903512">
        <ele>383.22</ele>
        <time>2013-06-23T08:27:11Z</time>
      </trkpt>
      <trkpt lat="41.641729480" lon="2.538158657">
        <ele>384.18</ele>
        <time>2013-06-23T08:27:20Z</time>
      </trkpt>
      <trkpt lat="41.641841294" lon="2.538342891">
        <ele>384.18</ele>
        <time>2013-06-23T08:27:25Z</time>
      </trkpt>
      <trkpt lat="41.641907931" lon="2.538412629">
        <ele>384.18</ele>
        <time>2013-06-23T08:27:27Z</time>
      </trkpt>
      <trkpt lat="41.642195346" lon="2.538543135">
        <ele>384.18</ele>
        <time>2013-06-23T08:27:35Z</time>
      </trkpt>
      <trkpt lat="41.642424759" lon="2.538560569">
        <ele>384.66</ele>
        <time>2013-06-23T08:27:43Z</time>
      </trkpt>
      <trkpt lat="41.642578818" lon="2.538685627">
        <ele>385.15</ele>
        <time>2013-06-23T08:27:50Z</time>
      </trkpt>
      <trkpt lat="41.642806387" lon="2.538888972">
        <ele>383.70</ele>
        <time>2013-06-23T08:27:57Z</time>
      </trkpt>
      <trkpt lat="41.642846620" lon="2.538918728">
        <ele>383.70</ele>
        <time>2013-06-23T08:27:58Z</time>
      </trkpt>
      <trkpt lat="41.642928092" lon="2.538976396">
        <ele>383.70</ele>
        <time>2013-06-23T08:28:00Z</time>
      </trkpt>
      <trkpt lat="41.643090449" lon="2.539057365">
        <ele>381.78</ele>
        <time>2013-06-23T08:28:04Z</time>
      </trkpt>
      <trkpt lat="41.643177118" lon="2.539106399">
        <ele>380.82</ele>
        <time>2013-06-23T08:28:06Z</time>
      </trkpt>
      <trkpt lat="41.643336458" lon="2.539281078">
        <ele>378.90</ele>
        <time>2013-06-23T08:28:10Z</time>
      </trkpt>
      <trkpt lat="41.643544832" lon="2.539491966">
        <ele>375.05</ele>
        <time>2013-06-23T08:28:15Z</time>
      </trkpt>
      <trkpt lat="41.643803749" lon="2.539637309">
        <ele>372.17</ele>
        <time>2013-06-23T08:28:20Z</time>
      </trkpt>
      <trkpt lat="41.643889748" lon="2.539710986">
        <ele>371.21</ele>
        <time>2013-06-23T08:28:22Z</time>
      </trkpt>
      <trkpt lat="41.644132152" lon="2.539999407">
        <ele>366.88</ele>
        <time>2013-06-23T08:28:28Z</time>
      </trkpt>
      <trkpt lat="41.644168530" lon="2.540050872">
        <ele>366.88</ele>
        <time>2013-06-23T08:28:29Z</time>
      </trkpt>
      <trkpt lat="41.644203985" lon="2.540106025">
        <ele>365.92</ele>
        <time>2013-06-23T08:28:30Z</time>
      </trkpt>
      <trkpt lat="41.644320661" lon="2.540428477">
        <ele>362.07</ele>
        <time>2013-06-23T08:28:36Z</time>
      </trkpt>
      <trkpt lat="41.644382101" lon="2.540475415">
        <ele>360.63</ele>
        <time>2013-06-23T08:28:38Z</time>
      </trkpt>
      <trkpt lat="41.644500956" lon="2.540366450">
        <ele>359.19</ele>
        <time>2013-06-23T08:28:41Z</time>
      </trkpt>
      <trkpt lat="41.644525096" lon="2.540298808">
        <ele>358.71</ele>
        <time>2013-06-23T08:28:42Z</time>
      </trkpt>
      <trkpt lat="41.644573627" lon="2.540064870">
        <ele>355.83</ele>
        <time>2013-06-23T08:28:45Z</time>
      </trkpt>
      <trkpt lat="41.644712264" lon="2.539855825">
        <ele>352.94</ele>
        <time>2013-06-23T08:28:50Z</time>
      </trkpt>
      <trkpt lat="41.644757861" lon="2.539870912">
        <ele>352.94</ele>
        <time>2013-06-23T08:28:51Z</time>
      </trkpt>
      <trkpt lat="41.645096239" lon="2.540055398">
        <ele>349.58</ele>
        <time>2013-06-23T08:28:57Z</time>
      </trkpt>
      <trkpt lat="41.645418272" lon="2.540167213">
        <ele>347.17</ele>
        <time>2013-06-23T08:29:03Z</time>
      </trkpt>
      <trkpt lat="41.645481639" lon="2.540173499">
        <ele>346.21</ele>
        <time>2013-06-23T08:29:04Z</time>
      </trkpt>
      <trkpt lat="41.645814987" lon="2.540313477">
        <ele>345.73</ele>
        <time>2013-06-23T08:29:10Z</time>
      </trkpt>
      <trkpt lat="41.645899225" lon="2.540371647">
        <ele>347.17</ele>
        <time>2013-06-23T08:29:13Z</time>
      </trkpt>
      <trkpt lat="41.646077173" lon="2.540595360">
        <ele>349.58</ele>
        <time>2013-06-23T08:29:22Z</time>
      </trkpt>
      <trkpt lat="41.646230646" lon="2.540683789">
        <ele>351.98</ele>
        <time>2013-06-23T08:29:31Z</time>
      </trkpt>
      <trkpt lat="41.646373054" lon="2.540747827">
        <ele>354.86</ele>
        <time>2013-06-23T08:29:40Z</time>
      </trkpt>
      <trkpt lat="41.646484533" lon="2.540785797">
        <ele>357.27</ele>
        <time>2013-06-23T08:29:48Z</time>
      </trkpt>
      <trkpt lat="41.646630714" lon="2.540834580">
        <ele>360.15</ele>
        <time>2013-06-23T08:29:59Z</time>
      </trkpt>
      <trkpt lat="41.646762896" lon="2.540804489">
        <ele>361.59</ele>
        <time>2013-06-23T08:30:09Z</time>
      </trkpt>
      <trkpt lat="41.646878315" lon="2.540781187">
        <ele>363.04</ele>
        <time>2013-06-23T08:30:16Z</time>
      </trkpt>
      <trkpt lat="41.647082918" lon="2.540768447">
        <ele>364.00</ele>
        <time>2013-06-23T08:30:27Z</time>
      </trkpt>
      <trkpt lat="41.647315264" lon="2.540773643">
        <ele>364.96</ele>
        <time>2013-06-23T08:30:39Z</time>
      </trkpt>
      <trkpt lat="41.647478795" lon="2.540822761">
        <ele>367.36</ele>
        <time>2013-06-23T08:30:49Z</time>
      </trkpt>
      <trkpt lat="41.647602512" lon="2.540905155">
        <ele>369.76</ele>
        <time>2013-06-23T08:30:58Z</time>
      </trkpt>
      <trkpt lat="41.647705525" lon="2.541010600">
        <ele>371.69</ele>
        <time>2013-06-23T08:31:07Z</time>
      </trkpt>
      <trkpt lat="41.647841061" lon="2.541132053">
        <ele>373.61</ele>
        <time>2013-06-23T08:31:18Z</time>
      </trkpt>
      <trkpt lat="41.647959162" lon="2.541224674">
        <ele>375.53</ele>
        <time>2013-06-23T08:31:27Z</time>
      </trkpt>
      <trkpt lat="41.648072569" lon="2.541257614">
        <ele>376.97</ele>
        <time>2013-06-23T08:31:35Z</time>
      </trkpt>
      <trkpt lat="41.648272393" lon="2.541310588">
        <ele>377.94</ele>
        <time>2013-06-23T08:31:46Z</time>
      </trkpt>
      <trkpt lat="41.648486216" lon="2.541379152">
        <ele>379.38</ele>
        <time>2013-06-23T08:31:58Z</time>
      </trkpt>
      <trkpt lat="41.648553522" lon="2.541392898">
        <ele>379.86</ele>
        <time>2013-06-23T08:32:02Z</time>
      </trkpt>
      <trkpt lat="41.648694674" lon="2.541433215">
        <ele>380.34</ele>
        <time>2013-06-23T08:32:10Z</time>
      </trkpt>
      <trkpt lat="41.648846973" lon="2.541518124">
        <ele>381.30</ele>
        <time>2013-06-23T08:32:18Z</time>
      </trkpt>
      <trkpt lat="41.648988292" lon="2.541635973">
        <ele>382.26</ele>
        <time>2013-06-23T08:32:26Z</time>
      </trkpt>
      <trkpt lat="41.649066914" lon="2.541841079">
        <ele>383.70</ele>
        <time>2013-06-23T08:32:34Z</time>
      </trkpt>
      <trkpt lat="41.649077475" lon="2.542078203">
        <ele>384.18</ele>
        <time>2013-06-23T08:32:42Z</time>
      </trkpt>
      <trkpt lat="41.649078816" lon="2.542350195">
        <ele>385.15</ele>
        <time>2013-06-23T08:32:51Z</time>
      </trkpt>
      <trkpt lat="41.649145955" lon="2.542617830">
        <ele>386.11</ele>
        <time>2013-06-23T08:33:00Z</time>
      </trkpt>
      <trkpt lat="41.649225667" lon="2.542848164">
        <ele>387.07</ele>
        <time>2013-06-23T08:33:08Z</time>
      </trkpt>
      <trkpt lat="41.649309319" lon="2.543104148">
        <ele>387.55</ele>
        <time>2013-06-23T08:33:17Z</time>
      </trkpt>
      <trkpt lat="41.649386265" lon="2.543347139">
        <ele>388.99</ele>
        <time>2013-06-23T08:33:26Z</time>
      </trkpt>
      <trkpt lat="41.649438484" lon="2.543617539">
        <ele>389.95</ele>
        <time>2013-06-23T08:33:35Z</time>
      </trkpt>
      <trkpt lat="41.649477543" lon="2.543899842">
        <ele>391.87</ele>
        <time>2013-06-23T08:33:45Z</time>
      </trkpt>
      <trkpt lat="41.649489530" lon="2.544154652">
        <ele>392.84</ele>
        <time>2013-06-23T08:33:54Z</time>
      </trkpt>
      <trkpt lat="41.649560524" lon="2.544414491">
        <ele>393.32</ele>
        <time>2013-06-23T08:34:03Z</time>
      </trkpt>
      <trkpt lat="41.649671752" lon="2.544597384">
        <ele>395.24</ele>
        <time>2013-06-23T08:34:11Z</time>
      </trkpt>
      <trkpt lat="41.649804438" lon="2.544738116">
        <ele>395.72</ele>
        <time>2013-06-23T08:34:19Z</time>
      </trkpt>
      <trkpt lat="41.649942488" lon="2.544729566">
        <ele>396.68</ele>
        <time>2013-06-23T08:34:26Z</time>
      </trkpt>
      <trkpt lat="41.650087914" lon="2.544663685">
        <ele>398.12</ele>
        <time>2013-06-23T08:34:34Z</time>
      </trkpt>
      <trkpt lat="41.650247924" lon="2.544632336">
        <ele>399.57</ele>
        <time>2013-06-23T08:34:42Z</time>
      </trkpt>
      <trkpt lat="41.650480271" lon="2.544668881">
        <ele>401.01</ele>
        <time>2013-06-23T08:34:53Z</time>
      </trkpt>
      <trkpt lat="41.650676239" lon="2.544769799">
        <ele>402.45</ele>
        <time>2013-06-23T08:35:03Z</time>
      </trkpt>
      <trkpt lat="41.650770452" lon="2.544860743">
        <ele>403.89</ele>
        <time>2013-06-23T08:35:09Z</time>
      </trkpt>
      <trkpt lat="41.650888050" lon="2.544992339">
        <ele>405.33</ele>
        <time>2013-06-23T08:35:17Z</time>
      </trkpt>
      <trkpt lat="41.651048061" lon="2.545032740">
        <ele>406.77</ele>
        <time>2013-06-23T08:35:26Z</time>
      </trkpt>
      <trkpt lat="41.651215112" lon="2.544963757">
        <ele>408.22</ele>
        <time>2013-06-23T08:35:35Z</time>
      </trkpt>
      <trkpt lat="41.651378056" lon="2.544907263">
        <ele>409.66</ele>
        <time>2013-06-23T08:35:44Z</time>
      </trkpt>
      <trkpt lat="41.651556423" lon="2.544950513">
        <ele>411.58</ele>
        <time>2013-06-23T08:35:53Z</time>
      </trkpt>
      <trkpt lat="41.651572684" lon="2.544954453">
        <ele>412.06</ele>
        <time>2013-06-23T08:35:54Z</time>
      </trkpt>
      <trkpt lat="41.651709225" lon="2.544883458">
        <ele>413.98</ele>
        <time>2013-06-23T08:36:03Z</time>
      </trkpt>
      <trkpt lat="41.651795307" lon="2.544799807">
        <ele>415.43</ele>
        <time>2013-06-23T08:36:09Z</time>
      </trkpt>
      <trkpt lat="41.651946014" lon="2.544666870">
        <ele>418.31</ele>
        <time>2013-06-23T08:36:21Z</time>
      </trkpt>
      <trkpt lat="41.652056655" lon="2.544580201">
        <ele>420.23</ele>
        <time>2013-06-23T08:36:30Z</time>
      </trkpt>
      <trkpt lat="41.652127063" lon="2.544542063">
        <ele>421.19</ele>
        <time>2013-06-23T08:36:35Z</time>
      </trkpt>
      <trkpt lat="41.652196130" lon="2.544508200">
        <ele>422.16</ele>
        <time>2013-06-23T08:36:40Z</time>
      </trkpt>
      <trkpt lat="41.652321020" lon="2.544465536">
        <ele>423.12</ele>
        <time>2013-06-23T08:36:48Z</time>
      </trkpt>
      <trkpt lat="41.652464351" lon="2.544435697">
        <ele>423.60</ele>
        <time>2013-06-23T08:36:56Z</time>
      </trkpt>
      <trkpt lat="41.652639784" lon="2.544432679">
        <ele>424.56</ele>
        <time>2013-06-23T08:37:06Z</time>
      </trkpt>
      <trkpt lat="41.652765094" lon="2.544418598">
        <ele>426.00</ele>
        <time>2013-06-23T08:37:14Z</time>
      </trkpt>
      <trkpt lat="41.652888643" lon="2.544427231">
        <ele>426.96</ele>
        <time>2013-06-23T08:37:22Z</time>
      </trkpt>
      <trkpt lat="41.652979838" lon="2.544418933">
        <ele>427.92</ele>
        <time>2013-06-23T08:37:29Z</time>
      </trkpt>
      <trkpt lat="41.653113194" lon="2.544377526">
        <ele>429.85</ele>
        <time>2013-06-23T08:37:38Z</time>
      </trkpt>
      <trkpt lat="41.653260296" lon="2.544347854">
        <ele>431.77</ele>
        <time>2013-06-23T08:37:47Z</time>
      </trkpt>
      <trkpt lat="41.653396418" lon="2.544373000">
        <ele>434.17</ele>
        <time>2013-06-23T08:37:56Z</time>
      </trkpt>
      <trkpt lat="41.653491469" lon="2.544473499">
        <ele>435.61</ele>
        <time>2013-06-23T08:38:02Z</time>
      </trkpt>
      <trkpt lat="41.653603284" lon="2.544536866">
        <ele>437.06</ele>
        <time>2013-06-23T08:38:09Z</time>
      </trkpt>
      <trkpt lat="41.653705795" lon="2.544600736">
        <ele>438.50</ele>
        <time>2013-06-23T08:38:17Z</time>
      </trkpt>
      <trkpt lat="41.653758181" lon="2.544520941">
        <ele>439.94</ele>
        <time>2013-06-23T08:38:22Z</time>
      </trkpt>
      <trkpt lat="41.653789949" lon="2.544337293">
        <ele>441.86</ele>
        <time>2013-06-23T08:38:31Z</time>
      </trkpt>
      <trkpt lat="41.653897992" lon="2.544117939">
        <ele>441.86</ele>
        <time>2013-06-23T08:38:39Z</time>
      </trkpt>
      <trkpt lat="41.654018859" lon="2.543903446">
        <ele>441.86</ele>
        <time>2013-06-23T08:38:47Z</time>
      </trkpt>
      <trkpt lat="41.654090189" lon="2.543802193">
        <ele>441.86</ele>
        <time>2013-06-23T08:38:54Z</time>
      </trkpt>
      <trkpt lat="41.654097146" lon="2.543785764">
        <ele>441.86</ele>
        <time>2013-06-23T08:38:59Z</time>
      </trkpt>
      <trkpt lat="41.654089518" lon="2.543772269">
        <ele>441.86</ele>
        <time>2013-06-23T08:39:11Z</time>
      </trkpt>
      <trkpt lat="41.654092116" lon="2.543777885">
        <ele>441.86</ele>
        <time>2013-06-23T08:39:24Z</time>
      </trkpt>
      <trkpt lat="41.654094799" lon="2.543774029">
        <ele>441.86</ele>
        <time>2013-06-23T08:39:31Z</time>
      </trkpt>
      <trkpt lat="41.654087925" lon="2.543779478">
        <ele>441.86</ele>
        <time>2013-06-23T08:39:40Z</time>
      </trkpt>
      <trkpt lat="41.654091614" lon="2.543771934">
        <ele>441.86</ele>
        <time>2013-06-23T08:39:56Z</time>
      </trkpt>
      <trkpt lat="41.654097984" lon="2.543778891">
        <ele>441.86</ele>
        <time>2013-06-23T08:40:14Z</time>
      </trkpt>
      <trkpt lat="41.654099660" lon="2.543755757">
        <ele>441.86</ele>
        <time>2013-06-23T08:40:33Z</time>
      </trkpt>
      <trkpt lat="41.654110557" lon="2.543769252">
        <ele>441.86</ele>
        <time>2013-06-23T08:41:03Z</time>
      </trkpt>
      <trkpt lat="41.654086081" lon="2.543774700">
        <ele>441.86</ele>
        <time>2013-06-23T08:41:24Z</time>
      </trkpt>
      <trkpt lat="41.654070826" lon="2.543780483">
        <ele>441.86</ele>
        <time>2013-06-23T08:41:45Z</time>
      </trkpt>
      <trkpt lat="41.654081388" lon="2.543778220">
        <ele>441.86</ele>
        <time>2013-06-23T08:41:58Z</time>
      </trkpt>
      <trkpt lat="41.654090440" lon="2.543783249">
        <ele>442.34</ele>
        <time>2013-06-23T08:42:18Z</time>
      </trkpt>
      <trkpt lat="41.654066216" lon="2.543806048">
        <ele>442.34</ele>
        <time>2013-06-23T08:42:41Z</time>
      </trkpt>
      <trkpt lat="41.654068396" lon="2.543792721">
        <ele>442.34</ele>
        <time>2013-06-23T08:42:59Z</time>
      </trkpt>
      <trkpt lat="41.654066887" lon="2.543780316">
        <ele>442.34</ele>
        <time>2013-06-23T08:43:12Z</time>
      </trkpt>
      <trkpt lat="41.654064372" lon="2.543786770">
        <ele>442.34</ele>
        <time>2013-06-23T08:43:23Z</time>
      </trkpt>
      <trkpt lat="41.654077113" lon="2.543789368">
        <ele>442.34</ele>
        <time>2013-06-23T08:43:37Z</time>
      </trkpt>
      <trkpt lat="41.654086249" lon="2.543780735">
        <ele>442.34</ele>
        <time>2013-06-23T08:43:47Z</time>
      </trkpt>
      <trkpt lat="41.654080801" lon="2.543771850">
        <ele>442.34</ele>
        <time>2013-06-23T08:43:55Z</time>
      </trkpt>
      <trkpt lat="41.654085579" lon="2.543763636">
        <ele>442.34</ele>
        <time>2013-06-23T08:44:05Z</time>
      </trkpt>
      <trkpt lat="41.654010058" lon="2.543688366">
        <ele>440.90</ele>
        <time>2013-06-23T08:44:11Z</time>
      </trkpt>
      <trkpt lat="41.653971249" lon="2.543625083">
        <ele>439.94</ele>
        <time>2013-06-23T08:44:13Z</time>
      </trkpt>
      <trkpt lat="41.653850299" lon="2.543453002">
        <ele>438.50</ele>
        <time>2013-06-23T08:44:18Z</time>
      </trkpt>
      <trkpt lat="41.653749297" lon="2.543294501">
        <ele>435.61</ele>
        <time>2013-06-23T08:44:23Z</time>
      </trkpt>
      <trkpt lat="41.653639997" lon="2.543144632">
        <ele>432.73</ele>
        <time>2013-06-23T08:44:29Z</time>
      </trkpt>
      <trkpt lat="41.653554250" lon="2.542972468">
        <ele>429.85</ele>
        <time>2013-06-23T08:44:34Z</time>
      </trkpt>
      <trkpt lat="41.653468168" lon="2.542827712">
        <ele>426.48</ele>
        <time>2013-06-23T08:44:38Z</time>
      </trkpt>
      <trkpt lat="41.653348977" lon="2.542743642">
        <ele>424.08</ele>
        <time>2013-06-23T08:44:44Z</time>
      </trkpt>
      <trkpt lat="41.653271612" lon="2.542693853">
        <ele>422.16</ele>
        <time>2013-06-23T08:44:47Z</time>
      </trkpt>
      <trkpt lat="41.653237162" lon="2.542656135">
        <ele>421.68</ele>
        <time>2013-06-23T08:44:49Z</time>
      </trkpt>
      <trkpt lat="41.653087042" lon="2.542501824">
        <ele>418.31</ele>
        <time>2013-06-23T08:44:55Z</time>
      </trkpt>
      <trkpt lat="41.653030045" lon="2.542349693">
        <ele>414.95</ele>
        <time>2013-06-23T08:45:00Z</time>
      </trkpt>
      <trkpt lat="41.653018898" lon="2.542164788">
        <ele>412.06</ele>
        <time>2013-06-23T08:45:05Z</time>
      </trkpt>
      <trkpt lat="41.652911693" lon="2.541954151">
        <ele>410.14</ele>
        <time>2013-06-23T08:45:11Z</time>
      </trkpt>
      <trkpt lat="41.652870370" lon="2.541759942">
        <ele>406.77</ele>
        <time>2013-06-23T08:45:16Z</time>
      </trkpt>
      <trkpt lat="41.652860396" lon="2.541651061">
        <ele>405.33</ele>
        <time>2013-06-23T08:45:19Z</time>
      </trkpt>
      <trkpt lat="41.652839022" lon="2.541561039">
        <ele>403.89</ele>
        <time>2013-06-23T08:45:24Z</time>
      </trkpt>
      <trkpt lat="41.652826030" lon="2.541536816">
        <ele>403.41</ele>
        <time>2013-06-23T08:45:27Z</time>
      </trkpt>
      <trkpt lat="41.652679347" lon="2.541448722">
        <ele>402.45</ele>
        <time>2013-06-23T08:45:34Z</time>
      </trkpt>
      <trkpt lat="41.652540375" lon="2.541295668">
        <ele>400.53</ele>
        <time>2013-06-23T08:45:40Z</time>
      </trkpt>
      <trkpt lat="41.652420262" lon="2.541188045">
        <ele>399.08</ele>
        <time>2013-06-23T08:45:44Z</time>
      </trkpt>
      <trkpt lat="41.652315907" lon="2.541031135">
        <ele>398.12</ele>
        <time>2013-06-23T08:45:49Z</time>
      </trkpt>
      <trkpt lat="41.652271064" lon="2.540862072">
        <ele>396.68</ele>
        <time>2013-06-23T08:45:54Z</time>
      </trkpt>
      <trkpt lat="41.652182300" lon="2.540664343">
        <ele>393.80</ele>
        <time>2013-06-23T08:46:00Z</time>
      </trkpt>
      <trkpt lat="41.652073670" lon="2.540531825">
        <ele>392.36</ele>
        <time>2013-06-23T08:46:05Z</time>
      </trkpt>
      <trkpt lat="41.651997144" lon="2.540504333">
        <ele>390.43</ele>
        <time>2013-06-23T08:46:09Z</time>
      </trkpt>
      <trkpt lat="41.651818525" lon="2.540532412">
        <ele>386.59</ele>
        <time>2013-06-23T08:46:15Z</time>
      </trkpt>
      <trkpt lat="41.651654827" lon="2.540425878">
        <ele>383.70</ele>
        <time>2013-06-23T08:46:21Z</time>
      </trkpt>
      <trkpt lat="41.651638147" lon="2.540411294">
        <ele>383.70</ele>
        <time>2013-06-23T08:46:22Z</time>
      </trkpt>
      <trkpt lat="41.651568325" lon="2.540335773">
        <ele>382.26</ele>
        <time>2013-06-23T08:46:28Z</time>
      </trkpt>
      <trkpt lat="41.651454834" lon="2.540184479">
        <ele>380.34</ele>
        <time>2013-06-23T08:46:34Z</time>
      </trkpt>
      <trkpt lat="41.651384929" lon="2.540112395">
        <ele>379.38</ele>
        <time>2013-06-23T08:46:39Z</time>
      </trkpt>
      <trkpt lat="41.651361209" lon="2.540065456">
        <ele>378.90</ele>
        <time>2013-06-23T08:46:46Z</time>
      </trkpt>
      <trkpt lat="41.651348384" lon="2.540046597">
        <ele>378.90</ele>
        <time>2013-06-23T08:46:47Z</time>
      </trkpt>
      <trkpt lat="41.651264817" lon="2.540082136">
        <ele>377.45</ele>
        <time>2013-06-23T08:46:52Z</time>
      </trkpt>
      <trkpt lat="41.651276719" lon="2.540144246">
        <ele>376.97</ele>
        <time>2013-06-23T08:46:54Z</time>
      </trkpt>
      <trkpt lat="41.651336063" lon="2.540388495">
        <ele>373.61</ele>
        <time>2013-06-23T08:47:00Z</time>
      </trkpt>
      <trkpt lat="41.651377637" lon="2.540551774">
        <ele>370.73</ele>
        <time>2013-06-23T08:47:04Z</time>
      </trkpt>
      <trkpt lat="41.651389539" lon="2.540780349">
        <ele>368.32</ele>
        <time>2013-06-23T08:47:10Z</time>
      </trkpt>
      <trkpt lat="41.651389204" lon="2.540792754">
        <ele>368.32</ele>
        <time>2013-06-23T08:47:16Z</time>
      </trkpt>
      <trkpt lat="41.651404878" lon="2.540882524">
        <ele>367.84</ele>
        <time>2013-06-23T08:47:23Z</time>
      </trkpt>
      <trkpt lat="41.651463049" lon="2.541058712">
        <ele>367.84</ele>
        <time>2013-06-23T08:47:30Z</time>
      </trkpt>
      <trkpt lat="41.651505964" lon="2.541148147">
        <ele>367.84</ele>
        <time>2013-06-23T08:47:35Z</time>
      </trkpt>
      <trkpt lat="41.651493140" lon="2.541287622">
        <ele>367.84</ele>
        <time>2013-06-23T08:47:40Z</time>
      </trkpt>
      <trkpt lat="41.651363723" lon="2.541313857">
        <ele>367.84</ele>
        <time>2013-06-23T08:47:47Z</time>
      </trkpt>
      <trkpt lat="41.651277222" lon="2.541205060">
        <ele>368.80</ele>
        <time>2013-06-23T08:47:53Z</time>
      </trkpt>
      <trkpt lat="41.651264314" lon="2.541192487">
        <ele>368.80</ele>
        <time>2013-06-23T08:47:54Z</time>
      </trkpt>
      <trkpt lat="41.651119810" lon="2.541123839">
        <ele>370.73</ele>
        <time>2013-06-23T08:48:03Z</time>
      </trkpt>
      <trkpt lat="41.651001038" lon="2.541081762">
        <ele>372.17</ele>
        <time>2013-06-23T08:48:10Z</time>
      </trkpt>
      <trkpt lat="41.650905904" lon="2.540972546">
        <ele>372.65</ele>
        <time>2013-06-23T08:48:16Z</time>
      </trkpt>
      <trkpt lat="41.650762489" lon="2.540824689">
        <ele>373.61</ele>
        <time>2013-06-23T08:48:24Z</time>
      </trkpt>
      <trkpt lat="41.650713958" lon="2.540796358">
        <ele>373.61</ele>
        <time>2013-06-23T08:48:26Z</time>
      </trkpt>
      <trkpt lat="41.650602730" lon="2.540907335">
        <ele>374.09</ele>
        <time>2013-06-23T08:48:32Z</time>
      </trkpt>
      <trkpt lat="41.650556797" lon="2.540984867">
        <ele>374.09</ele>
        <time>2013-06-23T08:48:35Z</time>
      </trkpt>
      <trkpt lat="41.650474738" lon="2.541035326">
        <ele>374.57</ele>
        <time>2013-06-23T08:48:41Z</time>
      </trkpt>
      <trkpt lat="41.650464261" lon="2.541021245">
        <ele>375.53</ele>
        <time>2013-06-23T08:48:48Z</time>
      </trkpt>
      <trkpt lat="41.650425453" lon="2.540965086">
        <ele>374.09</ele>
        <time>2013-06-23T08:48:57Z</time>
      </trkpt>
      <trkpt lat="41.650368456" lon="2.540804321">
        <ele>372.65</ele>
        <time>2013-06-23T08:49:02Z</time>
      </trkpt>
      <trkpt lat="41.650368707" lon="2.540696614">
        <ele>370.73</ele>
        <time>2013-06-23T08:49:07Z</time>
      </trkpt>
      <trkpt lat="41.650344065" lon="2.540596198">
        <ele>369.76</ele>
        <time>2013-06-23T08:49:12Z</time>
      </trkpt>
      <trkpt lat="41.650295198" lon="2.540339880">
        <ele>367.84</ele>
        <time>2013-06-23T08:49:18Z</time>
      </trkpt>
      <trkpt lat="41.650256138" lon="2.540091440">
        <ele>365.44</ele>
        <time>2013-06-23T08:49:23Z</time>
      </trkpt>
      <trkpt lat="41.650170224" lon="2.539891197">
        <ele>363.52</ele>
        <time>2013-06-23T08:49:28Z</time>
      </trkpt>
      <trkpt lat="41.650111048" lon="2.539731521">
        <ele>360.63</ele>
        <time>2013-06-23T08:49:33Z</time>
      </trkpt>
      <trkpt lat="41.650040724" lon="2.539612750">
        <ele>358.23</ele>
        <time>2013-06-23T08:49:39Z</time>
      </trkpt>
      <trkpt lat="41.649946930" lon="2.539643763">
        <ele>356.79</ele>
        <time>2013-06-23T08:49:43Z</time>
      </trkpt>
      <trkpt lat="41.649846850" lon="2.539687097">
        <ele>354.38</ele>
        <time>2013-06-23T08:49:47Z</time>
      </trkpt>
      <trkpt lat="41.649760684" lon="2.539728085">
        <ele>353.42</ele>
        <time>2013-06-23T08:49:50Z</time>
      </trkpt>
      <trkpt lat="41.649616432" lon="2.539685840">
        <ele>351.98</ele>
        <time>2013-06-23T08:49:55Z</time>
      </trkpt>
      <trkpt lat="41.649548203" lon="2.539444190">
        <ele>353.42</ele>
        <time>2013-06-23T08:50:04Z</time>
      </trkpt>
      <trkpt lat="41.649474694" lon="2.539211927">
        <ele>351.98</ele>
        <time>2013-06-23T08:50:11Z</time>
      </trkpt>
      <trkpt lat="41.649297081" lon="2.538875310">
        <ele>348.13</ele>
        <time>2013-06-23T08:50:17Z</time>
      </trkpt>
      <trkpt lat="41.649222398" lon="2.538755281">
        <ele>346.69</ele>
        <time>2013-06-23T08:50:19Z</time>
      </trkpt>
      <trkpt lat="41.649147045" lon="2.538617483">
        <ele>346.21</ele>
        <time>2013-06-23T08:50:21Z</time>
      </trkpt>
      <trkpt lat="41.648903802" lon="2.538343562">
        <ele>343.81</ele>
        <time>2013-06-23T08:50:26Z</time>
      </trkpt>
      <trkpt lat="41.648704313" lon="2.538324703">
        <ele>342.37</ele>
        <time>2013-06-23T08:50:30Z</time>
      </trkpt>
      <trkpt lat="41.648579674" lon="2.538407432">
        <ele>340.92</ele>
        <time>2013-06-23T08:50:33Z</time>
      </trkpt>
      <trkpt lat="41.648483701" lon="2.538504578">
        <ele>339.00</ele>
        <time>2013-06-23T08:50:35Z</time>
      </trkpt>
      <trkpt lat="41.648344478" lon="2.538559228">
        <ele>337.08</ele>
        <time>2013-06-23T08:50:38Z</time>
      </trkpt>
      <trkpt lat="41.648219336" lon="2.538398966">
        <ele>337.08</ele>
        <time>2013-06-23T08:50:42Z</time>
      </trkpt>
      <trkpt lat="41.648206009" lon="2.538356386">
        <ele>337.08</ele>
        <time>2013-06-23T08:50:43Z</time>
      </trkpt>
      <trkpt lat="41.648144569" lon="2.538142312">
        <ele>336.60</ele>
        <time>2013-06-23T08:50:51Z</time>
      </trkpt>
      <trkpt lat="41.648148090" lon="2.537943829">
        <ele>335.64</ele>
        <time>2013-06-23T08:50:55Z</time>
      </trkpt>
      <trkpt lat="41.648250014" lon="2.537408393">
        <ele>333.23</ele>
        <time>2013-06-23T08:51:03Z</time>
      </trkpt>
      <trkpt lat="41.648265772" lon="2.537340080">
        <ele>332.27</ele>
        <time>2013-06-23T08:51:04Z</time>
      </trkpt>
      <trkpt lat="41.648366019" lon="2.537096083">
        <ele>329.87</ele>
        <time>2013-06-23T08:51:08Z</time>
      </trkpt>
      <trkpt lat="41.648418909" lon="2.536896007">
        <ele>326.50</ele>
        <time>2013-06-23T08:51:12Z</time>
      </trkpt>
      <trkpt lat="41.648322014" lon="2.536750497">
        <ele>323.62</ele>
        <time>2013-06-23T08:51:15Z</time>
      </trkpt>
      <trkpt lat="41.648110287" lon="2.536568359">
        <ele>318.81</ele>
        <time>2013-06-23T08:51:20Z</time>
      </trkpt>
      <trkpt lat="41.647927730" lon="2.536435925">
        <ele>314.49</ele>
        <time>2013-06-23T08:51:25Z</time>
      </trkpt>
      <trkpt lat="41.647830332" lon="2.536490323">
        <ele>313.05</ele>
        <time>2013-06-23T08:51:28Z</time>
      </trkpt>
      <trkpt lat="41.647770317" lon="2.536602054">
        <ele>311.60</ele>
        <time>2013-06-23T08:51:30Z</time>
      </trkpt>
      <trkpt lat="41.647608211" lon="2.536760137">
        <ele>308.72</ele>
        <time>2013-06-23T08:51:35Z</time>
      </trkpt>
      <trkpt lat="41.647517603" lon="2.536736751">
        <ele>307.76</ele>
        <time>2013-06-23T08:51:37Z</time>
      </trkpt>
      <trkpt lat="41.647404531" lon="2.536620243">
        <ele>305.84</ele>
        <time>2013-06-23T08:51:40Z</time>
      </trkpt>
      <trkpt lat="41.647162965" lon="2.536502728">
        <ele>302.95</ele>
        <time>2013-06-23T08:51:46Z</time>
      </trkpt>
      <trkpt lat="41.646990968" lon="2.536638850">
        <ele>301.51</ele>
        <time>2013-06-23T08:51:50Z</time>
      </trkpt>
      <trkpt lat="41.646773793" lon="2.536755191">
        <ele>300.55</ele>
        <time>2013-06-23T08:51:54Z</time>
      </trkpt>
      <trkpt lat="41.646642616" lon="2.536837166">
        <ele>298.63</ele>
        <time>2013-06-23T08:51:57Z</time>
      </trkpt>
      <trkpt lat="41.646555277" lon="2.536833143">
        <ele>297.18</ele>
        <time>2013-06-23T08:52:00Z</time>
      </trkpt>
      <trkpt lat="41.646534406" lon="2.536825851">
        <ele>296.70</ele>
        <time>2013-06-23T08:52:05Z</time>
      </trkpt>
      <trkpt lat="41.646526359" lon="2.536829706">
        <ele>296.70</ele>
        <time>2013-06-23T08:52:20Z</time>
      </trkpt>
      <trkpt lat="41.646525018" lon="2.536824342">
        <ele>296.70</ele>
        <time>2013-06-23T08:52:29Z</time>
      </trkpt>
      <trkpt lat="41.646575309" lon="2.536677156">
        <ele>295.26</ele>
        <time>2013-06-23T08:52:36Z</time>
      </trkpt>
      <trkpt lat="41.646687711" lon="2.536497196">
        <ele>292.86</ele>
        <time>2013-06-23T08:52:40Z</time>
      </trkpt>
      <trkpt lat="41.646853421" lon="2.536316315">
        <ele>290.94</ele>
        <time>2013-06-23T08:52:44Z</time>
      </trkpt>
      <trkpt lat="41.646938665" lon="2.536214307">
        <ele>289.97</ele>
        <time>2013-06-23T08:52:46Z</time>
      </trkpt>
      <trkpt lat="41.647040505" lon="2.536051279">
        <ele>289.01</ele>
        <time>2013-06-23T08:52:49Z</time>
      </trkpt>
      <trkpt lat="41.647117619" lon="2.535903422">
        <ele>288.05</ele>
        <time>2013-06-23T08:52:51Z</time>
      </trkpt>
      <trkpt lat="41.647288609" lon="2.535402184">
        <ele>283.73</ele>
        <time>2013-06-23T08:52:56Z</time>
      </trkpt>
      <trkpt lat="41.647328423" lon="2.535294477">
        <ele>283.73</ele>
        <time>2013-06-23T08:52:57Z</time>
      </trkpt>
      <trkpt lat="41.647467228" lon="2.534995159">
        <ele>280.84</ele>
        <time>2013-06-23T08:53:00Z</time>
      </trkpt>
      <trkpt lat="41.647513664" lon="2.534900947">
        <ele>279.88</ele>
        <time>2013-06-23T08:53:01Z</time>
      </trkpt>
      <trkpt lat="41.647626735" lon="2.534482857">
        <ele>275.56</ele>
        <time>2013-06-23T08:53:05Z</time>
      </trkpt>
      <trkpt lat="41.647605948" lon="2.534005173">
        <ele>271.71</ele>
        <time>2013-06-23T08:53:09Z</time>
      </trkpt>
      <trkpt lat="41.647589687" lon="2.533874164">
        <ele>270.27</ele>
        <time>2013-06-23T08:53:10Z</time>
      </trkpt>
      <trkpt lat="41.647528332" lon="2.533568643">
        <ele>268.35</ele>
        <time>2013-06-23T08:53:13Z</time>
      </trkpt>
      <trkpt lat="41.647380056" lon="2.533361862">
        <ele>267.38</ele>
        <time>2013-06-23T08:53:17Z</time>
      </trkpt>
      <trkpt lat="41.647294393" lon="2.533160193">
        <ele>266.90</ele>
        <time>2013-06-23T08:53:20Z</time>
      </trkpt>
      <trkpt lat="41.647264972" lon="2.533017282">
        <ele>267.38</ele>
        <time>2013-06-23T08:53:22Z</time>
      </trkpt>
      <trkpt lat="41.647265643" lon="2.532706313">
        <ele>267.38</ele>
        <time>2013-06-23T08:53:26Z</time>
      </trkpt>
      <trkpt lat="41.647315348" lon="2.531849850">
        <ele>264.50</ele>
        <time>2013-06-23T08:53:35Z</time>
      </trkpt>
      <trkpt lat="41.647320712" lon="2.531743484">
        <ele>263.54</ele>
        <time>2013-06-23T08:53:36Z</time>
      </trkpt>
      <trkpt lat="41.647307636" lon="2.531519603">
        <ele>262.10</ele>
        <time>2013-06-23T08:53:38Z</time>
      </trkpt>
      <trkpt lat="41.647317778" lon="2.531121463">
        <ele>257.77</ele>
        <time>2013-06-23T08:53:42Z</time>
      </trkpt>
      <trkpt lat="41.647320964" lon="2.531020712">
        <ele>256.81</ele>
        <time>2013-06-23T08:53:44Z</time>
      </trkpt>
      <trkpt lat="41.647318365" lon="2.530973438">
        <ele>256.33</ele>
        <time>2013-06-23T08:53:45Z</time>
      </trkpt>
      <trkpt lat="41.647297327" lon="2.530718126">
        <ele>256.81</ele>
        <time>2013-06-23T08:53:52Z</time>
      </trkpt>
      <trkpt lat="41.647280144" lon="2.530472620">
        <ele>256.81</ele>
        <time>2013-06-23T08:53:58Z</time>
      </trkpt>
      <trkpt lat="41.647254495" lon="2.530130303">
        <ele>255.85</ele>
        <time>2013-06-23T08:54:04Z</time>
      </trkpt>
      <trkpt lat="41.647249885" lon="2.530063583">
        <ele>255.85</ele>
        <time>2013-06-23T08:54:05Z</time>
      </trkpt>
      <trkpt lat="41.647126755" lon="2.529718164">
        <ele>255.85</ele>
        <time>2013-06-23T08:54:12Z</time>
      </trkpt>
      <trkpt lat="41.647007564" lon="2.529403340">
        <ele>255.85</ele>
        <time>2013-06-23T08:54:18Z</time>
      </trkpt>
      <trkpt lat="41.646827270" lon="2.528871425">
        <ele>254.41</ele>
        <time>2013-06-23T08:54:25Z</time>
      </trkpt>
      <trkpt lat="41.646699781" lon="2.528262647">
        <ele>252.48</ele>
        <time>2013-06-23T08:54:32Z</time>
      </trkpt>
      <trkpt lat="41.646583272" lon="2.527440298">
        <ele>250.56</ele>
        <time>2013-06-23T08:54:41Z</time>
      </trkpt>
      <trkpt lat="41.646570448" lon="2.527343404">
        <ele>250.56</ele>
        <time>2013-06-23T08:54:42Z</time>
      </trkpt>
      <trkpt lat="41.646459723" lon="2.526852559">
        <ele>248.64</ele>
        <time>2013-06-23T08:54:47Z</time>
      </trkpt>
      <trkpt lat="41.646425860" lon="2.526640833">
        <ele>248.16</ele>
        <time>2013-06-23T08:54:49Z</time>
      </trkpt>
      <trkpt lat="41.646479840" lon="2.526242441">
        <ele>247.20</ele>
        <time>2013-06-23T08:54:53Z</time>
      </trkpt>
      <trkpt lat="41.646553433" lon="2.525555208">
        <ele>244.79</ele>
        <time>2013-06-23T08:55:00Z</time>
      </trkpt>
      <trkpt lat="41.646537172" lon="2.525339877">
        <ele>244.31</ele>
        <time>2013-06-23T08:55:02Z</time>
      </trkpt>
      <trkpt lat="41.646493502" lon="2.525043912">
        <ele>243.83</ele>
        <time>2013-06-23T08:55:05Z</time>
      </trkpt>
      <trkpt lat="41.646402475" lon="2.524325080">
        <ele>243.35</ele>
        <time>2013-06-23T08:55:14Z</time>
      </trkpt>
      <trkpt lat="41.646375653" lon="2.524181331">
        <ele>243.35</ele>
        <time>2013-06-23T08:55:16Z</time>
      </trkpt>
      <trkpt lat="41.646255037" lon="2.523665257">
        <ele>242.87</ele>
        <time>2013-06-23T08:55:24Z</time>
      </trkpt>
      <trkpt lat="41.646222767" lon="2.523432994">
        <ele>242.87</ele>
        <time>2013-06-23T08:55:28Z</time>
      </trkpt>
      <trkpt lat="41.646246823" lon="2.523092689">
        <ele>242.87</ele>
        <time>2013-06-23T08:55:35Z</time>
      </trkpt>
      <trkpt lat="41.646305664" lon="2.522922872">
        <ele>242.39</ele>
        <time>2013-06-23T08:55:38Z</time>
      </trkpt>
      <trkpt lat="41.646408593" lon="2.522320800">
        <ele>240.95</ele>
        <time>2013-06-23T08:55:45Z</time>
      </trkpt>
      <trkpt lat="41.646542033" lon="2.521413207">
        <ele>239.99</ele>
        <time>2013-06-23T08:55:55Z</time>
      </trkpt>
      <trkpt lat="41.646619985" lon="2.520846423">
        <ele>239.99</ele>
        <time>2013-06-23T08:56:03Z</time>
      </trkpt>
      <trkpt lat="41.646635743" lon="2.520781212">
        <ele>239.99</ele>
        <time>2013-06-23T08:56:04Z</time>
      </trkpt>
      <trkpt lat="41.646781337" lon="2.520227419">
        <ele>239.02</ele>
        <time>2013-06-23T08:56:11Z</time>
      </trkpt>
      <trkpt lat="41.646906730" lon="2.519579582">
        <ele>235.66</ele>
        <time>2013-06-23T08:56:17Z</time>
      </trkpt>
      <trkpt lat="41.646894911" lon="2.519144813">
        <ele>234.70</ele>
        <time>2013-06-23T08:56:21Z</time>
      </trkpt>
      <trkpt lat="41.646963811" lon="2.518653382">
        <ele>232.78</ele>
        <time>2013-06-23T08:56:26Z</time>
      </trkpt>
      <trkpt lat="41.647054084" lon="2.518447355">
        <ele>231.81</ele>
        <time>2013-06-23T08:56:28Z</time>
      </trkpt>
      <trkpt lat="41.647141759" lon="2.518070672">
        <ele>230.37</ele>
        <time>2013-06-23T08:56:31Z</time>
      </trkpt>
      <trkpt lat="41.647157768" lon="2.517937064">
        <ele>230.37</ele>
        <time>2013-06-23T08:56:32Z</time>
      </trkpt>
      <trkpt lat="41.647179896" lon="2.517587539">
        <ele>228.93</ele>
        <time>2013-06-23T08:56:35Z</time>
      </trkpt>
      <trkpt lat="41.647176711" lon="2.517405903">
        <ele>227.01</ele>
        <time>2013-06-23T08:56:38Z</time>
      </trkpt>
      <trkpt lat="41.647220045" lon="2.517318899">
        <ele>226.05</ele>
        <time>2013-06-23T08:56:43Z</time>
      </trkpt>
      <trkpt lat="41.647242928" lon="2.517314205">
        <ele>226.05</ele>
        <time>2013-06-23T08:56:45Z</time>
      </trkpt>
      <trkpt lat="41.647299338" lon="2.517148076">
        <ele>226.53</ele>
        <time>2013-06-23T08:56:52Z</time>
      </trkpt>
      <trkpt lat="41.647353150" lon="2.516886896">
        <ele>226.53</ele>
        <time>2013-06-23T08:57:00Z</time>
      </trkpt>
      <trkpt lat="41.647351055" lon="2.516709870">
        <ele>226.53</ele>
        <time>2013-06-23T08:57:06Z</time>
      </trkpt>
      <trkpt lat="41.647349211" lon="2.516453384">
        <ele>226.05</ele>
        <time>2013-06-23T08:57:12Z</time>
      </trkpt>
      <trkpt lat="41.647322975" lon="2.516105618">
        <ele>225.57</ele>
        <time>2013-06-23T08:57:20Z</time>
      </trkpt>
      <trkpt lat="41.647315348" lon="2.515868997">
        <ele>225.09</ele>
        <time>2013-06-23T08:57:26Z</time>
      </trkpt>
      <trkpt lat="41.647314761" lon="2.515659366">
        <ele>225.09</ele>
        <time>2013-06-23T08:57:32Z</time>
      </trkpt>
      <trkpt lat="41.647251981" lon="2.515451998">
        <ele>225.09</ele>
        <time>2013-06-23T08:57:38Z</time>
      </trkpt>
      <trkpt lat="41.647124408" lon="2.515055785">
        <ele>225.09</ele>
        <time>2013-06-23T08:57:48Z</time>
      </trkpt>
      <trkpt lat="41.647037152" lon="2.514780440">
        <ele>224.61</ele>
        <time>2013-06-23T08:57:56Z</time>
      </trkpt>
      <trkpt lat="41.646982586" lon="2.514604000">
        <ele>226.05</ele>
        <time>2013-06-23T08:58:02Z</time>
      </trkpt>
      <trkpt lat="41.646956770" lon="2.514385987">
        <ele>226.53</ele>
        <time>2013-06-23T08:58:08Z</time>
      </trkpt>
      <trkpt lat="41.646934726" lon="2.514165040">
        <ele>226.53</ele>
        <time>2013-06-23T08:58:14Z</time>
      </trkpt>
      <trkpt lat="41.646957608" lon="2.513986170">
        <ele>226.53</ele>
        <time>2013-06-23T08:58:21Z</time>
      </trkpt>
      <trkpt lat="41.646965822" lon="2.513935292">
        <ele>226.53</ele>
        <time>2013-06-23T08:58:23Z</time>
      </trkpt>
      <trkpt lat="41.646973785" lon="2.513727589">
        <ele>226.53</ele>
        <time>2013-06-23T08:58:29Z</time>
      </trkpt>
      <trkpt lat="41.646976300" lon="2.513419721">
        <ele>226.53</ele>
        <time>2013-06-23T08:58:36Z</time>
      </trkpt>
      <trkpt lat="41.646952244" lon="2.513008338">
        <ele>224.12</ele>
        <time>2013-06-23T08:58:44Z</time>
      </trkpt>
      <trkpt lat="41.646944700" lon="2.512932062">
        <ele>224.12</ele>
        <time>2013-06-23T08:58:45Z</time>
      </trkpt>
      <trkpt lat="41.646854511" lon="2.512248350">
        <ele>221.24</ele>
        <time>2013-06-23T08:58:53Z</time>
      </trkpt>
      <trkpt lat="41.646845542" lon="2.512148438">
        <ele>220.76</ele>
        <time>2013-06-23T08:58:54Z</time>
      </trkpt>
      <trkpt lat="41.646882087" lon="2.511377303">
        <ele>219.80</ele>
        <time>2013-06-23T08:59:02Z</time>
      </trkpt>
      <trkpt lat="41.646957943" lon="2.510580938">
        <ele>218.84</ele>
        <time>2013-06-23T08:59:12Z</time>
      </trkpt>
      <trkpt lat="41.646971271" lon="2.510504495">
        <ele>218.84</ele>
        <time>2013-06-23T08:59:13Z</time>
      </trkpt>
      <trkpt lat="41.647135304" lon="2.510130998">
        <ele>218.84</ele>
        <time>2013-06-23T08:59:19Z</time>
      </trkpt>
      <trkpt lat="41.647309732" lon="2.509777449">
        <ele>218.36</ele>
        <time>2013-06-23T08:59:26Z</time>
      </trkpt>
      <trkpt lat="41.647320880" lon="2.509738809">
        <ele>218.36</ele>
        <time>2013-06-23T08:59:30Z</time>
      </trkpt>
      <trkpt lat="41.647320880" lon="2.509742916">
        <ele>218.36</ele>
        <time>2013-06-23T08:59:41Z</time>
      </trkpt>
      <trkpt lat="41.647398329" lon="2.509653481">
        <ele>217.88</ele>
        <time>2013-06-23T08:59:47Z</time>
      </trkpt>
      <trkpt lat="41.647518190" lon="2.509445023">
        <ele>217.40</ele>
        <time>2013-06-23T08:59:54Z</time>
      </trkpt>
      <trkpt lat="41.647641990" lon="2.509204965">
        <ele>216.91</ele>
        <time>2013-06-23T09:00:00Z</time>
      </trkpt>
      <trkpt lat="41.647736455" lon="2.509019474">
        <ele>216.43</ele>
        <time>2013-06-23T09:00:04Z</time>
      </trkpt>
      <trkpt lat="41.647794206" lon="2.508923249">
        <ele>216.43</ele>
        <time>2013-06-23T09:00:06Z</time>
      </trkpt>
      <trkpt lat="41.647859166" lon="2.508621166">
        <ele>215.47</ele>
        <time>2013-06-23T09:00:11Z</time>
      </trkpt>
      <trkpt lat="41.647911469" lon="2.508489905">
        <ele>214.99</ele>
        <time>2013-06-23T09:00:13Z</time>
      </trkpt>
      <trkpt lat="41.648180695" lon="2.507809462">
        <ele>213.55</ele>
        <time>2013-06-23T09:00:23Z</time>
      </trkpt>
      <trkpt lat="41.648206176" lon="2.507752968">
        <ele>213.55</ele>
        <time>2013-06-23T09:00:24Z</time>
      </trkpt>
      <trkpt lat="41.648386974" lon="2.507491872">
        <ele>213.07</ele>
        <time>2013-06-23T09:00:30Z</time>
      </trkpt>
      <trkpt lat="41.648433745" lon="2.507241337">
        <ele>213.07</ele>
        <time>2013-06-23T09:00:34Z</time>
      </trkpt>
      <trkpt lat="41.648558133" lon="2.506910754">
        <ele>213.07</ele>
        <time>2013-06-23T09:00:40Z</time>
      </trkpt>
      <trkpt lat="41.648648070" lon="2.506760383">
        <ele>213.07</ele>
        <time>2013-06-23T09:00:44Z</time>
      </trkpt>
      <trkpt lat="41.648626445" lon="2.506623255">
        <ele>213.07</ele>
        <time>2013-06-23T09:00:48Z</time>
      </trkpt>
      <trkpt lat="41.648699284" lon="2.506527618">
        <ele>212.11</ele>
        <time>2013-06-23T09:00:53Z</time>
      </trkpt>
      <trkpt lat="41.648850577" lon="2.506459640">
        <ele>211.63</ele>
        <time>2013-06-23T09:00:58Z</time>
      </trkpt>
      <trkpt lat="41.648893492" lon="2.506378336">
        <ele>211.63</ele>
        <time>2013-06-23T09:01:00Z</time>
      </trkpt>
      <trkpt lat="41.649043529" lon="2.506006096">
        <ele>210.67</ele>
        <time>2013-06-23T09:01:08Z</time>
      </trkpt>
      <trkpt lat="41.649069512" lon="2.505949602">
        <ele>210.67</ele>
        <time>2013-06-23T09:01:09Z</time>
      </trkpt>
      <trkpt lat="41.649184093" lon="2.505746257">
        <ele>210.67</ele>
        <time>2013-06-23T09:01:13Z</time>
      </trkpt>
      <trkpt lat="41.649319209" lon="2.505407628">
        <ele>210.67</ele>
        <time>2013-06-23T09:01:20Z</time>
      </trkpt>
      <trkpt lat="41.649356006" lon="2.505115016">
        <ele>209.70</ele>
        <time>2013-06-23T09:01:25Z</time>
      </trkpt>
      <trkpt lat="41.649404956" lon="2.504768005">
        <ele>209.70</ele>
        <time>2013-06-23T09:01:31Z</time>
      </trkpt>
      <trkpt lat="41.649375033" lon="2.504371122">
        <ele>209.22</ele>
        <time>2013-06-23T09:01:38Z</time>
      </trkpt>
      <trkpt lat="41.649242683" lon="2.504086053">
        <ele>208.74</ele>
        <time>2013-06-23T09:01:44Z</time>
      </trkpt>
      <trkpt lat="41.649025088" lon="2.503810708">
        <ele>208.26</ele>
        <time>2013-06-23T09:01:51Z</time>
      </trkpt>
      <trkpt lat="41.648860552" lon="2.503600657">
        <ele>208.26</ele>
        <time>2013-06-23T09:01:57Z</time>
      </trkpt>
      <trkpt lat="41.648665086" lon="2.503341489">
        <ele>207.30</ele>
        <time>2013-06-23T09:02:03Z</time>
      </trkpt>
      <trkpt lat="41.648372892" lon="2.502991125">
        <ele>206.82</ele>
        <time>2013-06-23T09:02:12Z</time>
      </trkpt>
      <trkpt lat="41.648149766" lon="2.502773699">
        <ele>206.82</ele>
        <time>2013-06-23T09:02:19Z</time>
      </trkpt>
      <trkpt lat="41.647899650" lon="2.502528863">
        <ele>206.82</ele>
        <time>2013-06-23T09:02:26Z</time>
      </trkpt>
      <trkpt lat="41.647685660" lon="2.502165591">
        <ele>206.34</ele>
        <time>2013-06-23T09:02:33Z</time>
      </trkpt>
      <trkpt lat="41.647636123" lon="2.502015974">
        <ele>206.34</ele>
        <time>2013-06-23T09:02:36Z</time>
      </trkpt>
      <trkpt lat="41.647555238" lon="2.501682542">
        <ele>205.86</ele>
        <time>2013-06-23T09:02:42Z</time>
      </trkpt>
      <trkpt lat="41.647467563" lon="2.501182897">
        <ele>205.86</ele>
        <time>2013-06-23T09:02:51Z</time>
      </trkpt>
      <trkpt lat="41.647433868" lon="2.501011739">
        <ele>204.90</ele>
        <time>2013-06-23T09:02:54Z</time>
      </trkpt>
      <trkpt lat="41.647309313" lon="2.500576802">
        <ele>204.90</ele>
        <time>2013-06-23T09:03:02Z</time>
      </trkpt>
      <trkpt lat="41.647245610" lon="2.500255607">
        <ele>204.90</ele>
        <time>2013-06-23T09:03:09Z</time>
      </trkpt>
      <trkpt lat="41.647225829" lon="2.499955116">
        <ele>204.42</ele>
        <time>2013-06-23T09:03:15Z</time>
      </trkpt>
      <trkpt lat="41.647242593" lon="2.499608608">
        <ele>204.42</ele>
        <time>2013-06-23T09:03:22Z</time>
      </trkpt>
      <trkpt lat="41.647308810" lon="2.499383722">
        <ele>204.42</ele>
        <time>2013-06-23T09:03:28Z</time>
      </trkpt>
      <trkpt lat="41.647429761" lon="2.499216167">
        <ele>204.42</ele>
        <time>2013-06-23T09:03:34Z</time>
      </trkpt>
      <trkpt lat="41.647696724" lon="2.498954987">
        <ele>203.94</ele>
        <time>2013-06-23T09:03:42Z</time>
      </trkpt>
      <trkpt lat="41.647868386" lon="2.498698585">
        <ele>203.46</ele>
        <time>2013-06-23T09:03:48Z</time>
      </trkpt>
      <trkpt lat="41.648119256" lon="2.498393735">
        <ele>203.46</ele>
        <time>2013-06-23T09:03:58Z</time>
      </trkpt>
      <trkpt lat="41.648216319" lon="2.498268761">
        <ele>203.46</ele>
        <time>2013-06-23T09:04:02Z</time>
      </trkpt>
      <trkpt lat="41.648345316" lon="2.498236071">
        <ele>202.98</ele>
        <time>2013-06-23T09:04:06Z</time>
      </trkpt>
      <trkpt lat="41.648446569" lon="2.498234227">
        <ele>202.49</ele>
        <time>2013-06-23T09:04:09Z</time>
      </trkpt>
      <trkpt lat="41.648541369" lon="2.498133980">
        <ele>202.01</ele>
        <time>2013-06-23T09:04:13Z</time>
      </trkpt>
      <trkpt lat="41.648690315" lon="2.497851594">
        <ele>203.46</ele>
        <time>2013-06-23T09:04:22Z</time>
      </trkpt>
      <trkpt lat="41.648799364" lon="2.497627294">
        <ele>204.42</ele>
        <time>2013-06-23T09:04:29Z</time>
      </trkpt>
      <trkpt lat="41.648900282" lon="2.497425541">
        <ele>205.38</ele>
        <time>2013-06-23T09:04:35Z</time>
      </trkpt>
      <trkpt lat="41.649022406" lon="2.497087835">
        <ele>206.82</ele>
        <time>2013-06-23T09:04:43Z</time>
      </trkpt>
      <trkpt lat="41.649075547" lon="2.496704195">
        <ele>208.26</ele>
        <time>2013-06-23T09:04:51Z</time>
      </trkpt>
      <trkpt lat="41.649096586" lon="2.496467071">
        <ele>209.70</ele>
        <time>2013-06-23T09:04:57Z</time>
      </trkpt>
      <trkpt lat="41.649057275" lon="2.496281747">
        <ele>210.67</ele>
        <time>2013-06-23T09:05:02Z</time>
      </trkpt>
      <trkpt lat="41.649089461" lon="2.496152917">
        <ele>210.67</ele>
        <time>2013-06-23T09:05:07Z</time>
      </trkpt>
      <trkpt lat="41.649218124" lon="2.495986955">
        <ele>208.74</ele>
        <time>2013-06-23T09:05:12Z</time>
      </trkpt>
      <trkpt lat="41.649360951" lon="2.495732397">
        <ele>206.82</ele>
        <time>2013-06-23T09:05:17Z</time>
      </trkpt>
      <trkpt lat="41.649585251" lon="2.495135689">
        <ele>205.38</ele>
        <time>2013-06-23T09:05:26Z</time>
      </trkpt>
      <trkpt lat="41.649600925" lon="2.495069137">
        <ele>205.38</ele>
        <time>2013-06-23T09:05:27Z</time>
      </trkpt>
      <trkpt lat="41.649624143" lon="2.494868558">
        <ele>204.90</ele>
        <time>2013-06-23T09:05:30Z</time>
      </trkpt>
      <trkpt lat="41.649712572" lon="2.494627411">
        <ele>202.98</ele>
        <time>2013-06-23T09:05:34Z</time>
      </trkpt>
      <trkpt lat="41.649865123" lon="2.494576784">
        <ele>202.98</ele>
        <time>2013-06-23T09:05:38Z</time>
      </trkpt>
      <trkpt lat="41.650120184" lon="2.494384503">
        <ele>202.98</ele>
        <time>2013-06-23T09:05:46Z</time>
      </trkpt>
      <trkpt lat="41.650167709" lon="2.494347287">
        <ele>204.42</ele>
        <time>2013-06-23T09:05:48Z</time>
      </trkpt>
      <trkpt lat="41.650292432" lon="2.494283585">
        <ele>205.38</ele>
        <time>2013-06-23T09:05:53Z</time>
      </trkpt>
      <trkpt lat="41.650371138" lon="2.494195324">
        <ele>206.34</ele>
        <time>2013-06-23T09:05:57Z</time>
      </trkpt>
      <trkpt lat="41.650565012" lon="2.494013017">
        <ele>206.82</ele>
        <time>2013-06-23T09:06:05Z</time>
      </trkpt>
      <trkpt lat="41.650664086" lon="2.493967084">
        <ele>205.38</ele>
        <time>2013-06-23T09:06:07Z</time>
      </trkpt>
      <trkpt lat="41.650895259" lon="2.493975299">
        <ele>202.98</ele>
        <time>2013-06-23T09:06:11Z</time>
      </trkpt>
      <trkpt lat="41.651153002" lon="2.493914614">
        <ele>200.09</ele>
        <time>2013-06-23T09:06:16Z</time>
      </trkpt>
      <trkpt lat="41.651232798" lon="2.493799362">
        <ele>199.61</ele>
        <time>2013-06-23T09:06:18Z</time>
      </trkpt>
      <trkpt lat="41.651471431" lon="2.493489819">
        <ele>198.65</ele>
        <time>2013-06-23T09:06:24Z</time>
      </trkpt>
      <trkpt lat="41.651575450" lon="2.493349087">
        <ele>198.65</ele>
        <time>2013-06-23T09:06:27Z</time>
      </trkpt>
      <trkpt lat="41.651709560" lon="2.493235763">
        <ele>198.17</ele>
        <time>2013-06-23T09:06:31Z</time>
      </trkpt>
      <trkpt lat="41.651784914" lon="2.493222688">
        <ele>197.21</ele>
        <time>2013-06-23T09:06:36Z</time>
      </trkpt>
      <trkpt lat="41.651822800" lon="2.493256467">
        <ele>197.21</ele>
        <time>2013-06-23T09:06:39Z</time>
      </trkpt>
      <trkpt lat="41.652003430" lon="2.493342800">
        <ele>195.77</ele>
        <time>2013-06-23T09:06:45Z</time>
      </trkpt>
      <trkpt lat="41.652130667" lon="2.493446484">
        <ele>194.80</ele>
        <time>2013-06-23T09:06:49Z</time>
      </trkpt>
      <trkpt lat="41.652362343" lon="2.493481940">
        <ele>193.84</ele>
        <time>2013-06-23T09:06:56Z</time>
      </trkpt>
      <trkpt lat="41.652383298" lon="2.493485795">
        <ele>193.84</ele>
        <time>2013-06-23T09:06:57Z</time>
      </trkpt>
      <trkpt lat="41.652464602" lon="2.493460817">
        <ele>193.84</ele>
        <time>2013-06-23T09:07:04Z</time>
      </trkpt>
      <trkpt lat="41.652491508" lon="2.493473977">
        <ele>193.36</ele>
        <time>2013-06-23T09:07:14Z</time>
      </trkpt>
      <trkpt lat="41.652542135" lon="2.493469618">
        <ele>193.36</ele>
        <time>2013-06-23T09:07:29Z</time>
      </trkpt>
      <trkpt lat="41.652601311" lon="2.493448077">
        <ele>193.36</ele>
        <time>2013-06-23T09:07:41Z</time>
      </trkpt>
      <trkpt lat="41.652640287" lon="2.493421003">
        <ele>193.36</ele>
        <time>2013-06-23T09:07:49Z</time>
      </trkpt>
      <trkpt lat="41.652642550" lon="2.493435672">
        <ele>192.88</ele>
        <time>2013-06-23T09:08:03Z</time>
      </trkpt>
      <trkpt lat="41.652643221" lon="2.493452603">
        <ele>192.88</ele>
        <time>2013-06-23T09:08:19Z</time>
      </trkpt>
      <trkpt lat="41.652629223" lon="2.493432906">
        <ele>192.88</ele>
        <time>2013-06-23T09:08:36Z</time>
      </trkpt>
      <trkpt lat="41.652619500" lon="2.493432403">
        <ele>192.40</ele>
        <time>2013-06-23T09:08:51Z</time>
      </trkpt>
      <trkpt lat="41.652633246" lon="2.493429804">
        <ele>192.40</ele>
        <time>2013-06-23T09:09:06Z</time>
      </trkpt>
      <trkpt lat="41.652643891" lon="2.493428379">
        <ele>192.40</ele>
        <time>2013-06-23T09:09:29Z</time>
      </trkpt>
      <trkpt lat="41.652649842" lon="2.493433660">
        <ele>192.40</ele>
        <time>2013-06-23T09:09:37Z</time>
      </trkpt>
      <trkpt lat="41.652646238" lon="2.493426452">
        <ele>192.40</ele>
        <time>2013-06-23T09:09:54Z</time>
      </trkpt>
      <trkpt lat="41.652659398" lon="2.493425027">
        <ele>192.40</ele>
        <time>2013-06-23T09:10:09Z</time>
      </trkpt>
      <trkpt lat="41.652660487" lon="2.493426116">
        <ele>192.40</ele>
        <time>2013-06-23T09:10:26Z</time>
      </trkpt>
      <trkpt lat="41.652636850" lon="2.493401474">
        <ele>192.88</ele>
        <time>2013-06-23T09:10:41Z</time>
      </trkpt>
      <trkpt lat="41.652630648" lon="2.493393511">
        <ele>192.88</ele>
        <time>2013-06-23T09:10:52Z</time>
      </trkpt>
      <trkpt lat="41.652647998" lon="2.493409688">
        <ele>192.40</ele>
        <time>2013-06-23T09:11:03Z</time>
      </trkpt>
      <trkpt lat="41.652652944" lon="2.493407425">
        <ele>192.40</ele>
        <time>2013-06-23T09:11:04Z</time>
      </trkpt>
      <trkpt lat="41.652748749" lon="2.493339950">
        <ele>192.40</ele>
        <time>2013-06-23T09:11:10Z</time>
      </trkpt>
      <trkpt lat="41.652945388" lon="2.493227214">
        <ele>192.40</ele>
        <time>2013-06-23T09:11:19Z</time>
      </trkpt>
      <trkpt lat="41.653054856" lon="2.493187735">
        <ele>193.84</ele>
        <time>2013-06-23T09:11:23Z</time>
      </trkpt>
      <trkpt lat="41.653242191" lon="2.493088242">
        <ele>193.84</ele>
        <time>2013-06-23T09:11:27Z</time>
      </trkpt>
      <trkpt lat="41.653445704" lon="2.493011212">
        <ele>192.40</ele>
        <time>2013-06-23T09:11:31Z</time>
      </trkpt>
      <trkpt lat="41.653733287" lon="2.492954383">
        <ele>191.92</ele>
        <time>2013-06-23T09:11:38Z</time>
      </trkpt>
      <trkpt lat="41.653967394" lon="2.492908366">
        <ele>191.92</ele>
        <time>2013-06-23T09:11:45Z</time>
      </trkpt>
      <trkpt lat="41.654206613" lon="2.492932841">
        <ele>191.92</ele>
        <time>2013-06-23T09:11:52Z</time>
      </trkpt>
      <trkpt lat="41.654476762" lon="2.492955724">
        <ele>191.44</ele>
        <time>2013-06-23T09:11:58Z</time>
      </trkpt>
      <trkpt lat="41.654694272" lon="2.492981456">
        <ele>191.44</ele>
        <time>2013-06-23T09:12:04Z</time>
      </trkpt>
      <trkpt lat="41.654776331" lon="2.493012218">
        <ele>190.48</ele>
        <time>2013-06-23T09:12:06Z</time>
      </trkpt>
      <trkpt lat="41.654893175" lon="2.492914485">
        <ele>190.48</ele>
        <time>2013-06-23T09:12:11Z</time>
      </trkpt>
      <trkpt lat="41.654968361" lon="2.492911300">
        <ele>190.48</ele>
        <time>2013-06-23T09:12:16Z</time>
      </trkpt>
      <trkpt lat="41.655006414" lon="2.492925130">
        <ele>190.48</ele>
        <time>2013-06-23T09:12:23Z</time>
      </trkpt>
      <trkpt lat="41.655085372" lon="2.492966956">
        <ele>190.48</ele>
        <time>2013-06-23T09:12:29Z</time>
      </trkpt>
      <trkpt lat="41.655291315" lon="2.493111963">
        <ele>190.48</ele>
        <time>2013-06-23T09:12:37Z</time>
      </trkpt>
      <trkpt lat="41.655459540" lon="2.493228052">
        <ele>190.00</ele>
        <time>2013-06-23T09:12:44Z</time>
      </trkpt>
      <trkpt lat="41.655638578" lon="2.493262418">
        <ele>190.00</ele>
        <time>2013-06-23T09:12:50Z</time>
      </trkpt>
      <trkpt lat="41.655907385" lon="2.493325450">
        <ele>189.04</ele>
        <time>2013-06-23T09:12:56Z</time>
      </trkpt>
      <trkpt lat="41.656338047" lon="2.493428715">
        <ele>188.08</ele>
        <time>2013-06-23T09:13:04Z</time>
      </trkpt>
      <trkpt lat="41.656426979" lon="2.493450172">
        <ele>188.08</ele>
        <time>2013-06-23T09:13:06Z</time>
      </trkpt>
      <trkpt lat="41.656597467" lon="2.493353780">
        <ele>188.08</ele>
        <time>2013-06-23T09:13:11Z</time>
      </trkpt>
      <trkpt lat="41.656617500" lon="2.493305417">
        <ele>188.08</ele>
        <time>2013-06-23T09:13:12Z</time>
      </trkpt>
      <trkpt lat="41.656829478" lon="2.492765622">
        <ele>187.59</ele>
        <time>2013-06-23T09:13:23Z</time>
      </trkpt>
      <trkpt lat="41.656948418" lon="2.492455660">
        <ele>187.11</ele>
        <time>2013-06-23T09:13:31Z</time>
      </trkpt>
      <trkpt lat="41.657038607" lon="2.492211662">
        <ele>187.11</ele>
        <time>2013-06-23T09:13:37Z</time>
      </trkpt>
      <trkpt lat="41.657107758" lon="2.491977053">
        <ele>186.63</ele>
        <time>2013-06-23T09:13:41Z</time>
      </trkpt>
      <trkpt lat="41.657124354" lon="2.491661977">
        <ele>185.67</ele>
        <time>2013-06-23T09:13:46Z</time>
      </trkpt>
      <trkpt lat="41.657070626" lon="2.491277415">
        <ele>185.67</ele>
        <time>2013-06-23T09:13:52Z</time>
      </trkpt>
      <trkpt lat="41.657017484" lon="2.490825296">
        <ele>185.19</ele>
        <time>2013-06-23T09:14:00Z</time>
      </trkpt>
      <trkpt lat="41.656981442" lon="2.490597308">
        <ele>185.19</ele>
        <time>2013-06-23T09:14:04Z</time>
      </trkpt>
      <trkpt lat="41.656898294" lon="2.490302181">
        <ele>184.71</ele>
        <time>2013-06-23T09:14:10Z</time>
      </trkpt>
      <trkpt lat="41.656787485" lon="2.490027506">
        <ele>184.23</ele>
        <time>2013-06-23T09:14:17Z</time>
      </trkpt>
      <trkpt lat="41.656710120" lon="2.489909992">
        <ele>184.23</ele>
        <time>2013-06-23T09:14:22Z</time>
      </trkpt>
      <trkpt lat="41.656697631" lon="2.489876632">
        <ele>184.23</ele>
        <time>2013-06-23T09:14:27Z</time>
      </trkpt>
      <trkpt lat="41.656638455" lon="2.489730703">
        <ele>183.75</ele>
        <time>2013-06-23T09:14:33Z</time>
      </trkpt>
      <trkpt lat="41.656542482" lon="2.489588043">
        <ele>186.63</ele>
        <time>2013-06-23T09:14:40Z</time>
      </trkpt>
      <trkpt lat="41.656507110" lon="2.489357038">
        <ele>186.63</ele>
        <time>2013-06-23T09:14:47Z</time>
      </trkpt>
      <trkpt lat="41.656502668" lon="2.489238015">
        <ele>187.59</ele>
        <time>2013-06-23T09:14:51Z</time>
      </trkpt>
      <trkpt lat="41.656455813" lon="2.489159476">
        <ele>190.00</ele>
        <time>2013-06-23T09:14:57Z</time>
      </trkpt>
      <trkpt lat="41.656378532" lon="2.489156459">
        <ele>191.44</ele>
        <time>2013-06-23T09:15:04Z</time>
      </trkpt>
      <trkpt lat="41.656305861" lon="2.489138102">
        <ele>193.36</ele>
        <time>2013-06-23T09:15:10Z</time>
      </trkpt>
      <trkpt lat="41.656195220" lon="2.489160230">
        <ele>195.28</ele>
        <time>2013-06-23T09:15:18Z</time>
      </trkpt>
      <trkpt lat="41.656110646" lon="2.489152519">
        <ele>197.21</ele>
        <time>2013-06-23T09:15:25Z</time>
      </trkpt>
      <trkpt lat="41.655988019" lon="2.489055960">
        <ele>199.61</ele>
        <time>2013-06-23T09:15:35Z</time>
      </trkpt>
      <trkpt lat="41.655937644" lon="2.488949845">
        <ele>201.05</ele>
        <time>2013-06-23T09:15:42Z</time>
      </trkpt>
      <trkpt lat="41.655888945" lon="2.488839120">
        <ele>202.98</ele>
        <time>2013-06-23T09:15:50Z</time>
      </trkpt>
      <trkpt lat="41.655844856" lon="2.488717834">
        <ele>205.38</ele>
        <time>2013-06-23T09:15:58Z</time>
      </trkpt>
      <trkpt lat="41.655849382" lon="2.488662178">
        <ele>206.34</ele>
        <time>2013-06-23T09:16:02Z</time>
      </trkpt>
      <trkpt lat="41.655856759" lon="2.488521949">
        <ele>209.22</ele>
        <time>2013-06-23T09:16:11Z</time>
      </trkpt>
      <trkpt lat="41.655857010" lon="2.488394879">
        <ele>211.15</ele>
        <time>2013-06-23T09:16:20Z</time>
      </trkpt>
      <trkpt lat="41.655860447" lon="2.488347689">
        <ele>211.15</ele>
        <time>2013-06-23T09:16:23Z</time>
      </trkpt>
      <trkpt lat="41.655817950" lon="2.488200838">
        <ele>210.19</ele>
        <time>2013-06-23T09:16:31Z</time>
      </trkpt>
      <trkpt lat="41.655721475" lon="2.488071086">
        <ele>208.74</ele>
        <time>2013-06-23T09:16:37Z</time>
      </trkpt>
      <trkpt lat="41.655697167" lon="2.488037810">
        <ele>208.74</ele>
        <time>2013-06-23T09:16:38Z</time>
      </trkpt>
      <trkpt lat="41.655647546" lon="2.487888277">
        <ele>208.74</ele>
        <time>2013-06-23T09:16:43Z</time>
      </trkpt>
      <trkpt lat="41.655608067" lon="2.487600861">
        <ele>208.74</ele>
        <time>2013-06-23T09:16:51Z</time>
      </trkpt>
      <trkpt lat="41.655589543" lon="2.487485610">
        <ele>209.70</ele>
        <time>2013-06-23T09:16:55Z</time>
      </trkpt>
      <trkpt lat="41.655518381" lon="2.487370359">
        <ele>209.70</ele>
        <time>2013-06-23T09:17:01Z</time>
      </trkpt>
      <trkpt lat="41.655441268" lon="2.487290898">
        <ele>209.70</ele>
        <time>2013-06-23T09:17:04Z</time>
      </trkpt>
      <trkpt lat="41.655251585" lon="2.487191573">
        <ele>206.82</ele>
        <time>2013-06-23T09:17:08Z</time>
      </trkpt>
      <trkpt lat="41.655113870" lon="2.487076238">
        <ele>206.82</ele>
        <time>2013-06-23T09:17:13Z</time>
      </trkpt>
      <trkpt lat="41.654983699" lon="2.487013960">
        <ele>208.74</ele>
        <time>2013-06-23T09:17:19Z</time>
      </trkpt>
      <trkpt lat="41.654956458" lon="2.486902313">
        <ele>210.67</ele>
        <time>2013-06-23T09:17:25Z</time>
      </trkpt>
      <trkpt lat="41.655042457" lon="2.486742554">
        <ele>213.55</ele>
        <time>2013-06-23T09:17:35Z</time>
      </trkpt>
      <trkpt lat="41.655115631" lon="2.486590758">
        <ele>214.99</ele>
        <time>2013-06-23T09:17:43Z</time>
      </trkpt>
      <trkpt lat="41.655124599" lon="2.486404596">
        <ele>217.40</ele>
        <time>2013-06-23T09:17:52Z</time>
      </trkpt>
      <trkpt lat="41.655057963" lon="2.486236371">
        <ele>218.36</ele>
        <time>2013-06-23T09:18:01Z</time>
      </trkpt>
      <trkpt lat="41.654941203" lon="2.486070158">
        <ele>219.32</ele>
        <time>2013-06-23T09:18:10Z</time>
      </trkpt>
      <trkpt lat="41.654783204" lon="2.485903945">
        <ele>219.80</ele>
        <time>2013-06-23T09:18:20Z</time>
      </trkpt>
      <trkpt lat="41.654755712" lon="2.485700600">
        <ele>221.24</ele>
        <time>2013-06-23T09:18:29Z</time>
      </trkpt>
      <trkpt lat="41.654865850" lon="2.485542433">
        <ele>223.64</ele>
        <time>2013-06-23T09:18:39Z</time>
      </trkpt>
      <trkpt lat="41.654948412" lon="2.485409496">
        <ele>224.61</ele>
        <time>2013-06-23T09:18:46Z</time>
      </trkpt>
      <trkpt lat="41.655038853" lon="2.485193243">
        <ele>226.53</ele>
        <time>2013-06-23T09:18:56Z</time>
      </trkpt>
      <trkpt lat="41.655060310" lon="2.485030886">
        <ele>228.93</ele>
        <time>2013-06-23T09:19:04Z</time>
      </trkpt>
      <trkpt lat="41.654952351" lon="2.484959891">
        <ele>230.85</ele>
        <time>2013-06-23T09:19:13Z</time>
      </trkpt>
      <trkpt lat="41.654898372" lon="2.484989144">
        <ele>233.26</ele>
        <time>2013-06-23T09:19:19Z</time>
      </trkpt>
      <trkpt lat="41.654825952" lon="2.485044632">
        <ele>235.66</ele>
        <time>2013-06-23T09:19:28Z</time>
      </trkpt>
      <trkpt lat="41.654750180" lon="2.485087548">
        <ele>238.06</ele>
        <time>2013-06-23T09:19:36Z</time>
      </trkpt>
      <trkpt lat="41.654702654" lon="2.485084698">
        <ele>239.02</ele>
        <time>2013-06-23T09:19:41Z</time>
      </trkpt>
      <trkpt lat="41.654629899" lon="2.485063072">
        <ele>240.95</ele>
        <time>2013-06-23T09:19:48Z</time>
      </trkpt>
      <trkpt lat="41.654564269" lon="2.485099031">
        <ele>243.35</ele>
        <time>2013-06-23T09:19:57Z</time>
      </trkpt>
      <trkpt lat="41.654568711" lon="2.485128284">
        <ele>243.35</ele>
        <time>2013-06-23T09:20:04Z</time>
      </trkpt>
      <trkpt lat="41.654579776" lon="2.485207996">
        <ele>243.35</ele>
        <time>2013-06-23T09:20:09Z</time>
      </trkpt>
      <trkpt lat="41.654567203" lon="2.485226184">
        <ele>242.87</ele>
        <time>2013-06-23T09:20:10Z</time>
      </trkpt>
      <trkpt lat="41.654486150" lon="2.485369682">
        <ele>241.43</ele>
        <time>2013-06-23T09:20:15Z</time>
      </trkpt>
      <trkpt lat="41.654350195" lon="2.485637652">
        <ele>239.51</ele>
        <time>2013-06-23T09:20:21Z</time>
      </trkpt>
      <trkpt lat="41.654380538" lon="2.485854492">
        <ele>236.62</ele>
        <time>2013-06-23T09:20:26Z</time>
      </trkpt>
      <trkpt lat="41.654487742" lon="2.485973599">
        <ele>234.70</ele>
        <time>2013-06-23T09:20:30Z</time>
      </trkpt>
      <trkpt lat="41.654638617" lon="2.486294290">
        <ele>231.33</ele>
        <time>2013-06-23T09:20:37Z</time>
      </trkpt>
      <trkpt lat="41.654559491" lon="2.486423874">
        <ele>230.37</ele>
        <time>2013-06-23T09:20:40Z</time>
      </trkpt>
      <trkpt lat="41.654401241" lon="2.486626214">
        <ele>227.97</ele>
        <time>2013-06-23T09:20:45Z</time>
      </trkpt>
      <trkpt lat="41.654426303" lon="2.486778345">
        <ele>227.01</ele>
        <time>2013-06-23T09:20:50Z</time>
      </trkpt>
      <trkpt lat="41.654614980" lon="2.487102809">
        <ele>226.53</ele>
        <time>2013-06-23T09:20:59Z</time>
      </trkpt>
      <trkpt lat="41.654664852" lon="2.487198362">
        <ele>225.57</ele>
        <time>2013-06-23T09:21:01Z</time>
      </trkpt>
      <trkpt lat="41.654792005" lon="2.487401959">
        <ele>223.16</ele>
        <time>2013-06-23T09:21:06Z</time>
      </trkpt>
      <trkpt lat="41.654815056" lon="2.487474127">
        <ele>222.68</ele>
        <time>2013-06-23T09:21:11Z</time>
      </trkpt>
      <trkpt lat="41.654835927" lon="2.487490974">
        <ele>222.68</ele>
        <time>2013-06-23T09:21:20Z</time>
      </trkpt>
      <trkpt lat="41.654842129" lon="2.487491477">
        <ele>222.68</ele>
        <time>2013-06-23T09:21:26Z</time>
      </trkpt>
      <trkpt lat="41.654859563" lon="2.487514863">
        <ele>222.68</ele>
        <time>2013-06-23T09:21:35Z</time>
      </trkpt>
      <trkpt lat="41.654872975" lon="2.487507319">
        <ele>222.20</ele>
        <time>2013-06-23T09:21:43Z</time>
      </trkpt>
      <trkpt lat="41.654919494" lon="2.487532465">
        <ele>222.20</ele>
        <time>2013-06-23T09:22:05Z</time>
      </trkpt>
      <trkpt lat="41.654939024" lon="2.487512432">
        <ele>222.20</ele>
        <time>2013-06-23T09:22:26Z</time>
      </trkpt>
      <trkpt lat="41.654946232" lon="2.487504302">
        <ele>221.72</ele>
        <time>2013-06-23T09:22:46Z</time>
      </trkpt>
      <trkpt lat="41.654959979" lon="2.487493824">
        <ele>222.20</ele>
        <time>2013-06-23T09:23:06Z</time>
      </trkpt>
      <trkpt lat="41.654918991" lon="2.487434732">
        <ele>222.20</ele>
        <time>2013-06-23T09:23:33Z</time>
      </trkpt>
      <trkpt lat="41.654900216" lon="2.487455435">
        <ele>222.20</ele>
        <time>2013-06-23T09:23:56Z</time>
      </trkpt>
      <trkpt lat="41.654919578" lon="2.487480246">
        <ele>222.20</ele>
        <time>2013-06-23T09:24:19Z</time>
      </trkpt>
      <trkpt lat="41.654916393" lon="2.487482090">
        <ele>222.68</ele>
        <time>2013-06-23T09:24:38Z</time>
      </trkpt>
      <trkpt lat="41.654909855" lon="2.487508828">
        <ele>222.68</ele>
        <time>2013-06-23T09:24:56Z</time>
      </trkpt>
      <trkpt lat="41.654873058" lon="2.487505475">
        <ele>222.68</ele>
        <time>2013-06-23T09:25:15Z</time>
      </trkpt>
      <trkpt lat="41.654863922" lon="2.487484520">
        <ele>222.68</ele>
        <time>2013-06-23T09:25:30Z</time>
      </trkpt>
      <trkpt lat="41.654883284" lon="2.487469014">
        <ele>222.68</ele>
        <time>2013-06-23T09:25:49Z</time>
      </trkpt>
      <trkpt lat="41.654906502" lon="2.487493992">
        <ele>222.68</ele>
        <time>2013-06-23T09:26:00Z</time>
      </trkpt>
      <trkpt lat="41.654967103" lon="2.487590049">
        <ele>222.68</ele>
        <time>2013-06-23T09:26:06Z</time>
      </trkpt>
      <trkpt lat="41.655120492" lon="2.487673029">
        <ele>222.68</ele>
        <time>2013-06-23T09:26:13Z</time>
      </trkpt>
      <trkpt lat="41.655222248" lon="2.487794399">
        <ele>222.68</ele>
        <time>2013-06-23T09:26:18Z</time>
      </trkpt>
      <trkpt lat="41.655242616" lon="2.488040576">
        <ele>223.16</ele>
        <time>2013-06-23T09:26:25Z</time>
      </trkpt>
      <trkpt lat="41.655222919" lon="2.488104278">
        <ele>224.12</ele>
        <time>2013-06-23T09:26:27Z</time>
      </trkpt>
      <trkpt lat="41.655115044" lon="2.488315838">
        <ele>225.57</ele>
        <time>2013-06-23T09:26:35Z</time>
      </trkpt>
      <trkpt lat="41.654997362" lon="2.488417678">
        <ele>226.05</ele>
        <time>2013-06-23T09:26:41Z</time>
      </trkpt>
      <trkpt lat="41.654883033" lon="2.488557823">
        <ele>227.49</ele>
        <time>2013-06-23T09:26:48Z</time>
      </trkpt>
      <trkpt lat="41.654827461" lon="2.488604343">
        <ele>227.97</ele>
        <time>2013-06-23T09:26:51Z</time>
      </trkpt>
      <trkpt lat="41.654786641" lon="2.488793774">
        <ele>228.93</ele>
        <time>2013-06-23T09:26:58Z</time>
      </trkpt>
      <trkpt lat="41.654756885" lon="2.488973985">
        <ele>230.37</ele>
        <time>2013-06-23T09:27:06Z</time>
      </trkpt>
      <trkpt lat="41.654749677" lon="2.489031233">
        <ele>230.37</ele>
        <time>2013-06-23T09:27:09Z</time>
      </trkpt>
      <trkpt lat="41.654723609" lon="2.489238434">
        <ele>231.33</ele>
        <time>2013-06-23T09:27:19Z</time>
      </trkpt>
      <trkpt lat="41.654665103" lon="2.489415459">
        <ele>232.78</ele>
        <time>2013-06-23T09:27:28Z</time>
      </trkpt>
      <trkpt lat="41.654604083" lon="2.489567507">
        <ele>233.74</ele>
        <time>2013-06-23T09:27:37Z</time>
      </trkpt>
      <trkpt lat="41.654588493" lon="2.489603046">
        <ele>233.74</ele>
        <time>2013-06-23T09:27:45Z</time>
      </trkpt>
      <trkpt lat="41.654575249" lon="2.489636406">
        <ele>234.22</ele>
        <time>2013-06-23T09:27:54Z</time>
      </trkpt>
      <trkpt lat="41.654548008" lon="2.489679825">
        <ele>234.70</ele>
        <time>2013-06-23T09:28:01Z</time>
      </trkpt>
      <trkpt lat="41.654525126" lon="2.489673874">
        <ele>235.18</ele>
        <time>2013-06-23T09:28:09Z</time>
      </trkpt>
      <trkpt lat="41.654520348" lon="2.489653506">
        <ele>235.66</ele>
        <time>2013-06-23T09:28:11Z</time>
      </trkpt>
      <trkpt lat="41.654530322" lon="2.489510426">
        <ele>236.14</ele>
        <time>2013-06-23T09:28:20Z</time>
      </trkpt>
      <trkpt lat="41.654525964" lon="2.489349745">
        <ele>236.62</ele>
        <time>2013-06-23T09:28:28Z</time>
      </trkpt>
      <trkpt lat="41.654495454" lon="2.489181604">
        <ele>238.06</ele>
        <time>2013-06-23T09:28:36Z</time>
      </trkpt>
      <trkpt lat="41.654463519" lon="2.488971386">
        <ele>239.99</ele>
        <time>2013-06-23T09:28:45Z</time>
      </trkpt>
      <trkpt lat="41.654428315" lon="2.488835096">
        <ele>240.95</ele>
        <time>2013-06-23T09:28:52Z</time>
      </trkpt>
      <trkpt lat="41.654433595" lon="2.488694867">
        <ele>241.91</ele>
        <time>2013-06-23T09:28:58Z</time>
      </trkpt>
      <trkpt lat="41.654435272" lon="2.488541646">
        <ele>243.35</ele>
        <time>2013-06-23T09:29:05Z</time>
      </trkpt>
      <trkpt lat="41.654461675" lon="2.488335200">
        <ele>244.79</ele>
        <time>2013-06-23T09:29:14Z</time>
      </trkpt>
      <trkpt lat="41.654453712" lon="2.488152642">
        <ele>246.23</ele>
        <time>2013-06-23T09:29:22Z</time>
      </trkpt>
      <trkpt lat="41.654397637" lon="2.488018783">
        <ele>247.20</ele>
        <time>2013-06-23T09:29:28Z</time>
      </trkpt>
      <trkpt lat="41.654299233" lon="2.487805799">
        <ele>247.20</ele>
        <time>2013-06-23T09:29:36Z</time>
      </trkpt>
      <trkpt lat="41.654226897" lon="2.487543361">
        <ele>248.16</ele>
        <time>2013-06-23T09:29:45Z</time>
      </trkpt>
      <trkpt lat="41.654139726" lon="2.487331970">
        <ele>249.12</ele>
        <time>2013-06-23T09:29:53Z</time>
      </trkpt>
      <trkpt lat="41.654033946" lon="2.487130720">
        <ele>250.56</ele>
        <time>2013-06-23T09:30:02Z</time>
      </trkpt>
      <trkpt lat="41.653979128" lon="2.487033071">
        <ele>251.52</ele>
        <time>2013-06-23T09:30:07Z</time>
      </trkpt>
      <trkpt lat="41.653932106" lon="2.486968279">
        <ele>252.00</ele>
        <time>2013-06-23T09:30:11Z</time>
      </trkpt>
      <trkpt lat="41.653818112" lon="2.486768538">
        <ele>252.96</ele>
        <time>2013-06-23T09:30:20Z</time>
      </trkpt>
      <trkpt lat="41.653777963" lon="2.486595368">
        <ele>253.44</ele>
        <time>2013-06-23T09:30:26Z</time>
      </trkpt>
      <trkpt lat="41.653799839" lon="2.486378947">
        <ele>254.41</ele>
        <time>2013-06-23T09:30:33Z</time>
      </trkpt>
      <trkpt lat="41.653849460" lon="2.486126484">
        <ele>256.81</ele>
        <time>2013-06-23T09:30:42Z</time>
      </trkpt>
      <trkpt lat="41.653871253" lon="2.485888522">
        <ele>258.25</ele>
        <time>2013-06-23T09:30:51Z</time>
      </trkpt>
      <trkpt lat="41.653905703" lon="2.485646621">
        <ele>259.69</ele>
        <time>2013-06-23T09:30:59Z</time>
      </trkpt>
      <trkpt lat="41.653954402" lon="2.485394241">
        <ele>260.17</ele>
        <time>2013-06-23T09:31:07Z</time>
      </trkpt>
      <trkpt lat="41.653923221" lon="2.485135660">
        <ele>261.62</ele>
        <time>2013-06-23T09:31:16Z</time>
      </trkpt>
      <trkpt lat="41.653810484" lon="2.484939356">
        <ele>263.06</ele>
        <time>2013-06-23T09:31:24Z</time>
      </trkpt>
      <trkpt lat="41.653737394" lon="2.484697705">
        <ele>263.54</ele>
        <time>2013-06-23T09:31:32Z</time>
      </trkpt>
      <trkpt lat="41.653753236" lon="2.484397801">
        <ele>264.02</ele>
        <time>2013-06-23T09:31:41Z</time>
      </trkpt>
      <trkpt lat="41.653799923" lon="2.484147517">
        <ele>265.94</ele>
        <time>2013-06-23T09:31:49Z</time>
      </trkpt>
      <trkpt lat="41.653700933" lon="2.484066464">
        <ele>266.42</ele>
        <time>2013-06-23T09:31:55Z</time>
      </trkpt>
      <trkpt lat="41.653683331" lon="2.484087335">
        <ele>266.90</ele>
        <time>2013-06-23T09:31:56Z</time>
      </trkpt>
      <trkpt lat="41.653590879" lon="2.484323369">
        <ele>267.86</ele>
        <time>2013-06-23T09:32:05Z</time>
      </trkpt>
      <trkpt lat="41.653456098" lon="2.484485978">
        <ele>270.75</ele>
        <time>2013-06-23T09:32:14Z</time>
      </trkpt>
      <trkpt lat="41.653344032" lon="2.484664681">
        <ele>272.19</ele>
        <time>2013-06-23T09:32:23Z</time>
      </trkpt>
      <trkpt lat="41.653321903" lon="2.484910186">
        <ele>274.11</ele>
        <time>2013-06-23T09:32:32Z</time>
      </trkpt>
      <trkpt lat="41.653228194" lon="2.485169523">
        <ele>275.07</ele>
        <time>2013-06-23T09:32:42Z</time>
      </trkpt>
      <trkpt lat="41.653100453" lon="2.485376891">
        <ele>276.52</ele>
        <time>2013-06-23T09:32:51Z</time>
      </trkpt>
      <trkpt lat="41.652985118" lon="2.485474959">
        <ele>277.96</ele>
        <time>2013-06-23T09:32:58Z</time>
      </trkpt>
      <trkpt lat="41.652834831" lon="2.485427015">
        <ele>278.92</ele>
        <time>2013-06-23T09:33:06Z</time>
      </trkpt>
      <trkpt lat="41.652672138" lon="2.485320145">
        <ele>280.36</ele>
        <time>2013-06-23T09:33:15Z</time>
      </trkpt>
      <trkpt lat="41.652493017" lon="2.485365072">
        <ele>281.32</ele>
        <time>2013-06-23T09:33:24Z</time>
      </trkpt>
      <trkpt lat="41.652282044" lon="2.485429110">
        <ele>281.80</ele>
        <time>2013-06-23T09:33:33Z</time>
      </trkpt>
      <trkpt lat="41.652084567" lon="2.485533297">
        <ele>281.80</ele>
        <time>2013-06-23T09:33:41Z</time>
      </trkpt>
      <trkpt lat="41.651994797" lon="2.485674868">
        <ele>281.80</ele>
        <time>2013-06-23T09:33:47Z</time>
      </trkpt>
      <trkpt lat="41.652001083" lon="2.485737899">
        <ele>280.36</ele>
        <time>2013-06-23T09:33:49Z</time>
      </trkpt>
      <trkpt lat="41.652012650" lon="2.485763045">
        <ele>280.36</ele>
        <time>2013-06-23T09:33:50Z</time>
      </trkpt>
      <trkpt lat="41.652066043" lon="2.485774361">
        <ele>280.36</ele>
        <time>2013-06-23T09:33:54Z</time>
      </trkpt>
      <trkpt lat="41.652095966" lon="2.485737732">
        <ele>281.80</ele>
        <time>2013-06-23T09:33:57Z</time>
      </trkpt>
      <trkpt lat="41.652150700" lon="2.485668665">
        <ele>283.25</ele>
        <time>2013-06-23T09:34:04Z</time>
      </trkpt>
      <trkpt lat="41.652235190" lon="2.485662043">
        <ele>284.21</ele>
        <time>2013-06-23T09:34:12Z</time>
      </trkpt>
      <trkpt lat="41.652259749" lon="2.485677717">
        <ele>284.69</ele>
        <time>2013-06-23T09:34:15Z</time>
      </trkpt>
      <trkpt lat="41.652298557" lon="2.485710742">
        <ele>285.65</ele>
        <time>2013-06-23T09:34:19Z</time>
      </trkpt>
      <trkpt lat="41.652320098" lon="2.485729434">
        <ele>286.13</ele>
        <time>2013-06-23T09:34:21Z</time>
      </trkpt>
      <trkpt lat="41.652353123" lon="2.485776372">
        <ele>286.61</ele>
        <time>2013-06-23T09:34:25Z</time>
      </trkpt>
      <trkpt lat="41.652415149" lon="2.485852229">
        <ele>288.05</ele>
        <time>2013-06-23T09:34:34Z</time>
      </trkpt>
      <trkpt lat="41.652445408" lon="2.485848457">
        <ele>288.53</ele>
        <time>2013-06-23T09:34:40Z</time>
      </trkpt>
      <trkpt lat="41.652535681" lon="2.485906040">
        <ele>290.94</ele>
        <time>2013-06-23T09:34:49Z</time>
      </trkpt>
      <trkpt lat="41.652624194" lon="2.485979885">
        <ele>292.38</ele>
        <time>2013-06-23T09:34:58Z</time>
      </trkpt>
      <trkpt lat="41.652686220" lon="2.486071834">
        <ele>293.34</ele>
        <time>2013-06-23T09:35:06Z</time>
      </trkpt>
      <trkpt lat="41.652737769" lon="2.486168143">
        <ele>294.78</ele>
        <time>2013-06-23T09:35:14Z</time>
      </trkpt>
      <trkpt lat="41.652781606" lon="2.486248190">
        <ele>295.74</ele>
        <time>2013-06-23T09:35:21Z</time>
      </trkpt>
      <trkpt lat="41.652776409" lon="2.486338463">
        <ele>296.22</ele>
        <time>2013-06-23T09:35:26Z</time>
      </trkpt>
      <trkpt lat="41.652751934" lon="2.486533258">
        <ele>296.22</ele>
        <time>2013-06-23T09:35:35Z</time>
      </trkpt>
      <trkpt lat="41.652706001" lon="2.486696622">
        <ele>296.70</ele>
        <time>2013-06-23T09:35:45Z</time>
      </trkpt>
      <trkpt lat="41.652701391" lon="2.486707350">
        <ele>297.18</ele>
        <time>2013-06-23T09:35:46Z</time>
      </trkpt>
      <trkpt lat="41.652686471" lon="2.486812879">
        <ele>298.15</ele>
        <time>2013-06-23T09:35:54Z</time>
      </trkpt>
      <trkpt lat="41.652684208" lon="2.486829559">
        <ele>298.15</ele>
        <time>2013-06-23T09:35:55Z</time>
      </trkpt>
      <trkpt lat="41.652679850" lon="2.486940367">
        <ele>300.07</ele>
        <time>2013-06-23T09:36:02Z</time>
      </trkpt>
      <trkpt lat="41.652640455" lon="2.487064336">
        <ele>302.95</ele>
        <time>2013-06-23T09:36:13Z</time>
      </trkpt>
      <trkpt lat="41.652617823" lon="2.487140024">
        <ele>304.39</ele>
        <time>2013-06-23T09:36:20Z</time>
      </trkpt>
      <trkpt lat="41.652603239" lon="2.487252342">
        <ele>307.28</ele>
        <time>2013-06-23T09:36:28Z</time>
      </trkpt>
      <trkpt lat="41.652546242" lon="2.487371281">
        <ele>308.24</ele>
        <time>2013-06-23T09:36:37Z</time>
      </trkpt>
      <trkpt lat="41.652475415" lon="2.487473456">
        <ele>309.68</ele>
        <time>2013-06-23T09:36:46Z</time>
      </trkpt>
      <trkpt lat="41.652424621" lon="2.487511426">
        <ele>309.68</ele>
        <time>2013-06-23T09:36:50Z</time>
      </trkpt>
      <trkpt lat="41.652312806" lon="2.487591976">
        <ele>309.68</ele>
        <time>2013-06-23T09:36:56Z</time>
      </trkpt>
      <trkpt lat="41.652135613" lon="2.487530537">
        <ele>309.68</ele>
        <time>2013-06-23T09:37:04Z</time>
      </trkpt>
      <trkpt lat="41.652070150" lon="2.487444706">
        <ele>309.68</ele>
        <time>2013-06-23T09:37:10Z</time>
      </trkpt>
      <trkpt lat="41.652055482" lon="2.487258796">
        <ele>307.76</ele>
        <time>2013-06-23T09:37:17Z</time>
      </trkpt>
      <trkpt lat="41.652016254" lon="2.487114627">
        <ele>306.32</ele>
        <time>2013-06-23T09:37:21Z</time>
      </trkpt>
      <trkpt lat="41.651984487" lon="2.487051679">
        <ele>305.36</ele>
        <time>2013-06-23T09:37:23Z</time>
      </trkpt>
      <trkpt lat="41.651964287" lon="2.487009937">
        <ele>305.36</ele>
        <time>2013-06-23T09:37:25Z</time>
      </trkpt>
      <trkpt lat="41.651949870" lon="2.486909270">
        <ele>305.36</ele>
        <time>2013-06-23T09:37:33Z</time>
      </trkpt>
      <trkpt lat="41.651951546" lon="2.486897955">
        <ele>305.36</ele>
        <time>2013-06-23T09:37:41Z</time>
      </trkpt>
      <trkpt lat="41.651945092" lon="2.486892255">
        <ele>305.36</ele>
        <time>2013-06-23T09:37:56Z</time>
      </trkpt>
      <trkpt lat="41.651948361" lon="2.486918826">
        <ele>305.36</ele>
        <time>2013-06-23T09:38:15Z</time>
      </trkpt>
      <trkpt lat="41.651949953" lon="2.486913210">
        <ele>305.36</ele>
        <time>2013-06-23T09:38:33Z</time>
      </trkpt>
      <trkpt lat="41.651958587" lon="2.486885717">
        <ele>305.36</ele>
        <time>2013-06-23T09:38:57Z</time>
      </trkpt>
      <trkpt lat="41.651962023" lon="2.486876665">
        <ele>305.36</ele>
        <time>2013-06-23T09:39:13Z</time>
      </trkpt>
      <trkpt lat="41.651944170" lon="2.486870211">
        <ele>305.36</ele>
        <time>2013-06-23T09:39:36Z</time>
      </trkpt>
      <trkpt lat="41.651917013" lon="2.486882197">
        <ele>305.36</ele>
        <time>2013-06-23T09:39:55Z</time>
      </trkpt>
      <trkpt lat="41.651912905" lon="2.486886220">
        <ele>305.36</ele>
        <time>2013-06-23T09:40:06Z</time>
      </trkpt>
      <trkpt lat="41.651935285" lon="2.486885717">
        <ele>305.36</ele>
        <time>2013-06-23T09:40:21Z</time>
      </trkpt>
      <trkpt lat="41.651934447" lon="2.486859901">
        <ele>305.36</ele>
        <time>2013-06-23T09:40:38Z</time>
      </trkpt>
      <trkpt lat="41.651936626" lon="2.486859733">
        <ele>305.36</ele>
        <time>2013-06-23T09:40:53Z</time>
      </trkpt>
      <trkpt lat="41.651942158" lon="2.486872893">
        <ele>305.36</ele>
        <time>2013-06-23T09:41:08Z</time>
      </trkpt>
      <trkpt lat="41.651930172" lon="2.486911031">
        <ele>305.36</ele>
        <time>2013-06-23T09:41:28Z</time>
      </trkpt>
      <trkpt lat="41.651937381" lon="2.486896027">
        <ele>305.36</ele>
        <time>2013-06-23T09:41:43Z</time>
      </trkpt>
      <trkpt lat="41.651942829" lon="2.486885131">
        <ele>305.36</ele>
        <time>2013-06-23T09:41:56Z</time>
      </trkpt>
      <trkpt lat="41.651921371" lon="2.486897200">
        <ele>305.36</ele>
        <time>2013-06-23T09:42:18Z</time>
      </trkpt>
      <trkpt lat="41.651916258" lon="2.486895859">
        <ele>305.36</ele>
        <time>2013-06-23T09:42:41Z</time>
      </trkpt>
      <trkpt lat="41.651914079" lon="2.486898039">
        <ele>305.36</ele>
        <time>2013-06-23T09:43:05Z</time>
      </trkpt>
      <trkpt lat="41.651920952" lon="2.486887142">
        <ele>305.36</ele>
        <time>2013-06-23T09:43:21Z</time>
      </trkpt>
      <trkpt lat="41.651926484" lon="2.486871300">
        <ele>305.36</ele>
        <time>2013-06-23T09:43:41Z</time>
      </trkpt>
      <trkpt lat="41.651930256" lon="2.486871384">
        <ele>305.36</ele>
        <time>2013-06-23T09:43:56Z</time>
      </trkpt>
      <trkpt lat="41.651930005" lon="2.486870295">
        <ele>305.36</ele>
        <time>2013-06-23T09:44:09Z</time>
      </trkpt>
      <trkpt lat="41.651943918" lon="2.486881694">
        <ele>305.36</ele>
        <time>2013-06-23T09:44:30Z</time>
      </trkpt>
      <trkpt lat="41.651946182" lon="2.486895189">
        <ele>305.36</ele>
        <time>2013-06-23T09:44:42Z</time>
      </trkpt>
      <trkpt lat="41.651955653" lon="2.486873480">
        <ele>305.36</ele>
        <time>2013-06-23T09:45:03Z</time>
      </trkpt>
      <trkpt lat="41.651948109" lon="2.486863673">
        <ele>305.36</ele>
        <time>2013-06-23T09:45:21Z</time>
      </trkpt>
      <trkpt lat="41.651940650" lon="2.486847915">
        <ele>305.36</ele>
        <time>2013-06-23T09:45:38Z</time>
      </trkpt>
      <trkpt lat="41.651942326" lon="2.486878006">
        <ele>305.36</ele>
        <time>2013-06-23T09:45:54Z</time>
      </trkpt>
      <trkpt lat="41.651935620" lon="2.486889070">
        <ele>305.36</ele>
        <time>2013-06-23T09:46:08Z</time>
      </trkpt>
      <trkpt lat="41.651929753" lon="2.486866690">
        <ele>305.36</ele>
        <time>2013-06-23T09:46:32Z</time>
      </trkpt>
      <trkpt lat="41.651933357" lon="2.486887645">
        <ele>305.36</ele>
        <time>2013-06-23T09:46:49Z</time>
      </trkpt>
      <trkpt lat="41.651920701" lon="2.486912623">
        <ele>305.36</ele>
        <time>2013-06-23T09:47:01Z</time>
      </trkpt>
      <trkpt lat="41.651937464" lon="2.486907929">
        <ele>305.36</ele>
        <time>2013-06-23T09:47:20Z</time>
      </trkpt>
      <trkpt lat="41.651939476" lon="2.486898290">
        <ele>305.36</ele>
        <time>2013-06-23T09:47:35Z</time>
      </trkpt>
      <trkpt lat="41.651942074" lon="2.486883957">
        <ele>305.36</ele>
        <time>2013-06-23T09:47:53Z</time>
      </trkpt>
      <trkpt lat="41.651937716" lon="2.486893512">
        <ele>305.36</ele>
        <time>2013-06-23T09:48:15Z</time>
      </trkpt>
      <trkpt lat="41.651931346" lon="2.486898877">
        <ele>305.36</ele>
        <time>2013-06-23T09:48:34Z</time>
      </trkpt>
      <trkpt lat="41.651928999" lon="2.486894686">
        <ele>305.36</ele>
        <time>2013-06-23T09:48:49Z</time>
      </trkpt>
      <trkpt lat="41.651941404" lon="2.486877587">
        <ele>305.36</ele>
        <time>2013-06-23T09:49:02Z</time>
      </trkpt>
      <trkpt lat="41.651936207" lon="2.486885466">
        <ele>305.36</ele>
        <time>2013-06-23T09:49:20Z</time>
      </trkpt>
      <trkpt lat="41.651934112" lon="2.486912372">
        <ele>305.36</ele>
        <time>2013-06-23T09:49:41Z</time>
      </trkpt>
      <trkpt lat="41.651937297" lon="2.486908684">
        <ele>305.36</ele>
        <time>2013-06-23T09:49:54Z</time>
      </trkpt>
      <trkpt lat="41.651941655" lon="2.486886053">
        <ele>305.36</ele>
        <time>2013-06-23T09:50:09Z</time>
      </trkpt>
      <trkpt lat="41.651941655" lon="2.486874234">
        <ele>305.36</ele>
        <time>2013-06-23T09:50:27Z</time>
      </trkpt>
      <trkpt lat="41.651942158" lon="2.486882113">
        <ele>305.36</ele>
        <time>2013-06-23T09:50:44Z</time>
      </trkpt>
      <trkpt lat="41.651927238" lon="2.486910360">
        <ele>305.36</ele>
        <time>2013-06-23T09:51:03Z</time>
      </trkpt>
      <trkpt lat="41.651928915" lon="2.486900637">
        <ele>305.36</ele>
        <time>2013-06-23T09:51:21Z</time>
      </trkpt>
      <trkpt lat="41.651931094" lon="2.486879179">
        <ele>305.36</ele>
        <time>2013-06-23T09:51:42Z</time>
      </trkpt>
      <trkpt lat="41.651932854" lon="2.486898961">
        <ele>305.36</ele>
        <time>2013-06-23T09:52:04Z</time>
      </trkpt>
      <trkpt lat="41.651932435" lon="2.486898290">
        <ele>305.36</ele>
        <time>2013-06-23T09:52:17Z</time>
      </trkpt>
      <trkpt lat="41.651933022" lon="2.486880101">
        <ele>305.36</ele>
        <time>2013-06-23T09:52:30Z</time>
      </trkpt>
      <trkpt lat="41.651943499" lon="2.486855207">
        <ele>305.36</ele>
        <time>2013-06-23T09:52:46Z</time>
      </trkpt>
      <trkpt lat="41.651942745" lon="2.486868199">
        <ele>305.36</ele>
        <time>2013-06-23T09:53:07Z</time>
      </trkpt>
      <trkpt lat="41.651939141" lon="2.486872809">
        <ele>305.36</ele>
        <time>2013-06-23T09:53:26Z</time>
      </trkpt>
      <trkpt lat="41.651926233" lon="2.486883957">
        <ele>305.36</ele>
        <time>2013-06-23T09:53:44Z</time>
      </trkpt>
      <trkpt lat="41.651933776" lon="2.486883789">
        <ele>305.36</ele>
        <time>2013-06-23T09:54:04Z</time>
      </trkpt>
      <trkpt lat="41.651969735" lon="2.486882197">
        <ele>305.36</ele>
        <time>2013-06-23T09:54:23Z</time>
      </trkpt>
      <trkpt lat="41.651955988" lon="2.486888567">
        <ele>305.36</ele>
        <time>2013-06-23T09:54:39Z</time>
      </trkpt>
      <trkpt lat="41.651936710" lon="2.486894602">
        <ele>305.36</ele>
        <time>2013-06-23T09:54:54Z</time>
      </trkpt>
      <trkpt lat="41.651939141" lon="2.486891082">
        <ele>305.36</ele>
        <time>2013-06-23T09:55:15Z</time>
      </trkpt>
      <trkpt lat="41.651932603" lon="2.486892758">
        <ele>305.36</ele>
        <time>2013-06-23T09:55:32Z</time>
      </trkpt>
      <trkpt lat="41.651946936" lon="2.486917485">
        <ele>305.36</ele>
        <time>2013-06-23T09:55:44Z</time>
      </trkpt>
      <trkpt lat="41.651961940" lon="2.486941289">
        <ele>306.32</ele>
        <time>2013-06-23T09:55:49Z</time>
      </trkpt>
      <trkpt lat="41.651959174" lon="2.487004321">
        <ele>306.32</ele>
        <time>2013-06-23T09:55:57Z</time>
      </trkpt>
      <trkpt lat="41.651963448" lon="2.487027036">
        <ele>306.32</ele>
        <time>2013-06-23T09:55:59Z</time>
      </trkpt>
      <trkpt lat="41.652016925" lon="2.487134827">
        <ele>306.32</ele>
        <time>2013-06-23T09:56:04Z</time>
      </trkpt>
      <trkpt lat="41.652047686" lon="2.487268267">
        <ele>307.76</ele>
        <time>2013-06-23T09:56:10Z</time>
      </trkpt>
      <trkpt lat="41.652058164" lon="2.487289222">
        <ele>307.76</ele>
        <time>2013-06-23T09:56:11Z</time>
      </trkpt>
      <trkpt lat="41.652061433" lon="2.487449233">
        <ele>311.12</ele>
        <time>2013-06-23T09:56:20Z</time>
      </trkpt>
      <trkpt lat="41.652065205" lon="2.487487873">
        <ele>311.12</ele>
        <time>2013-06-23T09:56:27Z</time>
      </trkpt>
      <trkpt lat="41.652068138" lon="2.487494830">
        <ele>311.12</ele>
        <time>2013-06-23T09:56:38Z</time>
      </trkpt>
      <trkpt lat="41.652163524" lon="2.487588875">
        <ele>311.12</ele>
        <time>2013-06-23T09:56:44Z</time>
      </trkpt>
      <trkpt lat="41.652296797" lon="2.487651488">
        <ele>310.16</ele>
        <time>2013-06-23T09:56:50Z</time>
      </trkpt>
      <trkpt lat="41.652403750" lon="2.487574794">
        <ele>310.16</ele>
        <time>2013-06-23T09:56:56Z</time>
      </trkpt>
      <trkpt lat="41.652504081" lon="2.487483682">
        <ele>310.16</ele>
        <time>2013-06-23T09:57:05Z</time>
      </trkpt>
      <trkpt lat="41.652551523" lon="2.487382094">
        <ele>309.68</ele>
        <time>2013-06-23T09:57:09Z</time>
      </trkpt>
      <trkpt lat="41.652602066" lon="2.487230633">
        <ele>307.76</ele>
        <time>2013-06-23T09:57:15Z</time>
      </trkpt>
      <trkpt lat="41.652614555" lon="2.487178413">
        <ele>305.84</ele>
        <time>2013-06-23T09:57:17Z</time>
      </trkpt>
      <trkpt lat="41.652671216" lon="2.487020666">
        <ele>302.95</ele>
        <time>2013-06-23T09:57:23Z</time>
      </trkpt>
      <trkpt lat="41.652690998" lon="2.486845987">
        <ele>300.55</ele>
        <time>2013-06-23T09:57:26Z</time>
      </trkpt>
      <trkpt lat="41.652769955" lon="2.486501994">
        <ele>298.63</ele>
        <time>2013-06-23T09:57:31Z</time>
      </trkpt>
      <trkpt lat="41.652770877" lon="2.486246178">
        <ele>298.15</ele>
        <time>2013-06-23T09:57:35Z</time>
      </trkpt>
      <trkpt lat="41.652719915" lon="2.486151546">
        <ele>297.18</ele>
        <time>2013-06-23T09:57:37Z</time>
      </trkpt>
      <trkpt lat="41.652665097" lon="2.486061357">
        <ele>295.74</ele>
        <time>2013-06-23T09:57:39Z</time>
      </trkpt>
      <trkpt lat="41.652605754" lon="2.485988602">
        <ele>294.78</ele>
        <time>2013-06-23T09:57:41Z</time>
      </trkpt>
      <trkpt lat="41.652542219" lon="2.485945771">
        <ele>293.34</ele>
        <time>2013-06-23T09:57:43Z</time>
      </trkpt>
      <trkpt lat="41.652351363" lon="2.485767152">
        <ele>288.53</ele>
        <time>2013-06-23T09:57:49Z</time>
      </trkpt>
      <trkpt lat="41.652207613" lon="2.485685596">
        <ele>286.13</ele>
        <time>2013-06-23T09:57:55Z</time>
      </trkpt>
      <trkpt lat="41.652114825" lon="2.485766985">
        <ele>284.69</ele>
        <time>2013-06-23T09:57:58Z</time>
      </trkpt>
      <trkpt lat="41.652008627" lon="2.485776875">
        <ele>282.28</ele>
        <time>2013-06-23T09:58:02Z</time>
      </trkpt>
      <trkpt lat="41.651953306" lon="2.485799339">
        <ele>282.28</ele>
        <time>2013-06-23T09:58:06Z</time>
      </trkpt>
      <trkpt lat="41.651824644" lon="2.485909980">
        <ele>282.28</ele>
        <time>2013-06-23T09:58:13Z</time>
      </trkpt>
      <trkpt lat="41.651727749" lon="2.485981058">
        <ele>282.28</ele>
        <time>2013-06-23T09:58:19Z</time>
      </trkpt>
      <trkpt lat="41.651607134" lon="2.485982400">
        <ele>283.25</ele>
        <time>2013-06-23T09:58:26Z</time>
      </trkpt>
      <trkpt lat="41.651533457" lon="2.486002097">
        <ele>283.73</ele>
        <time>2013-06-23T09:58:30Z</time>
      </trkpt>
      <trkpt lat="41.651341846" lon="2.486027997">
        <ele>284.69</ele>
        <time>2013-06-23T09:58:39Z</time>
      </trkpt>
      <trkpt lat="41.651174208" lon="2.486091364">
        <ele>284.69</ele>
        <time>2013-06-23T09:58:46Z</time>
      </trkpt>
      <trkpt lat="41.650965247" lon="2.486014670">
        <ele>284.69</ele>
        <time>2013-06-23T09:58:55Z</time>
      </trkpt>
      <trkpt lat="41.650798280" lon="2.485953817">
        <ele>285.17</ele>
        <time>2013-06-23T09:59:03Z</time>
      </trkpt>
      <trkpt lat="41.650671629" lon="2.486010144">
        <ele>285.65</ele>
        <time>2013-06-23T09:59:09Z</time>
      </trkpt>
      <trkpt lat="41.650591247" lon="2.486112151">
        <ele>286.13</ele>
        <time>2013-06-23T09:59:15Z</time>
      </trkpt>
      <trkpt lat="41.650518827" lon="2.486232935">
        <ele>286.13</ele>
        <time>2013-06-23T09:59:20Z</time>
      </trkpt>
      <trkpt lat="41.650379772" lon="2.486468131">
        <ele>287.57</ele>
        <time>2013-06-23T09:59:30Z</time>
      </trkpt>
      <trkpt lat="41.650327636" lon="2.486663932">
        <ele>289.97</ele>
        <time>2013-06-23T09:59:37Z</time>
      </trkpt>
      <trkpt lat="41.650293270" lon="2.486829726">
        <ele>290.94</ele>
        <time>2013-06-23T09:59:43Z</time>
      </trkpt>
      <trkpt lat="41.650315482" lon="2.487015888">
        <ele>293.82</ele>
        <time>2013-06-23T09:59:51Z</time>
      </trkpt>
      <trkpt lat="41.650330989" lon="2.487093169">
        <ele>295.26</ele>
        <time>2013-06-23T09:59:55Z</time>
      </trkpt>
      <trkpt lat="41.650273740" lon="2.487178832">
        <ele>296.70</ele>
        <time>2013-06-23T10:00:02Z</time>
      </trkpt>
      <trkpt lat="41.650168799" lon="2.487281678">
        <ele>299.11</ele>
        <time>2013-06-23T10:00:11Z</time>
      </trkpt>
      <trkpt lat="41.650093362" lon="2.487404306">
        <ele>300.07</ele>
        <time>2013-06-23T10:00:19Z</time>
      </trkpt>
      <trkpt lat="41.650039885" lon="2.487501200">
        <ele>301.99</ele>
        <time>2013-06-23T10:00:26Z</time>
      </trkpt>
      <trkpt lat="41.649999233" lon="2.487630449">
        <ele>303.43</ele>
        <time>2013-06-23T10:00:35Z</time>
      </trkpt>
      <trkpt lat="41.649994958" lon="2.487693649">
        <ele>303.43</ele>
        <time>2013-06-23T10:00:39Z</time>
      </trkpt>
      <trkpt lat="41.649853472" lon="2.487759950">
        <ele>303.43</ele>
        <time>2013-06-23T10:00:46Z</time>
      </trkpt>
      <trkpt lat="41.649686672" lon="2.487615865">
        <ele>301.99</ele>
        <time>2013-06-23T10:00:51Z</time>
      </trkpt>
      <trkpt lat="41.649502941" lon="2.487454932">
        <ele>300.55</ele>
        <time>2013-06-23T10:00:56Z</time>
      </trkpt>
      <trkpt lat="41.649401603" lon="2.487596167">
        <ele>299.59</ele>
        <time>2013-06-23T10:00:59Z</time>
      </trkpt>
      <trkpt lat="41.649294650" lon="2.487878721">
        <ele>298.15</ele>
        <time>2013-06-23T10:01:03Z</time>
      </trkpt>
      <trkpt lat="41.649047636" lon="2.488095058">
        <ele>294.78</ele>
        <time>2013-06-23T10:01:08Z</time>
      </trkpt>
      <trkpt lat="41.648929283" lon="2.488239395">
        <ele>293.82</ele>
        <time>2013-06-23T10:01:11Z</time>
      </trkpt>
      <trkpt lat="41.648837837" lon="2.488498060">
        <ele>290.46</ele>
        <time>2013-06-23T10:01:16Z</time>
      </trkpt>
      <trkpt lat="41.648774889" lon="2.488688246">
        <ele>289.97</ele>
        <time>2013-06-23T10:01:19Z</time>
      </trkpt>
      <trkpt lat="41.648643963" lon="2.488890752">
        <ele>289.49</ele>
        <time>2013-06-23T10:01:25Z</time>
      </trkpt>
      <trkpt lat="41.648540279" lon="2.489134079">
        <ele>291.90</ele>
        <time>2013-06-23T10:01:34Z</time>
      </trkpt>
      <trkpt lat="41.648400469" lon="2.489314458">
        <ele>291.90</ele>
        <time>2013-06-23T10:01:40Z</time>
      </trkpt>
      <trkpt lat="41.648307681" lon="2.489462566">
        <ele>291.90</ele>
        <time>2013-06-23T10:01:43Z</time>
      </trkpt>
      <trkpt lat="41.648192765" lon="2.489704384">
        <ele>289.01</ele>
        <time>2013-06-23T10:01:47Z</time>
      </trkpt>
      <trkpt lat="41.648191257" lon="2.489783090">
        <ele>289.01</ele>
        <time>2013-06-23T10:01:48Z</time>
      </trkpt>
      <trkpt lat="41.648089500" lon="2.490257086">
        <ele>286.61</ele>
        <time>2013-06-23T10:01:54Z</time>
      </trkpt>
      <trkpt lat="41.647948517" lon="2.490418187">
        <ele>283.25</ele>
        <time>2013-06-23T10:01:58Z</time>
      </trkpt>
      <trkpt lat="41.647938375" lon="2.490698142">
        <ele>281.32</ele>
        <time>2013-06-23T10:02:02Z</time>
      </trkpt>
      <trkpt lat="41.647941811" lon="2.490927555">
        <ele>279.40</ele>
        <time>2013-06-23T10:02:05Z</time>
      </trkpt>
      <trkpt lat="41.648045579" lon="2.491341369">
        <ele>277.48</ele>
        <time>2013-06-23T10:02:11Z</time>
      </trkpt>
      <trkpt lat="41.647986906" lon="2.491608752">
        <ele>274.11</ele>
        <time>2013-06-23T10:02:16Z</time>
      </trkpt>
      <trkpt lat="41.647866123" lon="2.491786448">
        <ele>272.67</ele>
        <time>2013-06-23T10:02:19Z</time>
      </trkpt>
      <trkpt lat="41.647692450" lon="2.492130358">
        <ele>271.71</ele>
        <time>2013-06-23T10:02:25Z</time>
      </trkpt>
      <trkpt lat="41.647539396" lon="2.492316520">
        <ele>271.71</ele>
        <time>2013-06-23T10:02:32Z</time>
      </trkpt>
      <trkpt lat="41.647464462" lon="2.492344935">
        <ele>271.71</ele>
        <time>2013-06-23T10:02:34Z</time>
      </trkpt>
      <trkpt lat="41.647379637" lon="2.492339403">
        <ele>271.23</ele>
        <time>2013-06-23T10:02:36Z</time>
      </trkpt>
      <trkpt lat="41.647111667" lon="2.492258852">
        <ele>269.31</ele>
        <time>2013-06-23T10:02:41Z</time>
      </trkpt>
      <trkpt lat="41.646862725" lon="2.492294895">
        <ele>268.35</ele>
        <time>2013-06-23T10:02:45Z</time>
      </trkpt>
      <trkpt lat="41.646774547" lon="2.492431603">
        <ele>268.35</ele>
        <time>2013-06-23T10:02:48Z</time>
      </trkpt>
      <trkpt lat="41.646765411" lon="2.492548112">
        <ele>268.35</ele>
        <time>2013-06-23T10:02:51Z</time>
      </trkpt>
      <trkpt lat="41.646767590" lon="2.492695382">
        <ele>269.79</ele>
        <time>2013-06-23T10:02:55Z</time>
      </trkpt>
      <trkpt lat="41.646743199" lon="2.492953042">
        <ele>271.23</ele>
        <time>2013-06-23T10:03:03Z</time>
      </trkpt>
      <trkpt lat="41.646737164" lon="2.493042393">
        <ele>272.19</ele>
        <time>2013-06-23T10:03:06Z</time>
      </trkpt>
      <trkpt lat="41.646812266" lon="2.493277338">
        <ele>272.67</ele>
        <time>2013-06-23T10:03:14Z</time>
      </trkpt>
      <trkpt lat="41.646821821" lon="2.493331317">
        <ele>271.23</ele>
        <time>2013-06-23T10:03:16Z</time>
      </trkpt>
      <trkpt lat="41.646825174" lon="2.493355960">
        <ele>270.75</ele>
        <time>2013-06-23T10:03:17Z</time>
      </trkpt>
      <trkpt lat="41.646781420" lon="2.493394936">
        <ele>269.79</ele>
        <time>2013-06-23T10:03:23Z</time>
      </trkpt>
      <trkpt lat="41.646739260" lon="2.493293347">
        <ele>272.67</ele>
        <time>2013-06-23T10:03:32Z</time>
      </trkpt>
      <trkpt lat="41.646739762" lon="2.493291084">
        <ele>272.67</ele>
        <time>2013-06-23T10:03:39Z</time>
      </trkpt>
      <trkpt lat="41.646681005" lon="2.493184717">
        <ele>275.07</ele>
        <time>2013-06-23T10:03:49Z</time>
      </trkpt>
      <trkpt lat="41.646632139" lon="2.493086565">
        <ele>276.52</ele>
        <time>2013-06-23T10:03:56Z</time>
      </trkpt>
      <trkpt lat="41.646568017" lon="2.492994616">
        <ele>278.92</ele>
        <time>2013-06-23T10:04:04Z</time>
      </trkpt>
      <trkpt lat="41.646563240" lon="2.492981205">
        <ele>279.40</ele>
        <time>2013-06-23T10:04:05Z</time>
      </trkpt>
      <trkpt lat="41.646534993" lon="2.492847094">
        <ele>280.84</ele>
        <time>2013-06-23T10:04:14Z</time>
      </trkpt>
      <trkpt lat="41.646516804" lon="2.492741566">
        <ele>282.77</ele>
        <time>2013-06-23T10:04:22Z</time>
      </trkpt>
      <trkpt lat="41.646515463" lon="2.492722791">
        <ele>282.77</ele>
        <time>2013-06-23T10:04:28Z</time>
      </trkpt>
      <trkpt lat="41.646490149" lon="2.492656238">
        <ele>283.73</ele>
        <time>2013-06-23T10:04:38Z</time>
      </trkpt>
      <trkpt lat="41.646473553" lon="2.492569821">
        <ele>285.65</ele>
        <time>2013-06-23T10:04:46Z</time>
      </trkpt>
      <trkpt lat="41.646453437" lon="2.492528247">
        <ele>286.61</ele>
        <time>2013-06-23T10:04:55Z</time>
      </trkpt>
      <trkpt lat="41.646430135" lon="2.492466137">
        <ele>287.09</ele>
        <time>2013-06-23T10:05:04Z</time>
      </trkpt>
      <trkpt lat="41.646379424" lon="2.492360693">
        <ele>289.97</ele>
        <time>2013-06-23T10:05:13Z</time>
      </trkpt>
      <trkpt lat="41.646316393" lon="2.492316017">
        <ele>291.90</ele>
        <time>2013-06-23T10:05:20Z</time>
      </trkpt>
      <trkpt lat="41.646238106" lon="2.492318699">
        <ele>293.34</ele>
        <time>2013-06-23T10:05:28Z</time>
      </trkpt>
      <trkpt lat="41.646153867" lon="2.492280226">
        <ele>295.74</ele>
        <time>2013-06-23T10:05:36Z</time>
      </trkpt>
      <trkpt lat="41.646145486" lon="2.492272431">
        <ele>295.74</ele>
        <time>2013-06-23T10:05:37Z</time>
      </trkpt>
      <trkpt lat="41.646105001" lon="2.492197832">
        <ele>297.18</ele>
        <time>2013-06-23T10:05:44Z</time>
      </trkpt>
      <trkpt lat="41.646045992" lon="2.492086185">
        <ele>299.11</ele>
        <time>2013-06-23T10:05:52Z</time>
      </trkpt>
      <trkpt lat="41.646018164" lon="2.491968922">
        <ele>300.07</ele>
        <time>2013-06-23T10:06:01Z</time>
      </trkpt>
      <trkpt lat="41.645981033" lon="2.491846295">
        <ele>301.99</ele>
        <time>2013-06-23T10:06:10Z</time>
      </trkpt>
      <trkpt lat="41.645986397" lon="2.491774378">
        <ele>302.47</ele>
        <time>2013-06-23T10:06:14Z</time>
      </trkpt>
      <trkpt lat="41.645992348" lon="2.491634904">
        <ele>303.91</ele>
        <time>2013-06-23T10:06:24Z</time>
      </trkpt>
      <trkpt lat="41.646010369" lon="2.491490148">
        <ele>305.84</ele>
        <time>2013-06-23T10:06:34Z</time>
      </trkpt>
      <trkpt lat="41.646028893" lon="2.491432900">
        <ele>306.80</ele>
        <time>2013-06-23T10:06:38Z</time>
      </trkpt>
      <trkpt lat="41.646063427" lon="2.491270878">
        <ele>308.72</ele>
        <time>2013-06-23T10:06:47Z</time>
      </trkpt>
      <trkpt lat="41.646093937" lon="2.491145652">
        <ele>310.16</ele>
        <time>2013-06-23T10:06:56Z</time>
      </trkpt>
      <trkpt lat="41.646108521" lon="2.491016906">
        <ele>311.60</ele>
        <time>2013-06-23T10:07:05Z</time>
      </trkpt>
      <trkpt lat="41.646118831" lon="2.490859158">
        <ele>314.01</ele>
        <time>2013-06-23T10:07:16Z</time>
      </trkpt>
      <trkpt lat="41.646149844" lon="2.490747009">
        <ele>315.93</ele>
        <time>2013-06-23T10:07:24Z</time>
      </trkpt>
      <trkpt lat="41.646199716" lon="2.490671739">
        <ele>317.85</ele>
        <time>2013-06-23T10:07:32Z</time>
      </trkpt>
      <trkpt lat="41.646254618" lon="2.490626812">
        <ele>319.30</ele>
        <time>2013-06-23T10:07:39Z</time>
      </trkpt>
      <trkpt lat="41.646333995" lon="2.490553806">
        <ele>321.70</ele>
        <time>2013-06-23T10:07:47Z</time>
      </trkpt>
      <trkpt lat="41.646414293" lon="2.490468897">
        <ele>324.10</ele>
        <time>2013-06-23T10:07:56Z</time>
      </trkpt>
      <trkpt lat="41.646428207" lon="2.490450541">
        <ele>324.58</ele>
        <time>2013-06-23T10:07:58Z</time>
      </trkpt>
      <trkpt lat="41.646394344" lon="2.490422964">
        <ele>325.06</ele>
        <time>2013-06-23T10:08:03Z</time>
      </trkpt>
      <trkpt lat="41.646280853" lon="2.490463533">
        <ele>324.58</ele>
        <time>2013-06-23T10:08:12Z</time>
      </trkpt>
      <trkpt lat="41.646171805" lon="2.490476022">
        <ele>324.58</ele>
        <time>2013-06-23T10:08:20Z</time>
      </trkpt>
      <trkpt lat="41.646059906" lon="2.490449116">
        <ele>325.06</ele>
        <time>2013-06-23T10:08:27Z</time>
      </trkpt>
      <trkpt lat="41.645931663" lon="2.490411481">
        <ele>325.54</ele>
        <time>2013-06-23T10:08:34Z</time>
      </trkpt>
      <trkpt lat="41.645725636" lon="2.490334451">
        <ele>325.54</ele>
        <time>2013-06-23T10:08:44Z</time>
      </trkpt>
      <trkpt lat="41.645681631" lon="2.490312826">
        <ele>325.54</ele>
        <time>2013-06-23T10:08:46Z</time>
      </trkpt>
      <trkpt lat="41.645515083" lon="2.490293296">
        <ele>325.54</ele>
        <time>2013-06-23T10:08:53Z</time>
      </trkpt>
      <trkpt lat="41.645383403" lon="2.490321795">
        <ele>325.54</ele>
        <time>2013-06-23T10:09:00Z</time>
      </trkpt>
      <trkpt lat="41.645153739" lon="2.490337553">
        <ele>326.02</ele>
        <time>2013-06-23T10:09:11Z</time>
      </trkpt>
      <trkpt lat="41.644995069" lon="2.490311904">
        <ele>326.50</ele>
        <time>2013-06-23T10:09:18Z</time>
      </trkpt>
      <trkpt lat="41.644814942" lon="2.490309641">
        <ele>327.95</ele>
        <time>2013-06-23T10:09:27Z</time>
      </trkpt>
      <trkpt lat="41.644716539" lon="2.490345515">
        <ele>329.39</ele>
        <time>2013-06-23T10:09:33Z</time>
      </trkpt>
      <trkpt lat="41.644637246" lon="2.490334367">
        <ele>329.87</ele>
        <time>2013-06-23T10:09:37Z</time>
      </trkpt>
      <trkpt lat="41.644508835" lon="2.490289357">
        <ele>332.27</ele>
        <time>2013-06-23T10:09:46Z</time>
      </trkpt>
      <trkpt lat="41.644394841" lon="2.490289860">
        <ele>332.75</ele>
        <time>2013-06-23T10:09:53Z</time>
      </trkpt>
      <trkpt lat="41.644231729" lon="2.490254069">
        <ele>333.23</ele>
        <time>2013-06-23T10:10:01Z</time>
      </trkpt>
      <trkpt lat="41.644088818" lon="2.490221882">
        <ele>333.71</ele>
        <time>2013-06-23T10:10:09Z</time>
      </trkpt>
      <trkpt lat="41.643960156" lon="2.490162287">
        <ele>335.16</ele>
        <time>2013-06-23T10:10:17Z</time>
      </trkpt>
      <trkpt lat="41.643843396" lon="2.490111744">
        <ele>336.12</ele>
        <time>2013-06-23T10:10:24Z</time>
      </trkpt>
      <trkpt lat="41.643711129" lon="2.490080815">
        <ele>337.56</ele>
        <time>2013-06-23T10:10:32Z</time>
      </trkpt>
      <trkpt lat="41.643562937" lon="2.490007473">
        <ele>339.48</ele>
        <time>2013-06-23T10:10:42Z</time>
      </trkpt>
      <trkpt lat="41.643435197" lon="2.489918457">
        <ele>339.48</ele>
        <time>2013-06-23T10:10:48Z</time>
      </trkpt>
      <trkpt lat="41.643255824" lon="2.489787700">
        <ele>339.48</ele>
        <time>2013-06-23T10:10:55Z</time>
      </trkpt>
      <trkpt lat="41.643092796" lon="2.489740677">
        <ele>339.48</ele>
        <time>2013-06-23T10:11:03Z</time>
      </trkpt>
      <trkpt lat="41.642979222" lon="2.489899766">
        <ele>340.44</ele>
        <time>2013-06-23T10:11:12Z</time>
      </trkpt>
      <trkpt lat="41.642899929" lon="2.490186595">
        <ele>340.92</ele>
        <time>2013-06-23T10:11:21Z</time>
      </trkpt>
      <trkpt lat="41.642843183" lon="2.490368649">
        <ele>339.48</ele>
        <time>2013-06-23T10:11:28Z</time>
      </trkpt>
      <trkpt lat="41.642678730" lon="2.490434531">
        <ele>337.56</ele>
        <time>2013-06-23T10:11:33Z</time>
      </trkpt>
      <trkpt lat="41.642588625" lon="2.490441740">
        <ele>337.08</ele>
        <time>2013-06-23T10:11:35Z</time>
      </trkpt>
      <trkpt lat="41.642545039" lon="2.490449367">
        <ele>337.08</ele>
        <time>2013-06-23T10:11:36Z</time>
      </trkpt>
      <trkpt lat="41.642256785" lon="2.490473172">
        <ele>336.60</ele>
        <time>2013-06-23T10:11:43Z</time>
      </trkpt>
      <trkpt lat="41.642142875" lon="2.490551207">
        <ele>336.60</ele>
        <time>2013-06-23T10:11:49Z</time>
      </trkpt>
      <trkpt lat="41.642126614" lon="2.490565959">
        <ele>336.60</ele>
        <time>2013-06-23T10:11:50Z</time>
      </trkpt>
      <trkpt lat="41.642127955" lon="2.490707446">
        <ele>336.60</ele>
        <time>2013-06-23T10:11:56Z</time>
      </trkpt>
      <trkpt lat="41.642238764" lon="2.490883634">
        <ele>336.60</ele>
        <time>2013-06-23T10:12:02Z</time>
      </trkpt>
      <trkpt lat="41.642329205" lon="2.491141042">
        <ele>333.71</ele>
        <time>2013-06-23T10:12:07Z</time>
      </trkpt>
      <trkpt lat="41.642347478" lon="2.491198626">
        <ele>332.75</ele>
        <time>2013-06-23T10:12:08Z</time>
      </trkpt>
      <trkpt lat="41.642370779" lon="2.491381602">
        <ele>331.31</ele>
        <time>2013-06-23T10:12:11Z</time>
      </trkpt>
      <trkpt lat="41.642481169" lon="2.491547648">
        <ele>329.87</ele>
        <time>2013-06-23T10:12:15Z</time>
      </trkpt>
      <trkpt lat="41.642602455" lon="2.491754262">
        <ele>328.91</ele>
        <time>2013-06-23T10:12:19Z</time>
      </trkpt>
      <trkpt lat="41.642706810" lon="2.492157515">
        <ele>328.43</ele>
        <time>2013-06-23T10:12:27Z</time>
      </trkpt>
      <trkpt lat="41.642706474" lon="2.492320962">
        <ele>329.87</ele>
        <time>2013-06-23T10:12:32Z</time>
      </trkpt>
      <trkpt lat="41.642683676" lon="2.492596476">
        <ele>330.83</ele>
        <time>2013-06-23T10:12:41Z</time>
      </trkpt>
      <trkpt lat="41.642679736" lon="2.492778782">
        <ele>331.79</ele>
        <time>2013-06-23T10:12:48Z</time>
      </trkpt>
      <trkpt lat="41.642725920" lon="2.492942313">
        <ele>332.75</ele>
        <time>2013-06-23T10:12:55Z</time>
      </trkpt>
      <trkpt lat="41.642826922" lon="2.493146496">
        <ele>333.71</ele>
        <time>2013-06-23T10:13:04Z</time>
      </trkpt>
      <trkpt lat="41.642925410" lon="2.493235344">
        <ele>335.16</ele>
        <time>2013-06-23T10:13:11Z</time>
      </trkpt>
      <trkpt lat="41.643079637" lon="2.493377166">
        <ele>337.08</ele>
        <time>2013-06-23T10:13:21Z</time>
      </trkpt>
      <trkpt lat="41.643130850" lon="2.493432487">
        <ele>337.08</ele>
        <time>2013-06-23T10:13:25Z</time>
      </trkpt>
      <trkpt lat="41.643219447" lon="2.493438354">
        <ele>337.56</ele>
        <time>2013-06-23T10:13:33Z</time>
      </trkpt>
      <trkpt lat="41.643234953" lon="2.493428128">
        <ele>337.56</ele>
        <time>2013-06-23T10:13:40Z</time>
      </trkpt>
      <trkpt lat="41.643260267" lon="2.493429218">
        <ele>337.56</ele>
        <time>2013-06-23T10:13:59Z</time>
      </trkpt>
      <trkpt lat="41.643273510" lon="2.493422512">
        <ele>338.04</ele>
        <time>2013-06-23T10:14:08Z</time>
      </trkpt>
      <trkpt lat="41.643289603" lon="2.493418992">
        <ele>338.04</ele>
        <time>2013-06-23T10:14:18Z</time>
      </trkpt>
      <trkpt lat="41.643308211" lon="2.493403653">
        <ele>338.04</ele>
        <time>2013-06-23T10:14:36Z</time>
      </trkpt>
      <trkpt lat="41.643306451" lon="2.493392673">
        <ele>338.04</ele>
        <time>2013-06-23T10:14:50Z</time>
      </trkpt>
      <trkpt lat="41.643289436" lon="2.493412705">
        <ele>338.04</ele>
        <time>2013-06-23T10:15:01Z</time>
      </trkpt>
      <trkpt lat="41.643278204" lon="2.493425697">
        <ele>338.04</ele>
        <time>2013-06-23T10:15:15Z</time>
      </trkpt>
      <trkpt lat="41.643265212" lon="2.493431984">
        <ele>338.52</ele>
        <time>2013-06-23T10:15:22Z</time>
      </trkpt>
      <trkpt lat="41.643257501" lon="2.493441120">
        <ele>338.52</ele>
        <time>2013-06-23T10:15:24Z</time>
      </trkpt>
      <trkpt lat="41.643165300" lon="2.493539607">
        <ele>338.52</ele>
        <time>2013-06-23T10:15:30Z</time>
      </trkpt>
      <trkpt lat="41.643119954" lon="2.493608339">
        <ele>337.08</ele>
        <time>2013-06-23T10:15:32Z</time>
      </trkpt>
      <trkpt lat="41.642963547" lon="2.493802045">
        <ele>336.12</ele>
        <time>2013-06-23T10:15:39Z</time>
      </trkpt>
      <trkpt lat="41.642816194" lon="2.494004216">
        <ele>334.68</ele>
        <time>2013-06-23T10:15:45Z</time>
      </trkpt>
      <trkpt lat="41.642781492" lon="2.494103793">
        <ele>334.68</ele>
        <time>2013-06-23T10:15:47Z</time>
      </trkpt>
      <trkpt lat="41.642687531" lon="2.494421719">
        <ele>334.20</ele>
        <time>2013-06-23T10:15:54Z</time>
      </trkpt>
      <trkpt lat="41.642565072" lon="2.494620202">
        <ele>334.20</ele>
        <time>2013-06-23T10:16:02Z</time>
      </trkpt>
      <trkpt lat="41.642504051" lon="2.494759258">
        <ele>336.12</ele>
        <time>2013-06-23T10:16:08Z</time>
      </trkpt>
      <trkpt lat="41.642448228" lon="2.494929997">
        <ele>337.08</ele>
        <time>2013-06-23T10:16:16Z</time>
      </trkpt>
      <trkpt lat="41.642396428" lon="2.495188831">
        <ele>337.56</ele>
        <time>2013-06-23T10:16:25Z</time>
      </trkpt>
      <trkpt lat="41.642341107" lon="2.495454872">
        <ele>338.04</ele>
        <time>2013-06-23T10:16:35Z</time>
      </trkpt>
      <trkpt lat="41.642362062" lon="2.495612452">
        <ele>336.60</ele>
        <time>2013-06-23T10:16:41Z</time>
      </trkpt>
      <trkpt lat="41.642252846" lon="2.495659307">
        <ele>334.68</ele>
        <time>2013-06-23T10:16:47Z</time>
      </trkpt>
      <trkpt lat="41.642022679" lon="2.495470127">
        <ele>331.79</ele>
        <time>2013-06-23T10:16:52Z</time>
      </trkpt>
      <trkpt lat="41.641833835" lon="2.495406509">
        <ele>330.35</ele>
        <time>2013-06-23T10:16:57Z</time>
      </trkpt>
      <trkpt lat="41.641655971" lon="2.495323947">
        <ele>328.91</ele>
        <time>2013-06-23T10:17:01Z</time>
      </trkpt>
      <trkpt lat="41.641498894" lon="2.495278601">
        <ele>327.47</ele>
        <time>2013-06-23T10:17:04Z</time>
      </trkpt>
      <trkpt lat="41.641240899" lon="2.495296622">
        <ele>323.62</ele>
        <time>2013-06-23T10:17:09Z</time>
      </trkpt>
      <trkpt lat="41.641179627" lon="2.495439449">
        <ele>322.66</ele>
        <time>2013-06-23T10:17:13Z</time>
      </trkpt>
      <trkpt lat="41.641095137" lon="2.495705994">
        <ele>321.70</ele>
        <time>2013-06-23T10:17:18Z</time>
      </trkpt>
      <trkpt lat="41.640927918" lon="2.495874805">
        <ele>320.74</ele>
        <time>2013-06-23T10:17:24Z</time>
      </trkpt>
      <trkpt lat="41.640867066" lon="2.495840943">
        <ele>320.74</ele>
        <time>2013-06-23T10:17:28Z</time>
      </trkpt>
      <trkpt lat="41.640805375" lon="2.495612787">
        <ele>320.74</ele>
        <time>2013-06-23T10:17:36Z</time>
      </trkpt>
      <trkpt lat="41.640778134" lon="2.495587558">
        <ele>320.74</ele>
        <time>2013-06-23T10:17:37Z</time>
      </trkpt>
      <trkpt lat="41.640653830" lon="2.495648243">
        <ele>319.30</ele>
        <time>2013-06-23T10:17:42Z</time>
      </trkpt>
      <trkpt lat="41.640624996" lon="2.495682273">
        <ele>318.81</ele>
        <time>2013-06-23T10:17:43Z</time>
      </trkpt>
      <trkpt lat="41.640484600" lon="2.495856449">
        <ele>317.37</ele>
        <time>2013-06-23T10:17:47Z</time>
      </trkpt>
      <trkpt lat="41.640325679" lon="2.495921996">
        <ele>314.49</ele>
        <time>2013-06-23T10:17:51Z</time>
      </trkpt>
      <trkpt lat="41.640086375" lon="2.495806996">
        <ele>312.09</ele>
        <time>2013-06-23T10:17:56Z</time>
      </trkpt>
      <trkpt lat="41.639924605" lon="2.495604657">
        <ele>311.12</ele>
        <time>2013-06-23T10:18:02Z</time>
      </trkpt>
      <trkpt lat="41.639911780" lon="2.495523017">
        <ele>312.57</ele>
        <time>2013-06-23T10:18:06Z</time>
      </trkpt>
      <trkpt lat="41.639886467" lon="2.495391756">
        <ele>314.97</ele>
        <time>2013-06-23T10:18:13Z</time>
      </trkpt>
      <trkpt lat="41.639854532" lon="2.495263346">
        <ele>315.93</ele>
        <time>2013-06-23T10:18:20Z</time>
      </trkpt>
      <trkpt lat="41.639802983" lon="2.495067880">
        <ele>317.85</ele>
        <time>2013-06-23T10:18:30Z</time>
      </trkpt>
      <trkpt lat="41.639786555" lon="2.494898314">
        <ele>319.78</ele>
        <time>2013-06-23T10:18:37Z</time>
      </trkpt>
      <trkpt lat="41.639704077" lon="2.494721456">
        <ele>322.66</ele>
        <time>2013-06-23T10:18:47Z</time>
      </trkpt>
      <trkpt lat="41.639624030" lon="2.494635625">
        <ele>323.62</ele>
        <time>2013-06-23T10:18:53Z</time>
      </trkpt>
      <trkpt lat="41.639528560" lon="2.494523559">
        <ele>325.54</ele>
        <time>2013-06-23T10:19:01Z</time>
      </trkpt>
      <trkpt lat="41.639481789" lon="2.494401518">
        <ele>326.50</ele>
        <time>2013-06-23T10:19:09Z</time>
      </trkpt>
      <trkpt lat="41.639426971" lon="2.494353993">
        <ele>326.50</ele>
        <time>2013-06-23T10:19:12Z</time>
      </trkpt>
      <trkpt lat="41.639283389" lon="2.494307725">
        <ele>326.50</ele>
        <time>2013-06-23T10:19:19Z</time>
      </trkpt>
      <trkpt lat="41.639120193" lon="2.494262798">
        <ele>326.50</ele>
        <time>2013-06-23T10:19:26Z</time>
      </trkpt>
      <trkpt lat="41.638983065" lon="2.494140757">
        <ele>325.06</ele>
        <time>2013-06-23T10:19:31Z</time>
      </trkpt>
      <trkpt lat="41.638926823" lon="2.494235724">
        <ele>324.58</ele>
        <time>2013-06-23T10:19:37Z</time>
      </trkpt>
      <trkpt lat="41.638925985" lon="2.494285094">
        <ele>326.02</ele>
        <time>2013-06-23T10:19:40Z</time>
      </trkpt>
      <trkpt lat="41.638950711" lon="2.494458264">
        <ele>327.95</ele>
        <time>2013-06-23T10:19:50Z</time>
      </trkpt>
      <trkpt lat="41.638996812" lon="2.494655239">
        <ele>328.91</ele>
        <time>2013-06-23T10:19:59Z</time>
      </trkpt>
      <trkpt lat="41.639039559" lon="2.494835617">
        <ele>329.87</ele>
        <time>2013-06-23T10:20:07Z</time>
      </trkpt>
      <trkpt lat="41.639090102" lon="2.495021360">
        <ele>331.31</ele>
        <time>2013-06-23T10:20:16Z</time>
      </trkpt>
      <trkpt lat="41.639133940" lon="2.495143736">
        <ele>332.27</ele>
        <time>2013-06-23T10:20:22Z</time>
      </trkpt>
      <trkpt lat="41.639153050" lon="2.495233003">
        <ele>332.27</ele>
        <time>2013-06-23T10:20:26Z</time>
      </trkpt>
      <trkpt lat="41.639143747" lon="2.495485131">
        <ele>332.27</ele>
        <time>2013-06-23T10:20:34Z</time>
      </trkpt>
      <trkpt lat="41.639131928" lon="2.495794423">
        <ele>332.27</ele>
        <time>2013-06-23T10:20:42Z</time>
      </trkpt>
      <trkpt lat="41.639130168" lon="2.496009000">
        <ele>332.27</ele>
        <time>2013-06-23T10:20:49Z</time>
      </trkpt>
      <trkpt lat="41.639060766" lon="2.496220978">
        <ele>333.23</ele>
        <time>2013-06-23T10:20:57Z</time>
      </trkpt>
      <trkpt lat="41.638937384" lon="2.496298259">
        <ele>333.71</ele>
        <time>2013-06-23T10:21:03Z</time>
      </trkpt>
      <trkpt lat="41.638759352" lon="2.496314604">
        <ele>335.64</ele>
        <time>2013-06-23T10:21:12Z</time>
      </trkpt>
      <trkpt lat="41.638612418" lon="2.496376211">
        <ele>336.12</ele>
        <time>2013-06-23T10:21:19Z</time>
      </trkpt>
      <trkpt lat="41.638457101" lon="2.496445781">
        <ele>337.08</ele>
        <time>2013-06-23T10:21:26Z</time>
      </trkpt>
      <trkpt lat="41.638312429" lon="2.496509735">
        <ele>337.08</ele>
        <time>2013-06-23T10:21:33Z</time>
      </trkpt>
      <trkpt lat="41.638161220" lon="2.496548291">
        <ele>338.52</ele>
        <time>2013-06-23T10:21:41Z</time>
      </trkpt>
      <trkpt lat="41.638110509" lon="2.496549465">
        <ele>339.00</ele>
        <time>2013-06-23T10:21:45Z</time>
      </trkpt>
      <trkpt lat="41.638033899" lon="2.496523481">
        <ele>339.48</ele>
        <time>2013-06-23T10:21:52Z</time>
      </trkpt>
      <trkpt lat="41.637935830" lon="2.496505544">
        <ele>338.04</ele>
        <time>2013-06-23T10:21:57Z</time>
      </trkpt>
      <trkpt lat="41.637884282" lon="2.496514596">
        <ele>337.56</ele>
        <time>2013-06-23T10:21:59Z</time>
      </trkpt>
      <trkpt lat="41.637711363" lon="2.496548291">
        <ele>335.64</ele>
        <time>2013-06-23T10:22:05Z</time>
      </trkpt>
      <trkpt lat="41.637643302" lon="2.496543430">
        <ele>334.20</ele>
        <time>2013-06-23T10:22:07Z</time>
      </trkpt>
      <trkpt lat="41.637578091" lon="2.496616688">
        <ele>333.23</ele>
        <time>2013-06-23T10:22:11Z</time>
      </trkpt>
      <trkpt lat="41.637558393" lon="2.496658262">
        <ele>333.23</ele>
        <time>2013-06-23T10:22:13Z</time>
      </trkpt>
      <trkpt lat="41.637532661" lon="2.496816428">
        <ele>335.16</ele>
        <time>2013-06-23T10:22:20Z</time>
      </trkpt>
      <trkpt lat="41.637491925" lon="2.496958502">
        <ele>337.56</ele>
        <time>2013-06-23T10:22:29Z</time>
      </trkpt>
      <trkpt lat="41.637443561" lon="2.497047434">
        <ele>338.52</ele>
        <time>2013-06-23T10:22:35Z</time>
      </trkpt>
      <trkpt lat="41.637370471" lon="2.497181544">
        <ele>340.44</ele>
        <time>2013-06-23T10:22:43Z</time>
      </trkpt>
      <trkpt lat="41.637303332" lon="2.497318756">
        <ele>341.89</ele>
        <time>2013-06-23T10:22:51Z</time>
      </trkpt>
      <trkpt lat="41.637248431" lon="2.497414645">
        <ele>342.37</ele>
        <time>2013-06-23T10:22:57Z</time>
      </trkpt>
      <trkpt lat="41.637201492" lon="2.497493435">
        <ele>342.85</ele>
        <time>2013-06-23T10:23:02Z</time>
      </trkpt>
      <trkpt lat="41.637106860" lon="2.497655206">
        <ele>344.77</ele>
        <time>2013-06-23T10:23:13Z</time>
      </trkpt>
      <trkpt lat="41.637017090" lon="2.497787053">
        <ele>346.21</ele>
        <time>2013-06-23T10:23:22Z</time>
      </trkpt>
      <trkpt lat="41.636993956" lon="2.497908255">
        <ele>347.65</ele>
        <time>2013-06-23T10:23:28Z</time>
      </trkpt>
      <trkpt lat="41.636981467" lon="2.498110091">
        <ele>350.54</ele>
        <time>2013-06-23T10:23:38Z</time>
      </trkpt>
      <trkpt lat="41.636964033" lon="2.498282591">
        <ele>351.98</ele>
        <time>2013-06-23T10:23:47Z</time>
      </trkpt>
      <trkpt lat="41.636941401" lon="2.498470094">
        <ele>352.94</ele>
        <time>2013-06-23T10:23:55Z</time>
      </trkpt>
      <trkpt lat="41.636932433" lon="2.498645947">
        <ele>353.42</ele>
        <time>2013-06-23T10:24:03Z</time>
      </trkpt>
      <trkpt lat="41.636891194" lon="2.498830684">
        <ele>353.42</ele>
        <time>2013-06-23T10:24:11Z</time>
      </trkpt>
      <trkpt lat="41.636876945" lon="2.499067892">
        <ele>353.42</ele>
        <time>2013-06-23T10:24:17Z</time>
      </trkpt>
      <trkpt lat="41.636890691" lon="2.499236368">
        <ele>351.98</ele>
        <time>2013-06-23T10:24:20Z</time>
      </trkpt>
      <trkpt lat="41.636886165" lon="2.499289928">
        <ele>351.98</ele>
        <time>2013-06-23T10:24:21Z</time>
      </trkpt>
      <trkpt lat="41.636812655" lon="2.499618415">
        <ele>351.98</ele>
        <time>2013-06-23T10:24:29Z</time>
      </trkpt>
      <trkpt lat="41.636793880" lon="2.499665689">
        <ele>351.98</ele>
        <time>2013-06-23T10:24:31Z</time>
      </trkpt>
      <trkpt lat="41.636757335" lon="2.499700809">
        <ele>351.98</ele>
        <time>2013-06-23T10:24:33Z</time>
      </trkpt>
      <trkpt lat="41.636661949" lon="2.499703910">
        <ele>350.06</ele>
        <time>2013-06-23T10:24:37Z</time>
      </trkpt>
      <trkpt lat="41.636576286" lon="2.499658480">
        <ele>348.13</ele>
        <time>2013-06-23T10:24:43Z</time>
      </trkpt>
      <trkpt lat="41.636568742" lon="2.499671137">
        <ele>347.65</ele>
        <time>2013-06-23T10:24:54Z</time>
      </trkpt>
      <trkpt lat="41.636569329" lon="2.499663090">
        <ele>347.65</ele>
        <time>2013-06-23T10:25:09Z</time>
      </trkpt>
      <trkpt lat="41.636562791" lon="2.499663593">
        <ele>347.65</ele>
        <time>2013-06-23T10:25:22Z</time>
      </trkpt>
      <trkpt lat="41.636497747" lon="2.499638196">
        <ele>347.17</ele>
        <time>2013-06-23T10:25:27Z</time>
      </trkpt>
      <trkpt lat="41.636396242" lon="2.499577595">
        <ele>345.25</ele>
        <time>2013-06-23T10:25:31Z</time>
      </trkpt>
      <trkpt lat="41.636219049" lon="2.499412723">
        <ele>342.37</ele>
        <time>2013-06-23T10:25:37Z</time>
      </trkpt>
      <trkpt lat="41.636144282" lon="2.499334352">
        <ele>340.92</ele>
        <time>2013-06-23T10:25:39Z</time>
      </trkpt>
      <trkpt lat="41.636069348" lon="2.499159003">
        <ele>338.52</ele>
        <time>2013-06-23T10:25:42Z</time>
      </trkpt>
      <trkpt lat="41.635889221" lon="2.498980049">
        <ele>336.60</ele>
        <time>2013-06-23T10:25:47Z</time>
      </trkpt>
      <trkpt lat="41.635665089" lon="2.498966638">
        <ele>335.16</ele>
        <time>2013-06-23T10:25:51Z</time>
      </trkpt>
      <trkpt lat="41.635388486" lon="2.498993963">
        <ele>335.16</ele>
        <time>2013-06-23T10:25:58Z</time>
      </trkpt>
      <trkpt lat="41.635101238" lon="2.499012990">
        <ele>335.16</ele>
        <time>2013-06-23T10:26:06Z</time>
      </trkpt>
      <trkpt lat="41.635031669" lon="2.499126313">
        <ele>332.75</ele>
        <time>2013-06-23T10:26:09Z</time>
      </trkpt>
      <trkpt lat="41.634960506" lon="2.499314319">
        <ele>329.39</ele>
        <time>2013-06-23T10:26:13Z</time>
      </trkpt>
      <trkpt lat="41.634857325" lon="2.499590671">
        <ele>324.58</ele>
        <time>2013-06-23T10:26:18Z</time>
      </trkpt>
      <trkpt lat="41.634849949" lon="2.499654960">
        <ele>324.10</ele>
        <time>2013-06-23T10:26:19Z</time>
      </trkpt>
      <trkpt lat="41.634836706" lon="2.499784963">
        <ele>322.66</ele>
        <time>2013-06-23T10:26:21Z</time>
      </trkpt>
      <trkpt lat="41.634778703" lon="2.500060309">
        <ele>318.33</ele>
        <time>2013-06-23T10:26:26Z</time>
      </trkpt>
      <trkpt lat="41.634741403" lon="2.500091406">
        <ele>317.37</ele>
        <time>2013-06-23T10:26:27Z</time>
      </trkpt>
      <trkpt lat="41.634672504" lon="2.500132226">
        <ele>315.45</ele>
        <time>2013-06-23T10:26:29Z</time>
      </trkpt>
      <trkpt lat="41.634639312" lon="2.500137255">
        <ele>314.97</ele>
        <time>2013-06-23T10:26:35Z</time>
      </trkpt>
      <trkpt lat="41.634644089" lon="2.500134321">
        <ele>315.45</ele>
        <time>2013-06-23T10:26:40Z</time>
      </trkpt>
      <trkpt lat="41.634665547" lon="2.499998953">
        <ele>316.41</ele>
        <time>2013-06-23T10:26:48Z</time>
      </trkpt>
      <trkpt lat="41.634688933" lon="2.499852689">
        <ele>318.81</ele>
        <time>2013-06-23T10:26:57Z</time>
      </trkpt>
      <trkpt lat="41.634710474" lon="2.499696367">
        <ele>320.26</ele>
        <time>2013-06-23T10:27:04Z</time>
      </trkpt>
      <trkpt lat="41.634724975" lon="2.499540212">
        <ele>321.70</ele>
        <time>2013-06-23T10:27:13Z</time>
      </trkpt>
      <trkpt lat="41.634743331" lon="2.499315996">
        <ele>323.14</ele>
        <time>2013-06-23T10:27:24Z</time>
      </trkpt>
      <trkpt lat="41.634753976" lon="2.499227734">
        <ele>324.58</ele>
        <time>2013-06-23T10:27:29Z</time>
      </trkpt>
      <trkpt lat="41.634758922" lon="2.499183059">
        <ele>324.58</ele>
        <time>2013-06-23T10:27:31Z</time>
      </trkpt>
      <trkpt lat="41.634771159" lon="2.499045009">
        <ele>326.02</ele>
        <time>2013-06-23T10:27:39Z</time>
      </trkpt>
      <trkpt lat="41.634780798" lon="2.498910898">
        <ele>327.47</ele>
        <time>2013-06-23T10:27:47Z</time>
      </trkpt>
      <trkpt lat="41.634791695" lon="2.498774190">
        <ele>329.39</ele>
        <time>2013-06-23T10:27:56Z</time>
      </trkpt>
      <trkpt lat="41.634814326" lon="2.498590039">
        <ele>330.83</ele>
        <time>2013-06-23T10:28:06Z</time>
      </trkpt>
      <trkpt lat="41.634826983" lon="2.498541424">
        <ele>331.79</ele>
        <time>2013-06-23T10:28:09Z</time>
      </trkpt>
      <trkpt lat="41.634773422" lon="2.498413013">
        <ele>332.75</ele>
        <time>2013-06-23T10:28:18Z</time>
      </trkpt>
      <trkpt lat="41.634716090" lon="2.498341767">
        <ele>335.16</ele>
        <time>2013-06-23T10:28:26Z</time>
      </trkpt>
      <trkpt lat="41.634645514" lon="2.498268509">
        <ele>336.60</ele>
        <time>2013-06-23T10:28:34Z</time>
      </trkpt>
      <trkpt lat="41.634545518" lon="2.498159545">
        <ele>339.00</ele>
        <time>2013-06-23T10:28:45Z</time>
      </trkpt>
      <trkpt lat="41.634523306" lon="2.498121575">
        <ele>339.48</ele>
        <time>2013-06-23T10:28:48Z</time>
      </trkpt>
      <trkpt lat="41.634411156" lon="2.497999869">
        <ele>340.44</ele>
        <time>2013-06-23T10:28:58Z</time>
      </trkpt>
      <trkpt lat="41.634328092" lon="2.497937508">
        <ele>340.92</ele>
        <time>2013-06-23T10:29:05Z</time>
      </trkpt>
      <trkpt lat="41.634226000" lon="2.497858299">
        <ele>341.89</ele>
        <time>2013-06-23T10:29:13Z</time>
      </trkpt>
      <trkpt lat="41.634115610" lon="2.497794010">
        <ele>342.37</ele>
        <time>2013-06-23T10:29:20Z</time>
      </trkpt>
      <trkpt lat="41.634002455" lon="2.497745479">
        <ele>343.81</ele>
        <time>2013-06-23T10:29:28Z</time>
      </trkpt>
      <trkpt lat="41.633989295" lon="2.497740617">
        <ele>343.81</ele>
        <time>2013-06-23T10:29:29Z</time>
      </trkpt>
      <trkpt lat="41.633881336" lon="2.497678256">
        <ele>344.77</ele>
        <time>2013-06-23T10:29:38Z</time>
      </trkpt>
      <trkpt lat="41.633855604" lon="2.497648500">
        <ele>345.25</ele>
        <time>2013-06-23T10:29:41Z</time>
      </trkpt>
      <trkpt lat="41.633854095" lon="2.497605249">
        <ele>345.73</ele>
        <time>2013-06-23T10:29:44Z</time>
      </trkpt>
      <trkpt lat="41.633912098" lon="2.497610614">
        <ele>347.65</ele>
        <time>2013-06-23T10:29:51Z</time>
      </trkpt>
      <trkpt lat="41.633962641" lon="2.497624612">
        <ele>348.62</ele>
        <time>2013-06-23T10:29:56Z</time>
      </trkpt>
      <trkpt lat="41.634038581" lon="2.497630647">
        <ele>349.10</ele>
        <time>2013-06-23T10:30:02Z</time>
      </trkpt>
      <trkpt lat="41.634176379" lon="2.497626539">
        <ele>349.58</ele>
        <time>2013-06-23T10:30:10Z</time>
      </trkpt>
      <trkpt lat="41.634321889" lon="2.497656128">
        <ele>351.02</ele>
        <time>2013-06-23T10:30:20Z</time>
      </trkpt>
      <trkpt lat="41.634359021" lon="2.497666186">
        <ele>351.50</ele>
        <time>2013-06-23T10:30:23Z</time>
      </trkpt>
      <trkpt lat="41.634414509" lon="2.497664929">
        <ele>351.98</ele>
        <time>2013-06-23T10:30:27Z</time>
      </trkpt>
      <trkpt lat="41.634478547" lon="2.497687224">
        <ele>351.98</ele>
        <time>2013-06-23T10:30:31Z</time>
      </trkpt>
      <trkpt lat="41.634536298" lon="2.497711113">
        <ele>352.46</ele>
        <time>2013-06-23T10:30:35Z</time>
      </trkpt>
      <trkpt lat="41.634638976" lon="2.497740785">
        <ele>353.42</ele>
        <time>2013-06-23T10:30:41Z</time>
      </trkpt>
      <trkpt lat="41.634695806" lon="2.497759728">
        <ele>354.38</ele>
        <time>2013-06-23T10:30:45Z</time>
      </trkpt>
      <trkpt lat="41.634797478" lon="2.497789065">
        <ele>355.83</ele>
        <time>2013-06-23T10:30:53Z</time>
      </trkpt>
      <trkpt lat="41.634926560" lon="2.497806583">
        <ele>357.27</ele>
        <time>2013-06-23T10:31:02Z</time>
      </trkpt>
      <trkpt lat="41.635069974" lon="2.497805074">
        <ele>359.67</ele>
        <time>2013-06-23T10:31:13Z</time>
      </trkpt>
      <trkpt lat="41.635165528" lon="2.497805828">
        <ele>360.63</ele>
        <time>2013-06-23T10:31:20Z</time>
      </trkpt>
      <trkpt lat="41.635293938" lon="2.497819742">
        <ele>362.07</ele>
        <time>2013-06-23T10:31:30Z</time>
      </trkpt>
      <trkpt lat="41.635347918" lon="2.497858048">
        <ele>363.04</ele>
        <time>2013-06-23T10:31:35Z</time>
      </trkpt>
      <trkpt lat="41.635417404" lon="2.497949913">
        <ele>364.00</ele>
        <time>2013-06-23T10:31:42Z</time>
      </trkpt>
      <trkpt lat="41.635536427" lon="2.498037001">
        <ele>366.40</ele>
        <time>2013-06-23T10:31:52Z</time>
      </trkpt>
      <trkpt lat="41.635601638" lon="2.498060219">
        <ele>366.88</ele>
        <time>2013-06-23T10:31:58Z</time>
      </trkpt>
      <trkpt lat="41.635719571" lon="2.498050915">
        <ele>368.32</ele>
        <time>2013-06-23T10:32:07Z</time>
      </trkpt>
      <trkpt lat="41.635841109" lon="2.498046724">
        <ele>369.28</ele>
        <time>2013-06-23T10:32:15Z</time>
      </trkpt>
      <trkpt lat="41.635972202" lon="2.498044126">
        <ele>370.73</ele>
        <time>2013-06-23T10:32:24Z</time>
      </trkpt>
      <trkpt lat="41.636093404" lon="2.498029793">
        <ele>371.69</ele>
        <time>2013-06-23T10:32:33Z</time>
      </trkpt>
      <trkpt lat="41.636103127" lon="2.498027865">
        <ele>372.17</ele>
        <time>2013-06-23T10:32:34Z</time>
      </trkpt>
      <trkpt lat="41.636199854" lon="2.497972461">
        <ele>373.61</ele>
        <time>2013-06-23T10:32:42Z</time>
      </trkpt>
      <trkpt lat="41.636258276" lon="2.497893503">
        <ele>375.05</ele>
        <time>2013-06-23T10:32:50Z</time>
      </trkpt>
      <trkpt lat="41.636287194" lon="2.497753106">
        <ele>376.97</ele>
        <time>2013-06-23T10:32:59Z</time>
      </trkpt>
      <trkpt lat="41.636298761" lon="2.497648249">
        <ele>377.94</ele>
        <time>2013-06-23T10:33:05Z</time>
      </trkpt>
      <trkpt lat="41.636309490" lon="2.497477090">
        <ele>378.90</ele>
        <time>2013-06-23T10:33:14Z</time>
      </trkpt>
      <trkpt lat="41.636325499" lon="2.497281373">
        <ele>379.38</ele>
        <time>2013-06-23T10:33:24Z</time>
      </trkpt>
      <trkpt lat="41.636328936" lon="2.497116668">
        <ele>382.26</ele>
        <time>2013-06-23T10:33:34Z</time>
      </trkpt>
      <trkpt lat="41.636319548" lon="2.496983228">
        <ele>383.22</ele>
        <time>2013-06-23T10:33:42Z</time>
      </trkpt>
      <trkpt lat="41.636299096" lon="2.496931931">
        <ele>383.70</ele>
        <time>2013-06-23T10:33:46Z</time>
      </trkpt>
      <trkpt lat="41.636249727" lon="2.496755073">
        <ele>384.18</ele>
        <time>2013-06-23T10:33:55Z</time>
      </trkpt>
      <trkpt lat="41.636209242" lon="2.496579556">
        <ele>385.15</ele>
        <time>2013-06-23T10:34:04Z</time>
      </trkpt>
      <trkpt lat="41.636186863" lon="2.496480398">
        <ele>385.63</ele>
        <time>2013-06-23T10:34:10Z</time>
      </trkpt>
      <trkpt lat="41.636167836" lon="2.496384258">
        <ele>386.11</ele>
        <time>2013-06-23T10:34:15Z</time>
      </trkpt>
      <trkpt lat="41.636147468" lon="2.496293984">
        <ele>386.59</ele>
        <time>2013-06-23T10:34:20Z</time>
      </trkpt>
      <trkpt lat="41.636088794" lon="2.496134393">
        <ele>387.55</ele>
        <time>2013-06-23T10:34:29Z</time>
      </trkpt>
      <trkpt lat="41.636078485" lon="2.496109583">
        <ele>387.55</ele>
        <time>2013-06-23T10:34:30Z</time>
      </trkpt>
      <trkpt lat="41.635982176" lon="2.495921493">
        <ele>387.55</ele>
        <time>2013-06-23T10:34:38Z</time>
      </trkpt>
      <trkpt lat="41.635896178" lon="2.495753603">
        <ele>387.55</ele>
        <time>2013-06-23T10:34:45Z</time>
      </trkpt>
      <trkpt lat="41.635853850" lon="2.495612033">
        <ele>387.55</ele>
        <time>2013-06-23T10:34:52Z</time>
      </trkpt>
      <trkpt lat="41.635830967" lon="2.495405587">
        <ele>388.51</ele>
        <time>2013-06-23T10:35:02Z</time>
      </trkpt>
      <trkpt lat="41.635823088" lon="2.495206516">
        <ele>388.99</ele>
        <time>2013-06-23T10:35:10Z</time>
      </trkpt>
      <trkpt lat="41.635841109" lon="2.495074082">
        <ele>389.95</ele>
        <time>2013-06-23T10:35:18Z</time>
      </trkpt>
      <trkpt lat="41.635879582" lon="2.494923376">
        <ele>390.91</ele>
        <time>2013-06-23T10:35:28Z</time>
      </trkpt>
      <trkpt lat="41.635896765" lon="2.494851627">
        <ele>392.36</ele>
        <time>2013-06-23T10:35:33Z</time>
      </trkpt>
      <trkpt lat="41.635978656" lon="2.494700249">
        <ele>395.24</ele>
        <time>2013-06-23T10:35:43Z</time>
      </trkpt>
      <trkpt lat="41.636000198" lon="2.494680803">
        <ele>395.24</ele>
        <time>2013-06-23T10:35:49Z</time>
      </trkpt>
      <trkpt lat="41.636027774" lon="2.494643420">
        <ele>396.68</ele>
        <time>2013-06-23T10:35:57Z</time>
      </trkpt>
      <trkpt lat="41.636055350" lon="2.494612239">
        <ele>396.20</ele>
        <time>2013-06-23T10:36:04Z</time>
      </trkpt>
      <trkpt lat="41.636108156" lon="2.494490450">
        <ele>398.12</ele>
        <time>2013-06-23T10:36:12Z</time>
      </trkpt>
      <trkpt lat="41.636151826" lon="2.494393304">
        <ele>398.60</ele>
        <time>2013-06-23T10:36:18Z</time>
      </trkpt>
      <trkpt lat="41.636198010" lon="2.494239412">
        <ele>400.53</ele>
        <time>2013-06-23T10:36:28Z</time>
      </trkpt>
      <trkpt lat="41.636214942" lon="2.494182751">
        <ele>401.01</ele>
        <time>2013-06-23T10:36:32Z</time>
      </trkpt>
      <trkpt lat="41.636228018" lon="2.494062219">
        <ele>402.45</ele>
        <time>2013-06-23T10:36:41Z</time>
      </trkpt>
      <trkpt lat="41.636163393" lon="2.493962977">
        <ele>403.89</ele>
        <time>2013-06-23T10:36:51Z</time>
      </trkpt>
      <trkpt lat="41.636131710" lon="2.493884774">
        <ele>404.85</ele>
        <time>2013-06-23T10:36:58Z</time>
      </trkpt>
      <trkpt lat="41.636072533" lon="2.493765164">
        <ele>406.77</ele>
        <time>2013-06-23T10:37:09Z</time>
      </trkpt>
      <trkpt lat="41.636042442" lon="2.493730463">
        <ele>407.74</ele>
        <time>2013-06-23T10:37:13Z</time>
      </trkpt>
      <trkpt lat="41.635973040" lon="2.493685788">
        <ele>408.22</ele>
        <time>2013-06-23T10:37:20Z</time>
      </trkpt>
      <trkpt lat="41.635894083" lon="2.493595598">
        <ele>409.18</ele>
        <time>2013-06-23T10:37:29Z</time>
      </trkpt>
      <trkpt lat="41.635872876" lon="2.493562741">
        <ele>409.66</ele>
        <time>2013-06-23T10:37:32Z</time>
      </trkpt>
      <trkpt lat="41.635835996" lon="2.493553857">
        <ele>410.14</ele>
        <time>2013-06-23T10:37:35Z</time>
      </trkpt>
      <trkpt lat="41.635791823" lon="2.493582020">
        <ele>411.10</ele>
        <time>2013-06-23T10:37:39Z</time>
      </trkpt>
      <trkpt lat="41.635800541" lon="2.493703893">
        <ele>412.54</ele>
        <time>2013-06-23T10:37:48Z</time>
      </trkpt>
      <trkpt lat="41.635834906" lon="2.493802799">
        <ele>413.98</ele>
        <time>2013-06-23T10:37:56Z</time>
      </trkpt>
      <trkpt lat="41.635834823" lon="2.493813360">
        <ele>414.47</ele>
        <time>2013-06-23T10:37:57Z</time>
      </trkpt>
      <trkpt lat="41.635801379" lon="2.493920565">
        <ele>414.95</ele>
        <time>2013-06-23T10:38:06Z</time>
      </trkpt>
      <trkpt lat="41.635773886" lon="2.494014358">
        <ele>416.39</ele>
        <time>2013-06-23T10:38:14Z</time>
      </trkpt>
      <trkpt lat="41.635732647" lon="2.494137991">
        <ele>417.83</ele>
        <time>2013-06-23T10:38:24Z</time>
      </trkpt>
      <trkpt lat="41.635717560" lon="2.494153749">
        <ele>417.35</ele>
        <time>2013-06-23T10:38:30Z</time>
      </trkpt>
      <trkpt lat="41.635704149" lon="2.494191049">
        <ele>417.83</ele>
        <time>2013-06-23T10:38:37Z</time>
      </trkpt>
      <trkpt lat="41.635709010" lon="2.494194234">
        <ele>417.83</ele>
        <time>2013-06-23T10:38:46Z</time>
      </trkpt>
      <trkpt lat="41.635702305" lon="2.494217200">
        <ele>418.31</ele>
        <time>2013-06-23T10:38:49Z</time>
      </trkpt>
      <trkpt lat="41.635623599" lon="2.494295320">
        <ele>420.23</ele>
        <time>2013-06-23T10:38:58Z</time>
      </trkpt>
      <trkpt lat="41.635581019" lon="2.494316023">
        <ele>420.71</ele>
        <time>2013-06-23T10:39:02Z</time>
      </trkpt>
      <trkpt lat="41.635455793" lon="2.494330607">
        <ele>422.64</ele>
        <time>2013-06-23T10:39:13Z</time>
      </trkpt>
      <trkpt lat="41.635380691" lon="2.494356172">
        <ele>423.12</ele>
        <time>2013-06-23T10:39:19Z</time>
      </trkpt>
      <trkpt lat="41.635274325" lon="2.494436639">
        <ele>424.56</ele>
        <time>2013-06-23T10:39:29Z</time>
      </trkpt>
      <trkpt lat="41.635251358" lon="2.494448625">
        <ele>425.04</ele>
        <time>2013-06-23T10:39:31Z</time>
      </trkpt>
      <trkpt lat="41.635119595" lon="2.494464550">
        <ele>426.00</ele>
        <time>2013-06-23T10:39:41Z</time>
      </trkpt>
      <trkpt lat="41.635012055" lon="2.494415432">
        <ele>426.48</ele>
        <time>2013-06-23T10:39:50Z</time>
      </trkpt>
      <trkpt lat="41.634969140" lon="2.494400764">
        <ele>427.44</ele>
        <time>2013-06-23T10:39:54Z</time>
      </trkpt>
      <trkpt lat="41.634870904" lon="2.494410068">
        <ele>428.89</ele>
        <time>2013-06-23T10:40:02Z</time>
      </trkpt>
      <trkpt lat="41.634774009" lon="2.494419456">
        <ele>430.33</ele>
        <time>2013-06-23T10:40:10Z</time>
      </trkpt>
      <trkpt lat="41.634729333" lon="2.494429598">
        <ele>431.77</ele>
        <time>2013-06-23T10:40:14Z</time>
      </trkpt>
      <trkpt lat="41.634668565" lon="2.494481230">
        <ele>431.77</ele>
        <time>2013-06-23T10:40:19Z</time>
      </trkpt>
      <trkpt lat="41.634601928" lon="2.494663285">
        <ele>433.69</ele>
        <time>2013-06-23T10:40:31Z</time>
      </trkpt>
      <trkpt lat="41.634581058" lon="2.494802173">
        <ele>435.13</ele>
        <time>2013-06-23T10:40:40Z</time>
      </trkpt>
      <trkpt lat="41.634568066" lon="2.494867468">
        <ele>435.61</ele>
        <time>2013-06-23T10:40:45Z</time>
      </trkpt>
      <trkpt lat="41.634503022" lon="2.494926812">
        <ele>436.58</ele>
        <time>2013-06-23T10:40:51Z</time>
      </trkpt>
      <trkpt lat="41.634460861" lon="2.494902924">
        <ele>437.54</ele>
        <time>2013-06-23T10:40:56Z</time>
      </trkpt>
      <trkpt lat="41.634399673" lon="2.494868977">
        <ele>438.02</ele>
        <time>2013-06-23T10:41:04Z</time>
      </trkpt>
      <trkpt lat="41.634389531" lon="2.494876605">
        <ele>438.02</ele>
        <time>2013-06-23T10:41:11Z</time>
      </trkpt>
      <trkpt lat="41.634380479" lon="2.494890351">
        <ele>438.02</ele>
        <time>2013-06-23T10:41:22Z</time>
      </trkpt>
      <trkpt lat="41.634376455" lon="2.494895464">
        <ele>438.02</ele>
        <time>2013-06-23T10:41:34Z</time>
      </trkpt>
      <trkpt lat="41.634382742" lon="2.494898230">
        <ele>438.02</ele>
        <time>2013-06-23T10:41:50Z</time>
      </trkpt>
      <trkpt lat="41.634381736" lon="2.494894626">
        <ele>438.02</ele>
        <time>2013-06-23T10:41:59Z</time>
      </trkpt>
      <trkpt lat="41.634380898" lon="2.494903762">
        <ele>438.02</ele>
        <time>2013-06-23T10:42:18Z</time>
      </trkpt>
      <trkpt lat="41.634357345" lon="2.494890854">
        <ele>438.02</ele>
        <time>2013-06-23T10:42:26Z</time>
      </trkpt>
      <trkpt lat="41.634296324" lon="2.494890100">
        <ele>438.02</ele>
        <time>2013-06-23T10:42:34Z</time>
      </trkpt>
      <trkpt lat="41.634224827" lon="2.494880377">
        <ele>438.02</ele>
        <time>2013-06-23T10:42:41Z</time>
      </trkpt>
      <trkpt lat="41.634204794" lon="2.494873168">
        <ele>438.02</ele>
        <time>2013-06-23T10:42:43Z</time>
      </trkpt>
      <trkpt lat="41.634093901" lon="2.494770657">
        <ele>437.06</ele>
        <time>2013-06-23T10:42:54Z</time>
      </trkpt>
      <trkpt lat="41.634080071" lon="2.494743332">
        <ele>437.06</ele>
        <time>2013-06-23T10:42:56Z</time>
      </trkpt>
      <trkpt lat="41.634019386" lon="2.494698322">
        <ele>437.06</ele>
        <time>2013-06-23T10:43:01Z</time>
      </trkpt>
      <trkpt lat="41.633896591" lon="2.494635541">
        <ele>438.02</ele>
        <time>2013-06-23T10:43:11Z</time>
      </trkpt>
      <trkpt lat="41.633864740" lon="2.494611737">
        <ele>438.50</ele>
        <time>2013-06-23T10:43:17Z</time>
      </trkpt>
      <trkpt lat="41.633820484" lon="2.494593464">
        <ele>438.02</ele>
        <time>2013-06-23T10:43:22Z</time>
      </trkpt>
      <trkpt lat="41.633772874" lon="2.494574353">
        <ele>438.50</ele>
        <time>2013-06-23T10:43:30Z</time>
      </trkpt>
      <trkpt lat="41.633698695" lon="2.494446948">
        <ele>438.50</ele>
        <time>2013-06-23T10:43:41Z</time>
      </trkpt>
      <trkpt lat="41.633665921" lon="2.494383413">
        <ele>438.50</ele>
        <time>2013-06-23T10:43:49Z</time>
      </trkpt>
      <trkpt lat="41.633661060" lon="2.494363129">
        <ele>438.50</ele>
        <time>2013-06-23T10:43:51Z</time>
      </trkpt>
      <trkpt lat="41.633624682" lon="2.494194737">
        <ele>438.50</ele>
        <time>2013-06-23T10:44:01Z</time>
      </trkpt>
      <trkpt lat="41.633618983" lon="2.493970772">
        <ele>438.50</ele>
        <time>2013-06-23T10:44:10Z</time>
      </trkpt>
      <trkpt lat="41.633601716" lon="2.493799865">
        <ele>437.06</ele>
        <time>2013-06-23T10:44:14Z</time>
      </trkpt>
      <trkpt lat="41.633562321" lon="2.493658463">
        <ele>436.58</ele>
        <time>2013-06-23T10:44:19Z</time>
      </trkpt>
      <trkpt lat="41.633558717" lon="2.493648153">
        <ele>436.58</ele>
        <time>2013-06-23T10:44:20Z</time>
      </trkpt>
      <trkpt lat="41.633472467" lon="2.493534159">
        <ele>436.58</ele>
        <time>2013-06-23T10:44:29Z</time>
      </trkpt>
      <trkpt lat="41.633442627" lon="2.493502643">
        <ele>436.58</ele>
        <time>2013-06-23T10:44:32Z</time>
      </trkpt>
      <trkpt lat="41.633341793" lon="2.493396863">
        <ele>436.58</ele>
        <time>2013-06-23T10:44:40Z</time>
      </trkpt>
      <trkpt lat="41.633193014" lon="2.493226627">
        <ele>436.10</ele>
        <time>2013-06-23T10:44:46Z</time>
      </trkpt>
      <trkpt lat="41.633102993" lon="2.493111208">
        <ele>435.61</ele>
        <time>2013-06-23T10:44:52Z</time>
      </trkpt>
      <trkpt lat="41.632991513" lon="2.493033005">
        <ele>435.13</ele>
        <time>2013-06-23T10:44:58Z</time>
      </trkpt>
      <trkpt lat="41.632972067" lon="2.493024707">
        <ele>435.13</ele>
        <time>2013-06-23T10:45:05Z</time>
      </trkpt>
      <trkpt lat="41.632917166" lon="2.493042896">
        <ele>435.13</ele>
        <time>2013-06-23T10:45:18Z</time>
      </trkpt>
      <trkpt lat="41.632829994" lon="2.493058821">
        <ele>436.58</ele>
        <time>2013-06-23T10:45:27Z</time>
      </trkpt>
      <trkpt lat="41.632757155" lon="2.493044991">
        <ele>437.54</ele>
        <time>2013-06-23T10:45:35Z</time>
      </trkpt>
      <trkpt lat="41.632710133" lon="2.493041219">
        <ele>437.54</ele>
        <time>2013-06-23T10:45:39Z</time>
      </trkpt>
      <trkpt lat="41.632644922" lon="2.493052116">
        <ele>437.54</ele>
        <time>2013-06-23T10:45:44Z</time>
      </trkpt>
      <trkpt lat="41.632534700" lon="2.493060079">
        <ele>438.02</ele>
        <time>2013-06-23T10:45:52Z</time>
      </trkpt>
      <trkpt lat="41.632462699" lon="2.493104251">
        <ele>438.98</ele>
        <time>2013-06-23T10:45:57Z</time>
      </trkpt>
      <trkpt lat="41.632395476" lon="2.493134175">
        <ele>438.98</ele>
        <time>2013-06-23T10:46:02Z</time>
      </trkpt>
      <trkpt lat="41.632301934" lon="2.493139790">
        <ele>438.98</ele>
        <time>2013-06-23T10:46:10Z</time>
      </trkpt>
      <trkpt lat="41.632266814" lon="2.493124033">
        <ele>438.98</ele>
        <time>2013-06-23T10:46:18Z</time>
      </trkpt>
      <trkpt lat="41.632263126" lon="2.493106431">
        <ele>438.98</ele>
        <time>2013-06-23T10:46:24Z</time>
      </trkpt>
      <trkpt lat="41.632264551" lon="2.493124535">
        <ele>438.98</ele>
        <time>2013-06-23T10:46:48Z</time>
      </trkpt>
      <trkpt lat="41.632261282" lon="2.493119339">
        <ele>438.98</ele>
        <time>2013-06-23T10:46:59Z</time>
      </trkpt>
      <trkpt lat="41.632247787" lon="2.493142305">
        <ele>438.98</ele>
        <time>2013-06-23T10:47:20Z</time>
      </trkpt>
      <trkpt lat="41.632244434" lon="2.493146161">
        <ele>438.98</ele>
        <time>2013-06-23T10:47:41Z</time>
      </trkpt>
      <trkpt lat="41.632239405" lon="2.493141467">
        <ele>438.98</ele>
        <time>2013-06-23T10:47:54Z</time>
      </trkpt>
      <trkpt lat="41.632225156" lon="2.493155465">
        <ele>438.98</ele>
        <time>2013-06-23T10:48:13Z</time>
      </trkpt>
      <trkpt lat="41.632228006" lon="2.493149681">
        <ele>438.98</ele>
        <time>2013-06-23T10:48:24Z</time>
      </trkpt>
      <trkpt lat="41.632230101" lon="2.493148508">
        <ele>438.98</ele>
        <time>2013-06-23T10:48:47Z</time>
      </trkpt>
      <trkpt lat="41.632233789" lon="2.493149933">
        <ele>439.46</ele>
        <time>2013-06-23T10:49:13Z</time>
      </trkpt>
      <trkpt lat="41.632234041" lon="2.493147334">
        <ele>439.46</ele>
        <time>2013-06-23T10:49:38Z</time>
      </trkpt>
      <trkpt lat="41.632233622" lon="2.493154543">
        <ele>439.46</ele>
        <time>2013-06-23T10:49:56Z</time>
      </trkpt>
      <trkpt lat="41.632241165" lon="2.493145909">
        <ele>439.46</ele>
        <time>2013-06-23T10:50:05Z</time>
      </trkpt>
      <trkpt lat="41.632244602" lon="2.493138030">
        <ele>439.46</ele>
        <time>2013-06-23T10:50:22Z</time>
      </trkpt>
      <trkpt lat="41.632243931" lon="2.493135264">
        <ele>439.46</ele>
        <time>2013-06-23T10:50:33Z</time>
      </trkpt>
      <trkpt lat="41.632245105" lon="2.493119506">
        <ele>439.46</ele>
        <time>2013-06-23T10:50:50Z</time>
      </trkpt>
      <trkpt lat="41.632245273" lon="2.493121434">
        <ele>439.46</ele>
        <time>2013-06-23T10:51:01Z</time>
      </trkpt>
      <trkpt lat="41.632246614" lon="2.493112885">
        <ele>439.94</ele>
        <time>2013-06-23T10:51:20Z</time>
      </trkpt>
      <trkpt lat="41.632245105" lon="2.493120512">
        <ele>439.94</ele>
        <time>2013-06-23T10:51:34Z</time>
      </trkpt>
      <trkpt lat="41.632242758" lon="2.493120093">
        <ele>439.94</ele>
        <time>2013-06-23T10:51:45Z</time>
      </trkpt>
      <trkpt lat="41.632231862" lon="2.493136605">
        <ele>439.94</ele>
        <time>2013-06-23T10:51:57Z</time>
      </trkpt>
      <trkpt lat="41.632232281" lon="2.493161332">
        <ele>439.94</ele>
        <time>2013-06-23T10:52:15Z</time>
      </trkpt>
      <trkpt lat="41.632231275" lon="2.493176922">
        <ele>439.94</ele>
        <time>2013-06-23T10:52:40Z</time>
      </trkpt>
      <trkpt lat="41.632232029" lon="2.493184634">
        <ele>439.94</ele>
        <time>2013-06-23T10:53:00Z</time>
      </trkpt>
      <trkpt lat="41.632247787" lon="2.493173150">
        <ele>439.94</ele>
        <time>2013-06-23T10:53:08Z</time>
      </trkpt>
      <trkpt lat="41.632279387" lon="2.493183712">
        <ele>440.42</ele>
        <time>2013-06-23T10:53:15Z</time>
      </trkpt>
      <trkpt lat="41.632328924" lon="2.493185137">
        <ele>440.42</ele>
        <time>2013-06-23T10:53:19Z</time>
      </trkpt>
      <trkpt lat="41.632440152" lon="2.493128140">
        <ele>440.42</ele>
        <time>2013-06-23T10:53:29Z</time>
      </trkpt>
      <trkpt lat="41.632557582" lon="2.493085643">
        <ele>438.98</ele>
        <time>2013-06-23T10:53:35Z</time>
      </trkpt>
      <trkpt lat="41.632577028" lon="2.493077010">
        <ele>438.98</ele>
        <time>2013-06-23T10:53:36Z</time>
      </trkpt>
      <trkpt lat="41.632676438" lon="2.493062761">
        <ele>438.50</ele>
        <time>2013-06-23T10:53:43Z</time>
      </trkpt>
      <trkpt lat="41.632718263" lon="2.493081704">
        <ele>438.50</ele>
        <time>2013-06-23T10:53:47Z</time>
      </trkpt>
      <trkpt lat="41.632869054" lon="2.493060582">
        <ele>436.58</ele>
        <time>2013-06-23T10:53:53Z</time>
      </trkpt>
      <trkpt lat="41.632904761" lon="2.493043482">
        <ele>436.58</ele>
        <time>2013-06-23T10:53:54Z</time>
      </trkpt>
      <trkpt lat="41.633015234" lon="2.493089331">
        <ele>436.58</ele>
        <time>2013-06-23T10:54:00Z</time>
      </trkpt>
      <trkpt lat="41.633030070" lon="2.493097462">
        <ele>436.58</ele>
        <time>2013-06-23T10:54:01Z</time>
      </trkpt>
      <trkpt lat="41.633074243" lon="2.493149681">
        <ele>436.58</ele>
        <time>2013-06-23T10:54:05Z</time>
      </trkpt>
      <trkpt lat="41.633215897" lon="2.493316062">
        <ele>436.58</ele>
        <time>2013-06-23T10:54:15Z</time>
      </trkpt>
      <trkpt lat="41.633340368" lon="2.493457548">
        <ele>438.50</ele>
        <time>2013-06-23T10:54:25Z</time>
      </trkpt>
      <trkpt lat="41.633501804" lon="2.493623594">
        <ele>438.50</ele>
        <time>2013-06-23T10:54:34Z</time>
      </trkpt>
      <trkpt lat="41.633528207" lon="2.493659133">
        <ele>438.50</ele>
        <time>2013-06-23T10:54:36Z</time>
      </trkpt>
      <trkpt lat="41.633559052" lon="2.493753933">
        <ele>438.50</ele>
        <time>2013-06-23T10:54:41Z</time>
      </trkpt>
      <trkpt lat="41.633582102" lon="2.493821826">
        <ele>438.50</ele>
        <time>2013-06-23T10:54:44Z</time>
      </trkpt>
      <trkpt lat="41.633583946" lon="2.493919978">
        <ele>438.50</ele>
        <time>2013-06-23T10:54:49Z</time>
      </trkpt>
      <trkpt lat="41.633593166" lon="2.494156348">
        <ele>439.46</ele>
        <time>2013-06-23T10:54:59Z</time>
      </trkpt>
      <trkpt lat="41.633654941" lon="2.494402524">
        <ele>439.94</ele>
        <time>2013-06-23T10:55:09Z</time>
      </trkpt>
      <trkpt lat="41.633764995" lon="2.494566307">
        <ele>439.94</ele>
        <time>2013-06-23T10:55:17Z</time>
      </trkpt>
      <trkpt lat="41.633924252" lon="2.494683150">
        <ele>439.94</ele>
        <time>2013-06-23T10:55:25Z</time>
      </trkpt>
      <trkpt lat="41.634113096" lon="2.494847939">
        <ele>438.98</ele>
        <time>2013-06-23T10:55:33Z</time>
      </trkpt>
      <trkpt lat="41.634244273" lon="2.494888926">
        <ele>438.98</ele>
        <time>2013-06-23T10:55:40Z</time>
      </trkpt>
      <trkpt lat="41.634346448" lon="2.494880209">
        <ele>438.98</ele>
        <time>2013-06-23T10:55:47Z</time>
      </trkpt>
      <trkpt lat="41.634394728" lon="2.494778955">
        <ele>440.42</ele>
        <time>2013-06-23T10:55:54Z</time>
      </trkpt>
      <trkpt lat="41.634368325" lon="2.494655155">
        <ele>441.86</ele>
        <time>2013-06-23T10:56:03Z</time>
      </trkpt>
      <trkpt lat="41.634347035" lon="2.494628584">
        <ele>442.34</ele>
        <time>2013-06-23T10:56:06Z</time>
      </trkpt>
      <trkpt lat="41.634233292" lon="2.494623220">
        <ele>445.23</ele>
        <time>2013-06-23T10:56:15Z</time>
      </trkpt>
      <trkpt lat="41.634225665" lon="2.494613748">
        <ele>445.23</ele>
        <time>2013-06-23T10:56:23Z</time>
      </trkpt>
      <trkpt lat="41.634205129" lon="2.494581394">
        <ele>446.19</ele>
        <time>2013-06-23T10:56:30Z</time>
      </trkpt>
      <trkpt lat="41.634186689" lon="2.494559936">
        <ele>447.63</ele>
        <time>2013-06-23T10:56:38Z</time>
      </trkpt>
      <trkpt lat="41.634174703" lon="2.494539065">
        <ele>447.63</ele>
        <time>2013-06-23T10:56:46Z</time>
      </trkpt>
      <trkpt lat="41.634159280" lon="2.494495815">
        <ele>447.63</ele>
        <time>2013-06-23T10:56:50Z</time>
      </trkpt>
      <trkpt lat="41.634142013" lon="2.494366063">
        <ele>449.07</ele>
        <time>2013-06-23T10:56:58Z</time>
      </trkpt>
      <trkpt lat="41.634133380" lon="2.494268078">
        <ele>450.52</ele>
        <time>2013-06-23T10:57:04Z</time>
      </trkpt>
      <trkpt lat="41.634147294" lon="2.494131537">
        <ele>452.44</ele>
        <time>2013-06-23T10:57:14Z</time>
      </trkpt>
      <trkpt lat="41.634168249" lon="2.494036906">
        <ele>454.84</ele>
        <time>2013-06-23T10:57:20Z</time>
      </trkpt>
      <trkpt lat="41.634169003" lon="2.493883433">
        <ele>456.28</ele>
        <time>2013-06-23T10:57:30Z</time>
      </trkpt>
      <trkpt lat="41.634142013" lon="2.493727949">
        <ele>458.21</ele>
        <time>2013-06-23T10:57:41Z</time>
      </trkpt>
      <trkpt lat="41.634112928" lon="2.493604483">
        <ele>458.69</ele>
        <time>2013-06-23T10:57:49Z</time>
      </trkpt>
      <trkpt lat="41.634040676" lon="2.493423602">
        <ele>460.13</ele>
        <time>2013-06-23T10:58:01Z</time>
      </trkpt>
      <trkpt lat="41.633982673" lon="2.493277002">
        <ele>461.57</ele>
        <time>2013-06-23T10:58:11Z</time>
      </trkpt>
      <trkpt lat="41.633943027" lon="2.493135935">
        <ele>462.05</ele>
        <time>2013-06-23T10:58:19Z</time>
      </trkpt>
      <trkpt lat="41.633939758" lon="2.493117746">
        <ele>462.05</ele>
        <time>2013-06-23T10:58:20Z</time>
      </trkpt>
      <trkpt lat="41.633872200" lon="2.492965950">
        <ele>463.97</ele>
        <time>2013-06-23T10:58:30Z</time>
      </trkpt>
      <trkpt lat="41.633759044" lon="2.492851118">
        <ele>464.93</ele>
        <time>2013-06-23T10:58:41Z</time>
      </trkpt>
      <trkpt lat="41.633692995" lon="2.492739471">
        <ele>466.38</ele>
        <time>2013-06-23T10:58:50Z</time>
      </trkpt>
      <trkpt lat="41.633689391" lon="2.492707452">
        <ele>466.86</ele>
        <time>2013-06-23T10:58:52Z</time>
      </trkpt>
      <trkpt lat="41.633709172" lon="2.492657077">
        <ele>467.82</ele>
        <time>2013-06-23T10:58:56Z</time>
      </trkpt>
      <trkpt lat="41.633829368" lon="2.492703848">
        <ele>469.26</ele>
        <time>2013-06-23T10:59:08Z</time>
      </trkpt>
      <trkpt lat="41.633848647" lon="2.492719438">
        <ele>469.74</ele>
        <time>2013-06-23T10:59:10Z</time>
      </trkpt>
      <trkpt lat="41.633964736" lon="2.492793115">
        <ele>470.70</ele>
        <time>2013-06-23T10:59:19Z</time>
      </trkpt>
      <trkpt lat="41.634042856" lon="2.492930746">
        <ele>471.66</ele>
        <time>2013-06-23T10:59:28Z</time>
      </trkpt>
      <trkpt lat="41.634117035" lon="2.493019594">
        <ele>472.14</ele>
        <time>2013-06-23T10:59:35Z</time>
      </trkpt>
      <trkpt lat="41.634203537" lon="2.493058235">
        <ele>473.59</ele>
        <time>2013-06-23T10:59:43Z</time>
      </trkpt>
      <trkpt lat="41.634257265" lon="2.493005093">
        <ele>475.03</ele>
        <time>2013-06-23T10:59:48Z</time>
      </trkpt>
      <trkpt lat="41.634267993" lon="2.492954970">
        <ele>475.99</ele>
        <time>2013-06-23T10:59:51Z</time>
      </trkpt>
      <trkpt lat="41.634233879" lon="2.492799988">
        <ele>476.47</ele>
        <time>2013-06-23T11:00:01Z</time>
      </trkpt>
      <trkpt lat="41.634191299" lon="2.492665962">
        <ele>477.91</ele>
        <time>2013-06-23T11:00:10Z</time>
      </trkpt>
      <trkpt lat="41.634180151" lon="2.492636122">
        <ele>477.91</ele>
        <time>2013-06-23T11:00:12Z</time>
      </trkpt>
      <trkpt lat="41.634069761" lon="2.492487092">
        <ele>477.91</ele>
        <time>2013-06-23T11:00:20Z</time>
      </trkpt>
      <trkpt lat="41.633968173" lon="2.492354741">
        <ele>478.39</ele>
        <time>2013-06-23T11:00:29Z</time>
      </trkpt>
      <trkpt lat="41.633902375" lon="2.492282154">
        <ele>478.39</ele>
        <time>2013-06-23T11:00:34Z</time>
      </trkpt>
      <trkpt lat="41.633854766" lon="2.492191294">
        <ele>478.87</ele>
        <time>2013-06-23T11:00:38Z</time>
      </trkpt>
      <trkpt lat="41.633778239" lon="2.491970850">
        <ele>478.87</ele>
        <time>2013-06-23T11:00:48Z</time>
      </trkpt>
      <trkpt lat="41.633731300" lon="2.491729703">
        <ele>478.87</ele>
        <time>2013-06-23T11:00:57Z</time>
      </trkpt>
      <trkpt lat="41.633659383" lon="2.491564496">
        <ele>479.84</ele>
        <time>2013-06-23T11:01:06Z</time>
      </trkpt>
      <trkpt lat="41.633565338" lon="2.491424099">
        <ele>480.32</ele>
        <time>2013-06-23T11:01:15Z</time>
      </trkpt>
      <trkpt lat="41.633424439" lon="2.491292419">
        <ele>480.32</ele>
        <time>2013-06-23T11:01:23Z</time>
      </trkpt>
      <trkpt lat="41.633342631" lon="2.491166188">
        <ele>479.35</ele>
        <time>2013-06-23T11:01:27Z</time>
      </trkpt>
      <trkpt lat="41.633111123" lon="2.490909450">
        <ele>478.39</ele>
        <time>2013-06-23T11:01:34Z</time>
      </trkpt>
      <trkpt lat="41.633022610" lon="2.490792019">
        <ele>479.84</ele>
        <time>2013-06-23T11:01:40Z</time>
      </trkpt>
      <trkpt lat="41.632979527" lon="2.490719684">
        <ele>479.84</ele>
        <time>2013-06-23T11:01:44Z</time>
      </trkpt>
      <trkpt lat="41.632941976" lon="2.490676014">
        <ele>481.28</ele>
        <time>2013-06-23T11:01:47Z</time>
      </trkpt>
      <trkpt lat="41.632871149" lon="2.490668638">
        <ele>482.24</ele>
        <time>2013-06-23T11:01:51Z</time>
      </trkpt>
      <trkpt lat="41.632780038" lon="2.490752876">
        <ele>483.68</ele>
        <time>2013-06-23T11:01:59Z</time>
      </trkpt>
      <trkpt lat="41.632747851" lon="2.490783889">
        <ele>484.64</ele>
        <time>2013-06-23T11:02:02Z</time>
      </trkpt>
      <trkpt lat="41.632679623" lon="2.490787745">
        <ele>486.08</ele>
        <time>2013-06-23T11:02:08Z</time>
      </trkpt>
      <trkpt lat="41.632661518" lon="2.490771400">
        <ele>486.56</ele>
        <time>2013-06-23T11:02:10Z</time>
      </trkpt>
      <trkpt lat="41.632654645" lon="2.490654975">
        <ele>488.97</ele>
        <time>2013-06-23T11:02:19Z</time>
      </trkpt>
      <trkpt lat="41.632655567" lon="2.490643660">
        <ele>488.97</ele>
        <time>2013-06-23T11:02:20Z</time>
      </trkpt>
      <trkpt lat="41.632639390" lon="2.490489852">
        <ele>490.89</ele>
        <time>2013-06-23T11:02:30Z</time>
      </trkpt>
      <trkpt lat="41.632584069" lon="2.490349623">
        <ele>493.29</ele>
        <time>2013-06-23T11:02:40Z</time>
      </trkpt>
      <trkpt lat="41.632584153" lon="2.490334535">
        <ele>493.29</ele>
        <time>2013-06-23T11:02:41Z</time>
      </trkpt>
      <trkpt lat="41.632613238" lon="2.490178548">
        <ele>494.74</ele>
        <time>2013-06-23T11:02:51Z</time>
      </trkpt>
      <trkpt lat="41.632641569" lon="2.490055250">
        <ele>497.62</ele>
        <time>2013-06-23T11:03:00Z</time>
      </trkpt>
      <trkpt lat="41.632616842" lon="2.489879146">
        <ele>500.02</ele>
        <time>2013-06-23T11:03:12Z</time>
      </trkpt>
      <trkpt lat="41.632602761" lon="2.489845451">
        <ele>500.98</ele>
        <time>2013-06-23T11:03:19Z</time>
      </trkpt>
      <trkpt lat="41.632605778" lon="2.489844948">
        <ele>500.98</ele>
        <time>2013-06-23T11:03:26Z</time>
      </trkpt>
      <trkpt lat="41.632618267" lon="2.489733972">
        <ele>501.46</ele>
        <time>2013-06-23T11:03:34Z</time>
      </trkpt>
      <trkpt lat="41.632668810" lon="2.489590390">
        <ele>503.87</ele>
        <time>2013-06-23T11:03:45Z</time>
      </trkpt>
      <trkpt lat="41.632727651" lon="2.489496010">
        <ele>506.27</ele>
        <time>2013-06-23T11:03:54Z</time>
      </trkpt>
      <trkpt lat="41.632795796" lon="2.489490058">
        <ele>507.71</ele>
        <time>2013-06-23T11:04:02Z</time>
      </trkpt>
      <trkpt lat="41.632862432" lon="2.489524340">
        <ele>509.64</ele>
        <time>2013-06-23T11:04:10Z</time>
      </trkpt>
      <trkpt lat="41.632892439" lon="2.489541104">
        <ele>510.60</ele>
        <time>2013-06-23T11:04:13Z</time>
      </trkpt>
      <trkpt lat="41.632942731" lon="2.489564071">
        <ele>510.12</ele>
        <time>2013-06-23T11:04:17Z</time>
      </trkpt>
      <trkpt lat="41.633028813" lon="2.489585193">
        <ele>512.52</ele>
        <time>2013-06-23T11:04:25Z</time>
      </trkpt>
      <trkpt lat="41.633105675" lon="2.489646968">
        <ele>513.48</ele>
        <time>2013-06-23T11:04:34Z</time>
      </trkpt>
      <trkpt lat="41.633224782" lon="2.489651159">
        <ele>515.40</ele>
        <time>2013-06-23T11:04:47Z</time>
      </trkpt>
      <trkpt lat="41.633260656" lon="2.489648979">
        <ele>516.37</ele>
        <time>2013-06-23T11:04:51Z</time>
      </trkpt>
      <trkpt lat="41.633378841" lon="2.489657277">
        <ele>519.25</ele>
        <time>2013-06-23T11:05:01Z</time>
      </trkpt>
      <trkpt lat="41.633463079" lon="2.489675550">
        <ele>519.25</ele>
        <time>2013-06-23T11:05:08Z</time>
      </trkpt>
      <trkpt lat="41.633553017" lon="2.489638167">
        <ele>521.17</ele>
        <time>2013-06-23T11:05:17Z</time>
      </trkpt>
      <trkpt lat="41.633561064" lon="2.489629952">
        <ele>521.65</ele>
        <time>2013-06-23T11:05:18Z</time>
      </trkpt>
      <trkpt lat="41.633609679" lon="2.489529370">
        <ele>522.61</ele>
        <time>2013-06-23T11:05:27Z</time>
      </trkpt>
      <trkpt lat="41.633601464" lon="2.489399953">
        <ele>524.54</ele>
        <time>2013-06-23T11:05:37Z</time>
      </trkpt>
      <trkpt lat="41.633579336" lon="2.489255030">
        <ele>525.02</ele>
        <time>2013-06-23T11:05:45Z</time>
      </trkpt>
      <trkpt lat="41.633595010" lon="2.489103736">
        <ele>525.50</ele>
        <time>2013-06-23T11:05:54Z</time>
      </trkpt>
      <trkpt lat="41.633601045" lon="2.488893435">
        <ele>525.50</ele>
        <time>2013-06-23T11:06:03Z</time>
      </trkpt>
      <trkpt lat="41.633614540" lon="2.488823362">
        <ele>525.50</ele>
        <time>2013-06-23T11:06:09Z</time>
      </trkpt>
      <trkpt lat="41.633601716" lon="2.488811208">
        <ele>525.98</ele>
        <time>2013-06-23T11:06:25Z</time>
      </trkpt>
      <trkpt lat="41.633595849" lon="2.488802826">
        <ele>525.98</ele>
        <time>2013-06-23T11:06:31Z</time>
      </trkpt>
      <trkpt lat="41.633564081" lon="2.488778519">
        <ele>525.98</ele>
        <time>2013-06-23T11:06:35Z</time>
      </trkpt>
      <trkpt lat="41.633528961" lon="2.488638373">
        <ele>525.98</ele>
        <time>2013-06-23T11:06:45Z</time>
      </trkpt>
      <trkpt lat="41.633494260" lon="2.488564780">
        <ele>526.46</ele>
        <time>2013-06-23T11:06:51Z</time>
      </trkpt>
      <trkpt lat="41.633427540" lon="2.488455983">
        <ele>526.46</ele>
        <time>2013-06-23T11:07:01Z</time>
      </trkpt>
      <trkpt lat="41.633347325" lon="2.488295218">
        <ele>527.42</ele>
        <time>2013-06-23T11:07:11Z</time>
      </trkpt>
      <trkpt lat="41.633270295" lon="2.488153732">
        <ele>527.90</ele>
        <time>2013-06-23T11:07:20Z</time>
      </trkpt>
      <trkpt lat="41.633226542" lon="2.488048539">
        <ele>528.38</ele>
        <time>2013-06-23T11:07:27Z</time>
      </trkpt>
      <trkpt lat="41.633217573" lon="2.488026075">
        <ele>528.38</ele>
        <time>2013-06-23T11:07:29Z</time>
      </trkpt>
      <trkpt lat="41.633207347" lon="2.487971928">
        <ele>528.86</ele>
        <time>2013-06-23T11:07:35Z</time>
      </trkpt>
      <trkpt lat="41.633204581" lon="2.487967569">
        <ele>528.86</ele>
        <time>2013-06-23T11:07:36Z</time>
      </trkpt>
      <trkpt lat="41.633141801" lon="2.487839829">
        <ele>530.79</ele>
        <time>2013-06-23T11:07:48Z</time>
      </trkpt>
      <trkpt lat="41.633102909" lon="2.487796662">
        <ele>531.27</ele>
        <time>2013-06-23T11:07:53Z</time>
      </trkpt>
      <trkpt lat="41.633056725" lon="2.487717034">
        <ele>532.71</ele>
        <time>2013-06-23T11:08:02Z</time>
      </trkpt>
      <trkpt lat="41.633045577" lon="2.487681411">
        <ele>532.71</ele>
        <time>2013-06-23T11:08:09Z</time>
      </trkpt>
      <trkpt lat="41.632980868" lon="2.487535147">
        <ele>535.11</ele>
        <time>2013-06-23T11:08:19Z</time>
      </trkpt>
      <trkpt lat="41.632952370" lon="2.487382932">
        <ele>536.55</ele>
        <time>2013-06-23T11:08:28Z</time>
      </trkpt>
      <trkpt lat="41.632940551" lon="2.487230297">
        <ele>537.99</ele>
        <time>2013-06-23T11:08:36Z</time>
      </trkpt>
      <trkpt lat="41.632923704" lon="2.487158381">
        <ele>538.48</ele>
        <time>2013-06-23T11:08:40Z</time>
      </trkpt>
      <trkpt lat="41.632896546" lon="2.487071879">
        <ele>539.92</ele>
        <time>2013-06-23T11:08:46Z</time>
      </trkpt>
      <trkpt lat="41.632835191" lon="2.486948079">
        <ele>541.36</ele>
        <time>2013-06-23T11:08:56Z</time>
      </trkpt>
      <trkpt lat="41.632763777" lon="2.486852776">
        <ele>543.28</ele>
        <time>2013-06-23T11:09:06Z</time>
      </trkpt>
      <trkpt lat="41.632746846" lon="2.486836851">
        <ele>543.28</ele>
        <time>2013-06-23T11:09:08Z</time>
      </trkpt>
      <trkpt lat="41.632650035" lon="2.486764766">
        <ele>544.24</ele>
        <time>2013-06-23T11:09:17Z</time>
      </trkpt>
      <trkpt lat="41.632599157" lon="2.486745069">
        <ele>544.72</ele>
        <time>2013-06-23T11:09:21Z</time>
      </trkpt>
      <trkpt lat="41.632546518" lon="2.486689581">
        <ele>545.69</ele>
        <time>2013-06-23T11:09:27Z</time>
      </trkpt>
      <trkpt lat="41.632503100" lon="2.486552453">
        <ele>546.65</ele>
        <time>2013-06-23T11:09:35Z</time>
      </trkpt>
      <trkpt lat="41.632444929" lon="2.486445081">
        <ele>550.01</ele>
        <time>2013-06-23T11:09:43Z</time>
      </trkpt>
      <trkpt lat="41.632404696" lon="2.486342318">
        <ele>550.97</ele>
        <time>2013-06-23T11:09:50Z</time>
      </trkpt>
      <trkpt lat="41.632389274" lon="2.486257997">
        <ele>551.93</ele>
        <time>2013-06-23T11:09:56Z</time>
      </trkpt>
      <trkpt lat="41.632372342" lon="2.486143416">
        <ele>552.41</ele>
        <time>2013-06-23T11:10:04Z</time>
      </trkpt>
      <trkpt lat="41.632347616" lon="2.486113493">
        <ele>552.41</ele>
        <time>2013-06-23T11:10:08Z</time>
      </trkpt>
      <trkpt lat="41.632274609" lon="2.486173172">
        <ele>552.90</ele>
        <time>2013-06-23T11:10:16Z</time>
      </trkpt>
      <trkpt lat="41.632261282" lon="2.486192366">
        <ele>553.38</ele>
        <time>2013-06-23T11:10:18Z</time>
      </trkpt>
      <trkpt lat="41.632172434" lon="2.486272246">
        <ele>553.86</ele>
        <time>2013-06-23T11:10:28Z</time>
      </trkpt>
      <trkpt lat="41.632071683" lon="2.486299152">
        <ele>554.82</ele>
        <time>2013-06-23T11:10:37Z</time>
      </trkpt>
      <trkpt lat="41.631985936" lon="2.486327566">
        <ele>556.26</ele>
        <time>2013-06-23T11:10:44Z</time>
      </trkpt>
      <trkpt lat="41.631919636" lon="2.486384144">
        <ele>557.22</ele>
        <time>2013-06-23T11:10:50Z</time>
      </trkpt>
      <trkpt lat="41.631850904" lon="2.486437705">
        <ele>558.18</ele>
        <time>2013-06-23T11:10:56Z</time>
      </trkpt>
      <trkpt lat="41.631763816" lon="2.486531247">
        <ele>559.14</ele>
        <time>2013-06-23T11:11:04Z</time>
      </trkpt>
      <trkpt lat="41.631651499" lon="2.486555806">
        <ele>560.59</ele>
        <time>2013-06-23T11:11:13Z</time>
      </trkpt>
      <trkpt lat="41.631558208" lon="2.486504341">
        <ele>562.03</ele>
        <time>2013-06-23T11:11:22Z</time>
      </trkpt>
      <trkpt lat="41.631507330" lon="2.486404596">
        <ele>563.47</ele>
        <time>2013-06-23T11:11:29Z</time>
      </trkpt>
      <trkpt lat="41.631483693" lon="2.486340642">
        <ele>563.95</ele>
        <time>2013-06-23T11:11:33Z</time>
      </trkpt>
      <trkpt lat="41.631439353" lon="2.486232516">
        <ele>564.43</ele>
        <time>2013-06-23T11:11:40Z</time>
      </trkpt>
      <trkpt lat="41.631409429" lon="2.486086000">
        <ele>566.35</ele>
        <time>2013-06-23T11:11:49Z</time>
      </trkpt>
      <trkpt lat="41.631398784" lon="2.485924145">
        <ele>567.80</ele>
        <time>2013-06-23T11:11:59Z</time>
      </trkpt>
      <trkpt lat="41.631391240" lon="2.485882068">
        <ele>567.80</ele>
        <time>2013-06-23T11:12:02Z</time>
      </trkpt>
      <trkpt lat="41.631373555" lon="2.485803278">
        <ele>568.76</ele>
        <time>2013-06-23T11:12:07Z</time>
      </trkpt>
      <trkpt lat="41.631358802" lon="2.485642849">
        <ele>569.24</ele>
        <time>2013-06-23T11:12:16Z</time>
      </trkpt>
      <trkpt lat="41.631333321" lon="2.485530699">
        <ele>569.24</ele>
        <time>2013-06-23T11:12:24Z</time>
      </trkpt>
      <trkpt lat="41.631322090" lon="2.485512929">
        <ele>569.24</ele>
        <time>2013-06-23T11:12:35Z</time>
      </trkpt>
      <trkpt lat="41.631312451" lon="2.485472947">
        <ele>569.24</ele>
        <time>2013-06-23T11:12:45Z</time>
      </trkpt>
      <trkpt lat="41.631307086" lon="2.485463392">
        <ele>569.24</ele>
        <time>2013-06-23T11:12:46Z</time>
      </trkpt>
      <trkpt lat="41.631174401" lon="2.485377645">
        <ele>569.24</ele>
        <time>2013-06-23T11:12:55Z</time>
      </trkpt>
      <trkpt lat="41.631037356" lon="2.485276559">
        <ele>569.24</ele>
        <time>2013-06-23T11:13:03Z</time>
      </trkpt>
      <trkpt lat="41.630897379" lon="2.485158123">
        <ele>569.72</ele>
        <time>2013-06-23T11:13:11Z</time>
      </trkpt>
      <trkpt lat="41.630777098" lon="2.485039938">
        <ele>569.72</ele>
        <time>2013-06-23T11:13:18Z</time>
      </trkpt>
      <trkpt lat="41.630740050" lon="2.485004818">
        <ele>569.72</ele>
        <time>2013-06-23T11:13:20Z</time>
      </trkpt>
      <trkpt lat="41.630579788" lon="2.484810107">
        <ele>570.20</ele>
        <time>2013-06-23T11:13:30Z</time>
      </trkpt>
      <trkpt lat="41.630474344" lon="2.484597206">
        <ele>571.16</ele>
        <time>2013-06-23T11:13:39Z</time>
      </trkpt>
      <trkpt lat="41.630377701" lon="2.484420683">
        <ele>572.12</ele>
        <time>2013-06-23T11:13:47Z</time>
      </trkpt>
      <trkpt lat="41.630262450" lon="2.484263942">
        <ele>573.08</ele>
        <time>2013-06-23T11:13:56Z</time>
      </trkpt>
      <trkpt lat="41.630121131" lon="2.484171322">
        <ele>574.53</ele>
        <time>2013-06-23T11:14:05Z</time>
      </trkpt>
      <trkpt lat="41.629994983" lon="2.484105272">
        <ele>575.97</ele>
        <time>2013-06-23T11:14:13Z</time>
      </trkpt>
      <trkpt lat="41.629851988" lon="2.484037379">
        <ele>576.93</ele>
        <time>2013-06-23T11:14:22Z</time>
      </trkpt>
      <trkpt lat="41.629655851" lon="2.484010641">
        <ele>577.41</ele>
        <time>2013-06-23T11:14:31Z</time>
      </trkpt>
      <trkpt lat="41.629506234" lon="2.484010473">
        <ele>577.41</ele>
        <time>2013-06-23T11:14:38Z</time>
      </trkpt>
      <trkpt lat="41.629385116" lon="2.483975520">
        <ele>577.41</ele>
        <time>2013-06-23T11:14:44Z</time>
      </trkpt>
      <trkpt lat="41.629261231" lon="2.483931180">
        <ele>577.89</ele>
        <time>2013-06-23T11:14:51Z</time>
      </trkpt>
      <trkpt lat="41.629038021" lon="2.483822802">
        <ele>578.85</ele>
        <time>2013-06-23T11:15:02Z</time>
      </trkpt>
      <trkpt lat="41.628868707" lon="2.483716603">
        <ele>579.33</ele>
        <time>2013-06-23T11:15:11Z</time>
      </trkpt>
      <trkpt lat="41.628758401" lon="2.483575033">
        <ele>580.29</ele>
        <time>2013-06-23T11:15:19Z</time>
      </trkpt>
      <trkpt lat="41.628683970" lon="2.483345034">
        <ele>581.73</ele>
        <time>2013-06-23T11:15:29Z</time>
      </trkpt>
      <trkpt lat="41.628637534" lon="2.483169852">
        <ele>583.18</ele>
        <time>2013-06-23T11:15:37Z</time>
      </trkpt>
      <trkpt lat="41.628631666" lon="2.483151831">
        <ele>583.18</ele>
        <time>2013-06-23T11:15:38Z</time>
      </trkpt>
      <trkpt lat="41.628518595" lon="2.483094582">
        <ele>584.62</ele>
        <time>2013-06-23T11:15:45Z</time>
      </trkpt>
      <trkpt lat="41.628485905" lon="2.483118052">
        <ele>585.10</ele>
        <time>2013-06-23T11:15:47Z</time>
      </trkpt>
      <trkpt lat="41.628363697" lon="2.483317038">
        <ele>586.06</ele>
        <time>2013-06-23T11:15:57Z</time>
      </trkpt>
      <trkpt lat="41.628227826" lon="2.483554497">
        <ele>587.02</ele>
        <time>2013-06-23T11:16:08Z</time>
      </trkpt>
      <trkpt lat="41.628109055" lon="2.483605208">
        <ele>587.50</ele>
        <time>2013-06-23T11:16:15Z</time>
      </trkpt>
      <trkpt lat="41.627996989" lon="2.483567909">
        <ele>588.95</ele>
        <time>2013-06-23T11:16:23Z</time>
      </trkpt>
      <trkpt lat="41.627983578" lon="2.483555503">
        <ele>588.95</ele>
        <time>2013-06-23T11:16:24Z</time>
      </trkpt>
      <trkpt lat="41.627925575" lon="2.483452574">
        <ele>589.91</ele>
        <time>2013-06-23T11:16:31Z</time>
      </trkpt>
      <trkpt lat="41.627830608" lon="2.483283762">
        <ele>591.83</ele>
        <time>2013-06-23T11:16:41Z</time>
      </trkpt>
      <trkpt lat="41.627770761" lon="2.483154513">
        <ele>592.31</ele>
        <time>2013-06-23T11:16:48Z</time>
      </trkpt>
      <trkpt lat="41.627765061" lon="2.483130708">
        <ele>592.31</ele>
        <time>2013-06-23T11:16:49Z</time>
      </trkpt>
      <trkpt lat="41.627732875" lon="2.483076310">
        <ele>592.31</ele>
        <time>2013-06-23T11:16:52Z</time>
      </trkpt>
      <trkpt lat="41.627709070" lon="2.483036161">
        <ele>592.31</ele>
        <time>2013-06-23T11:17:00Z</time>
      </trkpt>
      <trkpt lat="41.627706221" lon="2.483022163">
        <ele>592.31</ele>
        <time>2013-06-23T11:17:17Z</time>
      </trkpt>
      <trkpt lat="41.627701946" lon="2.482996933">
        <ele>592.31</ele>
        <time>2013-06-23T11:17:29Z</time>
      </trkpt>
      <trkpt lat="41.627688199" lon="2.482968938">
        <ele>592.31</ele>
        <time>2013-06-23T11:17:40Z</time>
      </trkpt>
      <trkpt lat="41.627598932" lon="2.482883610">
        <ele>592.31</ele>
        <time>2013-06-23T11:17:46Z</time>
      </trkpt>
      <trkpt lat="41.627540343" lon="2.482851759">
        <ele>590.87</ele>
        <time>2013-06-23T11:17:48Z</time>
      </trkpt>
      <trkpt lat="41.627354181" lon="2.482879754">
        <ele>588.95</ele>
        <time>2013-06-23T11:17:52Z</time>
      </trkpt>
      <trkpt lat="41.627296765" lon="2.482918311">
        <ele>587.98</ele>
        <time>2013-06-23T11:17:53Z</time>
      </trkpt>
      <trkpt lat="41.627127450" lon="2.483092822">
        <ele>584.62</ele>
        <time>2013-06-23T11:17:56Z</time>
      </trkpt>
      <trkpt lat="41.626894182" lon="2.483141102">
        <ele>580.77</ele>
        <time>2013-06-23T11:18:00Z</time>
      </trkpt>
      <trkpt lat="41.626683712" lon="2.483055607">
        <ele>578.85</ele>
        <time>2013-06-23T11:18:04Z</time>
      </trkpt>
      <trkpt lat="41.626632834" lon="2.483153759">
        <ele>578.37</ele>
        <time>2013-06-23T11:18:06Z</time>
      </trkpt>
      <trkpt lat="41.626585644" lon="2.483302957">
        <ele>578.37</ele>
        <time>2013-06-23T11:18:09Z</time>
      </trkpt>
      <trkpt lat="41.626460418" lon="2.483609818">
        <ele>578.37</ele>
        <time>2013-06-23T11:18:17Z</time>
      </trkpt>
      <trkpt lat="41.626420688" lon="2.483663127">
        <ele>579.81</ele>
        <time>2013-06-23T11:18:19Z</time>
      </trkpt>
      <trkpt lat="41.626214158" lon="2.483869489">
        <ele>577.89</ele>
        <time>2013-06-23T11:18:26Z</time>
      </trkpt>
      <trkpt lat="41.626036881" lon="2.484068979">
        <ele>573.56</ele>
        <time>2013-06-23T11:18:29Z</time>
      </trkpt>
      <trkpt lat="41.625966892" lon="2.484133436">
        <ele>572.12</ele>
        <time>2013-06-23T11:18:30Z</time>
      </trkpt>
      <trkpt lat="41.625562716" lon="2.484408278">
        <ele>568.28</ele>
        <time>2013-06-23T11:18:36Z</time>
      </trkpt>
      <trkpt lat="41.625338668" lon="2.484490840">
        <ele>564.91</ele>
        <time>2013-06-23T11:18:40Z</time>
      </trkpt>
      <trkpt lat="41.625236744" lon="2.484441638">
        <ele>562.99</ele>
        <time>2013-06-23T11:18:43Z</time>
      </trkpt>
      <trkpt lat="41.625318300" lon="2.484319262">
        <ele>562.03</ele>
        <time>2013-06-23T11:18:47Z</time>
      </trkpt>
      <trkpt lat="41.625360880" lon="2.484281628">
        <ele>561.55</ele>
        <time>2013-06-23T11:18:48Z</time>
      </trkpt>
      <trkpt lat="41.625453249" lon="2.484004689">
        <ele>560.11</ele>
        <time>2013-06-23T11:18:53Z</time>
      </trkpt>
      <trkpt lat="41.625257280" lon="2.483880134">
        <ele>558.18</ele>
        <time>2013-06-23T11:18:57Z</time>
      </trkpt>
      <trkpt lat="41.625147309" lon="2.483906202">
        <ele>555.78</ele>
        <time>2013-06-23T11:19:00Z</time>
      </trkpt>
      <trkpt lat="41.625100874" lon="2.484145422">
        <ele>554.34</ele>
        <time>2013-06-23T11:19:04Z</time>
      </trkpt>
      <trkpt lat="41.625074135" lon="2.484214405">
        <ele>554.34</ele>
        <time>2013-06-23T11:19:05Z</time>
      </trkpt>
      <trkpt lat="41.624990652" lon="2.484559739">
        <ele>551.45</ele>
        <time>2013-06-23T11:19:10Z</time>
      </trkpt>
      <trkpt lat="41.624964416" lon="2.484988557">
        <ele>550.97</ele>
        <time>2013-06-23T11:19:16Z</time>
      </trkpt>
      <trkpt lat="41.624925189" lon="2.485170780">
        <ele>551.45</ele>
        <time>2013-06-23T11:19:19Z</time>
      </trkpt>
      <trkpt lat="41.624917645" lon="2.485287372">
        <ele>550.01</ele>
        <time>2013-06-23T11:19:21Z</time>
      </trkpt>
      <trkpt lat="41.624919322" lon="2.485407401">
        <ele>549.05</ele>
        <time>2013-06-23T11:19:23Z</time>
      </trkpt>
      <trkpt lat="41.624876490" lon="2.485809900">
        <ele>545.20</ele>
        <time>2013-06-23T11:19:28Z</time>
      </trkpt>
      <trkpt lat="41.624876155" lon="2.486078791">
        <ele>540.88</ele>
        <time>2013-06-23T11:19:31Z</time>
      </trkpt>
      <trkpt lat="41.624872383" lon="2.486152049">
        <ele>539.92</ele>
        <time>2013-06-23T11:19:32Z</time>
      </trkpt>
      <trkpt lat="41.624871629" lon="2.486287752">
        <ele>538.48</ele>
        <time>2013-06-23T11:19:34Z</time>
      </trkpt>
      <trkpt lat="41.624835586" lon="2.486744315">
        <ele>534.15</ele>
        <time>2013-06-23T11:19:39Z</time>
      </trkpt>
      <trkpt lat="41.624900798" lon="2.487027707">
        <ele>529.82</ele>
        <time>2013-06-23T11:19:43Z</time>
      </trkpt>
      <trkpt lat="41.624916220" lon="2.487100881">
        <ele>528.38</ele>
        <time>2013-06-23T11:19:47Z</time>
      </trkpt>
      <trkpt lat="41.624927703" lon="2.487100126">
        <ele>528.38</ele>
        <time>2013-06-23T11:19:54Z</time>
      </trkpt>
      <trkpt lat="41.624950838" lon="2.487113956">
        <ele>528.86</ele>
        <time>2013-06-23T11:20:04Z</time>
      </trkpt>
      <trkpt lat="41.624969613" lon="2.487126865">
        <ele>528.86</ele>
        <time>2013-06-23T11:20:06Z</time>
      </trkpt>
      <trkpt lat="41.625075057" lon="2.487182940">
        <ele>528.86</ele>
        <time>2013-06-23T11:20:13Z</time>
      </trkpt>
      <trkpt lat="41.625263818" lon="2.487361977">
        <ele>528.86</ele>
        <time>2013-06-23T11:20:22Z</time>
      </trkpt>
      <trkpt lat="41.625460373" lon="2.487584433">
        <ele>528.86</ele>
        <time>2013-06-23T11:20:30Z</time>
      </trkpt>
      <trkpt lat="41.625544276" lon="2.487682585">
        <ele>528.86</ele>
        <time>2013-06-23T11:20:33Z</time>
      </trkpt>
      <trkpt lat="41.625677968" lon="2.487968492">
        <ele>526.94</ele>
        <time>2013-06-23T11:20:38Z</time>
      </trkpt>
      <trkpt lat="41.625684170" lon="2.488327824">
        <ele>523.09</ele>
        <time>2013-06-23T11:20:43Z</time>
      </trkpt>
      <trkpt lat="41.625578223" lon="2.488473836">
        <ele>521.65</ele>
        <time>2013-06-23T11:20:46Z</time>
      </trkpt>
      <trkpt lat="41.625369178" lon="2.488816489">
        <ele>517.81</ele>
        <time>2013-06-23T11:20:51Z</time>
      </trkpt>
      <trkpt lat="41.625268595" lon="2.489148077">
        <ele>516.37</ele>
        <time>2013-06-23T11:20:54Z</time>
      </trkpt>
      <trkpt lat="41.625212353" lon="2.489359552">
        <ele>514.92</ele>
        <time>2013-06-23T11:20:56Z</time>
      </trkpt>
      <trkpt lat="41.625036081" lon="2.489759872">
        <ele>511.08</ele>
        <time>2013-06-23T11:21:00Z</time>
      </trkpt>
      <trkpt lat="41.624885291" lon="2.490028009">
        <ele>509.16</ele>
        <time>2013-06-23T11:21:04Z</time>
      </trkpt>
      <trkpt lat="41.624705332" lon="2.490224313">
        <ele>509.16</ele>
        <time>2013-06-23T11:21:10Z</time>
      </trkpt>
      <trkpt lat="41.624570048" lon="2.490431346">
        <ele>509.16</ele>
        <time>2013-06-23T11:21:16Z</time>
      </trkpt>
      <trkpt lat="41.624399224" lon="2.490767460">
        <ele>510.12</ele>
        <time>2013-06-23T11:21:24Z</time>
      </trkpt>
      <trkpt lat="41.624303503" lon="2.491183538">
        <ele>508.19</ele>
        <time>2013-06-23T11:21:30Z</time>
      </trkpt>
      <trkpt lat="41.624288500" lon="2.491743701">
        <ele>507.23</ele>
        <time>2013-06-23T11:21:36Z</time>
      </trkpt>
      <trkpt lat="41.624192108" lon="2.492263127">
        <ele>506.27</ele>
        <time>2013-06-23T11:21:42Z</time>
      </trkpt>
      <trkpt lat="41.624059422" lon="2.492599828">
        <ele>506.27</ele>
        <time>2013-06-23T11:21:46Z</time>
      </trkpt>
      <trkpt lat="41.624000665" lon="2.492888501">
        <ele>505.79</ele>
        <time>2013-06-23T11:21:50Z</time>
      </trkpt>
      <trkpt lat="41.624035617" lon="2.493234841">
        <ele>506.27</ele>
        <time>2013-06-23T11:21:56Z</time>
      </trkpt>
      <trkpt lat="41.624046598" lon="2.493350847">
        <ele>506.27</ele>
        <time>2013-06-23T11:21:58Z</time>
      </trkpt>
      <trkpt lat="41.624151707" lon="2.493861975">
        <ele>506.27</ele>
        <time>2013-06-23T11:22:07Z</time>
      </trkpt>
      <trkpt lat="41.624203507" lon="2.494100608">
        <ele>505.79</ele>
        <time>2013-06-23T11:22:13Z</time>
      </trkpt>
      <trkpt lat="41.624262180" lon="2.494276125">
        <ele>505.79</ele>
        <time>2013-06-23T11:22:17Z</time>
      </trkpt>
      <trkpt lat="41.624224881" lon="2.494596230">
        <ele>505.79</ele>
        <time>2013-06-23T11:22:23Z</time>
      </trkpt>
      <trkpt lat="41.624202334" lon="2.494682564">
        <ele>505.79</ele>
        <time>2013-06-23T11:22:25Z</time>
      </trkpt>
      <trkpt lat="41.624214487" lon="2.495070310">
        <ele>506.75</ele>
        <time>2013-06-23T11:22:33Z</time>
      </trkpt>
      <trkpt lat="41.624240136" lon="2.495358313">
        <ele>507.71</ele>
        <time>2013-06-23T11:22:39Z</time>
      </trkpt>
      <trkpt lat="41.624216164" lon="2.495697947">
        <ele>509.16</ele>
        <time>2013-06-23T11:22:47Z</time>
      </trkpt>
      <trkpt lat="41.624159251" lon="2.496059459">
        <ele>510.12</ele>
        <time>2013-06-23T11:22:55Z</time>
      </trkpt>
      <trkpt lat="41.624002341" lon="2.496297002">
        <ele>511.08</ele>
        <time>2013-06-23T11:23:03Z</time>
      </trkpt>
      <trkpt lat="41.623828249" lon="2.496404374">
        <ele>513.48</ele>
        <time>2013-06-23T11:23:11Z</time>
      </trkpt>
      <trkpt lat="41.623629682" lon="2.496398004">
        <ele>513.96</ele>
        <time>2013-06-23T11:23:18Z</time>
      </trkpt>
      <trkpt lat="41.623506803" lon="2.496323992">
        <ele>513.96</ele>
        <time>2013-06-23T11:23:23Z</time>
      </trkpt>
      <trkpt lat="41.623379566" lon="2.496089298">
        <ele>513.96</ele>
        <time>2013-06-23T11:23:29Z</time>
      </trkpt>
      <trkpt lat="41.623281665" lon="2.495885367">
        <ele>512.52</ele>
        <time>2013-06-23T11:23:33Z</time>
      </trkpt>
      <trkpt lat="41.623168258" lon="2.495777156">
        <ele>511.56</ele>
        <time>2013-06-23T11:23:36Z</time>
      </trkpt>
      <trkpt lat="41.623109417" lon="2.495563921">
        <ele>511.08</ele>
        <time>2013-06-23T11:23:40Z</time>
      </trkpt>
      <trkpt lat="41.623168510" lon="2.495399971">
        <ele>511.08</ele>
        <time>2013-06-23T11:23:43Z</time>
      </trkpt>
      <trkpt lat="41.623186698" lon="2.494990347">
        <ele>510.12</ele>
        <time>2013-06-23T11:23:49Z</time>
      </trkpt>
      <trkpt lat="41.623071615" lon="2.494556919">
        <ele>510.12</ele>
        <time>2013-06-23T11:23:56Z</time>
      </trkpt>
      <trkpt lat="41.623028113" lon="2.494446529">
        <ele>509.64</ele>
        <time>2013-06-23T11:23:58Z</time>
      </trkpt>
      <trkpt lat="41.622811524" lon="2.494132459">
        <ele>509.64</ele>
        <time>2013-06-23T11:24:05Z</time>
      </trkpt>
      <trkpt lat="41.622622010" lon="2.494000696">
        <ele>509.64</ele>
        <time>2013-06-23T11:24:11Z</time>
      </trkpt>
      <trkpt lat="41.622383880" lon="2.494003378">
        <ele>509.64</ele>
        <time>2013-06-23T11:24:18Z</time>
      </trkpt>
      <trkpt lat="41.622200987" lon="2.493908998">
        <ele>509.64</ele>
        <time>2013-06-23T11:24:23Z</time>
      </trkpt>
      <trkpt lat="41.622096548" lon="2.493705653">
        <ele>510.60</ele>
        <time>2013-06-23T11:24:28Z</time>
      </trkpt>
      <trkpt lat="41.621946680" lon="2.493606746">
        <ele>510.60</ele>
        <time>2013-06-23T11:24:33Z</time>
      </trkpt>
      <trkpt lat="41.621815419" lon="2.493679753">
        <ele>511.08</ele>
        <time>2013-06-23T11:24:38Z</time>
      </trkpt>
      <trkpt lat="41.621648787" lon="2.493830795">
        <ele>512.04</ele>
        <time>2013-06-23T11:24:45Z</time>
      </trkpt>
      <trkpt lat="41.621469833" lon="2.493966917">
        <ele>512.52</ele>
        <time>2013-06-23T11:24:52Z</time>
      </trkpt>
      <trkpt lat="41.621392552" lon="2.494165233">
        <ele>512.52</ele>
        <time>2013-06-23T11:24:58Z</time>
      </trkpt>
      <trkpt lat="41.621412082" lon="2.494414846">
        <ele>512.52</ele>
        <time>2013-06-23T11:25:05Z</time>
      </trkpt>
      <trkpt lat="41.621421218" lon="2.494534707">
        <ele>512.52</ele>
        <time>2013-06-23T11:25:11Z</time>
      </trkpt>
      <trkpt lat="41.621431193" lon="2.494588938">
        <ele>512.52</ele>
        <time>2013-06-23T11:25:18Z</time>
      </trkpt>
      <trkpt lat="41.621444604" lon="2.494594889">
        <ele>512.52</ele>
        <time>2013-06-23T11:25:25Z</time>
      </trkpt>
      <trkpt lat="41.621439072" lon="2.494577622">
        <ele>512.52</ele>
        <time>2013-06-23T11:25:38Z</time>
      </trkpt>
      <trkpt lat="41.621455081" lon="2.494579634">
        <ele>512.52</ele>
        <time>2013-06-23T11:25:59Z</time>
      </trkpt>
      <trkpt lat="41.621463463" lon="2.494581562">
        <ele>512.52</ele>
        <time>2013-06-23T11:26:23Z</time>
      </trkpt>
      <trkpt lat="41.621458182" lon="2.494580053">
        <ele>513.00</ele>
        <time>2013-06-23T11:26:49Z</time>
      </trkpt>
      <trkpt lat="41.621444520" lon="2.494566977">
        <ele>513.00</ele>
        <time>2013-06-23T11:27:15Z</time>
      </trkpt>
      <trkpt lat="41.621449800" lon="2.494545939">
        <ele>513.00</ele>
        <time>2013-06-23T11:27:35Z</time>
      </trkpt>
      <trkpt lat="41.621437311" lon="2.494542334">
        <ele>513.00</ele>
        <time>2013-06-23T11:27:52Z</time>
      </trkpt>
      <trkpt lat="41.621400347" lon="2.494557841">
        <ele>513.48</ele>
        <time>2013-06-23T11:28:16Z</time>
      </trkpt>
      <trkpt lat="41.621405376" lon="2.494572593">
        <ele>513.48</ele>
        <time>2013-06-23T11:28:36Z</time>
      </trkpt>
      <trkpt lat="41.621402694" lon="2.494587261">
        <ele>513.48</ele>
        <time>2013-06-23T11:28:42Z</time>
      </trkpt>
      <trkpt lat="41.621387188" lon="2.494675774">
        <ele>513.48</ele>
        <time>2013-06-23T11:28:49Z</time>
      </trkpt>
      <trkpt lat="41.621233547" lon="2.494860092">
        <ele>513.48</ele>
        <time>2013-06-23T11:28:56Z</time>
      </trkpt>
      <trkpt lat="41.621152159" lon="2.495107107">
        <ele>512.52</ele>
        <time>2013-06-23T11:29:01Z</time>
      </trkpt>
      <trkpt lat="41.620995334" lon="2.495239373">
        <ele>512.04</ele>
        <time>2013-06-23T11:29:06Z</time>
      </trkpt>
      <trkpt lat="41.620947305" lon="2.495206181">
        <ele>511.08</ele>
        <time>2013-06-23T11:29:07Z</time>
      </trkpt>
      <trkpt lat="41.620840855" lon="2.495129403">
        <ele>510.60</ele>
        <time>2013-06-23T11:29:09Z</time>
      </trkpt>
      <trkpt lat="41.620509938" lon="2.494817764">
        <ele>506.75</ele>
        <time>2013-06-23T11:29:15Z</time>
      </trkpt>
      <trkpt lat="41.620401811" lon="2.494774765">
        <ele>505.79</ele>
        <time>2013-06-23T11:29:17Z</time>
      </trkpt>
      <trkpt lat="41.620250769" lon="2.494913569">
        <ele>504.35</ele>
        <time>2013-06-23T11:29:20Z</time>
      </trkpt>
      <trkpt lat="41.620204166" lon="2.494984312">
        <ele>503.39</ele>
        <time>2013-06-23T11:29:21Z</time>
      </trkpt>
      <trkpt lat="41.619891940" lon="2.495318918">
        <ele>500.50</ele>
        <time>2013-06-23T11:29:27Z</time>
      </trkpt>
      <trkpt lat="41.619802589" lon="2.495367700">
        <ele>498.58</ele>
        <time>2013-06-23T11:29:30Z</time>
      </trkpt>
      <trkpt lat="41.619753722" lon="2.495368371">
        <ele>498.10</ele>
        <time>2013-06-23T11:29:35Z</time>
      </trkpt>
      <trkpt lat="41.619775767" lon="2.495398294">
        <ele>498.10</ele>
        <time>2013-06-23T11:29:40Z</time>
      </trkpt>
      <trkpt lat="41.619817760" lon="2.495512540">
        <ele>498.58</ele>
        <time>2013-06-23T11:29:46Z</time>
      </trkpt>
      <trkpt lat="41.619837290" lon="2.495658385">
        <ele>499.54</ele>
        <time>2013-06-23T11:29:50Z</time>
      </trkpt>
      <trkpt lat="41.619867046" lon="2.495757962">
        <ele>499.54</ele>
        <time>2013-06-23T11:29:52Z</time>
      </trkpt>
      <trkpt lat="41.619963186" lon="2.496034565">
        <ele>499.54</ele>
        <time>2013-06-23T11:29:57Z</time>
      </trkpt>
      <trkpt lat="41.620005934" lon="2.496159958">
        <ele>498.58</ele>
        <time>2013-06-23T11:29:59Z</time>
      </trkpt>
      <trkpt lat="41.620057650" lon="2.496308569">
        <ele>497.14</ele>
        <time>2013-06-23T11:30:01Z</time>
      </trkpt>
      <trkpt lat="41.620140296" lon="2.496751720">
        <ele>494.74</ele>
        <time>2013-06-23T11:30:06Z</time>
      </trkpt>
      <trkpt lat="41.620214392" lon="2.496923214">
        <ele>493.77</ele>
        <time>2013-06-23T11:30:08Z</time>
      </trkpt>
      <trkpt lat="41.620287733" lon="2.497073501">
        <ele>491.85</ele>
        <time>2013-06-23T11:30:10Z</time>
      </trkpt>
      <trkpt lat="41.620327883" lon="2.497225382">
        <ele>490.89</ele>
        <time>2013-06-23T11:30:12Z</time>
      </trkpt>
      <trkpt lat="41.620351017" lon="2.497488154">
        <ele>487.53</ele>
        <time>2013-06-23T11:30:15Z</time>
      </trkpt>
      <trkpt lat="41.620396195" lon="2.497710023">
        <ele>485.12</ele>
        <time>2013-06-23T11:30:18Z</time>
      </trkpt>
      <trkpt lat="41.620434752" lon="2.497878164">
        <ele>483.20</ele>
        <time>2013-06-23T11:30:20Z</time>
      </trkpt>
      <trkpt lat="41.620451013" lon="2.498211848">
        <ele>478.39</ele>
        <time>2013-06-23T11:30:24Z</time>
      </trkpt>
      <trkpt lat="41.620554445" lon="2.498616107">
        <ele>473.11</ele>
        <time>2013-06-23T11:30:29Z</time>
      </trkpt>
      <trkpt lat="41.620714037" lon="2.498789361">
        <ele>469.26</ele>
        <time>2013-06-23T11:30:32Z</time>
      </trkpt>
      <trkpt lat="41.620763742" lon="2.498906205">
        <ele>468.78</ele>
        <time>2013-06-23T11:30:34Z</time>
      </trkpt>
      <trkpt lat="41.620671205" lon="2.499027323">
        <ele>465.90</ele>
        <time>2013-06-23T11:30:37Z</time>
      </trkpt>
      <trkpt lat="41.620548746" lon="2.499008129">
        <ele>465.42</ele>
        <time>2013-06-23T11:30:39Z</time>
      </trkpt>
      <trkpt lat="41.620423185" lon="2.498979714">
        <ele>463.49</ele>
        <time>2013-06-23T11:30:41Z</time>
      </trkpt>
      <trkpt lat="41.620216822" lon="2.498984827">
        <ele>461.09</ele>
        <time>2013-06-23T11:30:44Z</time>
      </trkpt>
      <trkpt lat="41.620025044" lon="2.498913916">
        <ele>457.24</ele>
        <time>2013-06-23T11:30:48Z</time>
      </trkpt>
      <trkpt lat="41.619845336" lon="2.498808555">
        <ele>454.36</ele>
        <time>2013-06-23T11:30:52Z</time>
      </trkpt>
      <trkpt lat="41.619768474" lon="2.498871504">
        <ele>452.92</ele>
        <time>2013-06-23T11:30:56Z</time>
      </trkpt>
      <trkpt lat="41.619821783" lon="2.498944258">
        <ele>451.48</ele>
        <time>2013-06-23T11:30:58Z</time>
      </trkpt>
      <trkpt lat="41.619931000" lon="2.499225639">
        <ele>449.55</ele>
        <time>2013-06-23T11:31:03Z</time>
      </trkpt>
      <trkpt lat="41.619907614" lon="2.499382129">
        <ele>447.15</ele>
        <time>2013-06-23T11:31:05Z</time>
      </trkpt>
      <trkpt lat="41.619997217" lon="2.499584887">
        <ele>445.23</ele>
        <time>2013-06-23T11:31:09Z</time>
      </trkpt>
      <trkpt lat="41.620264851" lon="2.499833830">
        <ele>440.90</ele>
        <time>2013-06-23T11:31:14Z</time>
      </trkpt>
      <trkpt lat="41.620329224" lon="2.500042539">
        <ele>438.98</ele>
        <time>2013-06-23T11:31:16Z</time>
      </trkpt>
      <trkpt lat="41.620499376" lon="2.500410756">
        <ele>435.13</ele>
        <time>2013-06-23T11:31:21Z</time>
      </trkpt>
      <trkpt lat="41.620681431" lon="2.500354597">
        <ele>435.13</ele>
        <time>2013-06-23T11:31:24Z</time>
      </trkpt>
      <trkpt lat="41.620817637" lon="2.500206405">
        <ele>434.65</ele>
        <time>2013-06-23T11:31:27Z</time>
      </trkpt>
      <trkpt lat="41.621140341" lon="2.500009515">
        <ele>432.25</ele>
        <time>2013-06-23T11:31:33Z</time>
      </trkpt>
      <trkpt lat="41.621187279" lon="2.500099452">
        <ele>431.29</ele>
        <time>2013-06-23T11:31:35Z</time>
      </trkpt>
      <trkpt lat="41.621190129" lon="2.500348060">
        <ele>429.37</ele>
        <time>2013-06-23T11:31:38Z</time>
      </trkpt>
      <trkpt lat="41.621226758" lon="2.500479823">
        <ele>427.44</ele>
        <time>2013-06-23T11:31:40Z</time>
      </trkpt>
      <trkpt lat="41.621294400" lon="2.500741255">
        <ele>424.56</ele>
        <time>2013-06-23T11:31:44Z</time>
      </trkpt>
      <trkpt lat="41.621332957" lon="2.500890788">
        <ele>422.64</ele>
        <time>2013-06-23T11:31:46Z</time>
      </trkpt>
      <trkpt lat="41.621429349" lon="2.501122967">
        <ele>419.27</ele>
        <time>2013-06-23T11:31:50Z</time>
      </trkpt>
      <trkpt lat="41.621449046" lon="2.501175940">
        <ele>418.31</ele>
        <time>2013-06-23T11:31:51Z</time>
      </trkpt>
      <trkpt lat="41.621385176" lon="2.501265627">
        <ele>416.87</ele>
        <time>2013-06-23T11:31:55Z</time>
      </trkpt>
      <trkpt lat="41.621361287" lon="2.501235535">
        <ele>416.39</ele>
        <time>2013-06-23T11:31:56Z</time>
      </trkpt>
      <trkpt lat="41.621206055" lon="2.501097486">
        <ele>413.98</ele>
        <time>2013-06-23T11:32:02Z</time>
      </trkpt>
      <trkpt lat="41.621185435" lon="2.501082566">
        <ele>413.50</ele>
        <time>2013-06-23T11:32:03Z</time>
      </trkpt>
      <trkpt lat="41.621165235" lon="2.501018360">
        <ele>413.02</ele>
        <time>2013-06-23T11:32:09Z</time>
      </trkpt>
      <trkpt lat="41.621159451" lon="2.501007883">
        <ele>413.02</ele>
        <time>2013-06-23T11:32:18Z</time>
      </trkpt>
      <trkpt lat="41.621148890" lon="2.501000088">
        <ele>413.02</ele>
        <time>2013-06-23T11:32:27Z</time>
      </trkpt>
      <trkpt lat="41.621041266" lon="2.500912078">
        <ele>412.06</ele>
        <time>2013-06-23T11:32:33Z</time>
      </trkpt>
      <trkpt lat="41.620916292" lon="2.500925740">
        <ele>409.66</ele>
        <time>2013-06-23T11:32:38Z</time>
      </trkpt>
      <trkpt lat="41.620799197" lon="2.500996232">
        <ele>408.22</ele>
        <time>2013-06-23T11:32:41Z</time>
      </trkpt>
      <trkpt lat="41.620639941" lon="2.501214162">
        <ele>406.29</ele>
        <time>2013-06-23T11:32:45Z</time>
      </trkpt>
      <trkpt lat="41.620432908" lon="2.501447849">
        <ele>404.85</ele>
        <time>2013-06-23T11:32:49Z</time>
      </trkpt>
      <trkpt lat="41.620307347" lon="2.501515826">
        <ele>404.37</ele>
        <time>2013-06-23T11:32:51Z</time>
      </trkpt>
      <trkpt lat="41.620111127" lon="2.501466122">
        <ele>402.93</ele>
        <time>2013-06-23T11:32:54Z</time>
      </trkpt>
      <trkpt lat="41.619911805" lon="2.501174431">
        <ele>399.57</ele>
        <time>2013-06-23T11:32:58Z</time>
      </trkpt>
      <trkpt lat="41.619818263" lon="2.501068149">
        <ele>398.12</ele>
        <time>2013-06-23T11:33:00Z</time>
      </trkpt>
      <trkpt lat="41.619718686" lon="2.500975613">
        <ele>396.20</ele>
        <time>2013-06-23T11:33:02Z</time>
      </trkpt>
      <trkpt lat="41.619596897" lon="2.500760533">
        <ele>392.84</ele>
        <time>2013-06-23T11:33:06Z</time>
      </trkpt>
      <trkpt lat="41.619391959" lon="2.500703788">
        <ele>388.51</ele>
        <time>2013-06-23T11:33:11Z</time>
      </trkpt>
      <trkpt lat="41.619342087" lon="2.500810824">
        <ele>387.55</ele>
        <time>2013-06-23T11:33:15Z</time>
      </trkpt>
      <trkpt lat="41.619431354" lon="2.501027916">
        <ele>383.22</ele>
        <time>2013-06-23T11:33:19Z</time>
      </trkpt>
      <trkpt lat="41.619450800" lon="2.501076615">
        <ele>383.22</ele>
        <time>2013-06-23T11:33:20Z</time>
      </trkpt>
      <trkpt lat="41.619566387" lon="2.501273086">
        <ele>378.42</ele>
        <time>2013-06-23T11:33:24Z</time>
      </trkpt>
      <trkpt lat="41.619595388" lon="2.501504092">
        <ele>374.57</ele>
        <time>2013-06-23T11:33:28Z</time>
      </trkpt>
      <trkpt lat="41.619552221" lon="2.501662258">
        <ele>371.69</ele>
        <time>2013-06-23T11:33:31Z</time>
      </trkpt>
      <trkpt lat="41.619525567" lon="2.501981944">
        <ele>366.40</ele>
        <time>2013-06-23T11:33:36Z</time>
      </trkpt>
      <trkpt lat="41.619545851" lon="2.502171626">
        <ele>364.00</ele>
        <time>2013-06-23T11:33:39Z</time>
      </trkpt>
      <trkpt lat="41.619565129" lon="2.502404895">
        <ele>359.19</ele>
        <time>2013-06-23T11:33:43Z</time>
      </trkpt>
      <trkpt lat="41.619550377" lon="2.502657190">
        <ele>355.83</ele>
        <time>2013-06-23T11:33:48Z</time>
      </trkpt>
      <trkpt lat="41.619538726" lon="2.502710918">
        <ele>354.86</ele>
        <time>2013-06-23T11:33:49Z</time>
      </trkpt>
      <trkpt lat="41.619503187" lon="2.503020629">
        <ele>350.54</ele>
        <time>2013-06-23T11:33:53Z</time>
      </trkpt>
      <trkpt lat="41.619474940" lon="2.503235458">
        <ele>348.13</ele>
        <time>2013-06-23T11:33:57Z</time>
      </trkpt>
      <trkpt lat="41.619438898" lon="2.503182903">
        <ele>347.65</ele>
        <time>2013-06-23T11:34:03Z</time>
      </trkpt>
      <trkpt lat="41.619438479" lon="2.503165050">
        <ele>347.17</ele>
        <time>2013-06-23T11:34:04Z</time>
      </trkpt>
      <trkpt lat="41.619423978" lon="2.502915353">
        <ele>345.73</ele>
        <time>2013-06-23T11:34:11Z</time>
      </trkpt>
      <trkpt lat="41.619417692" lon="2.502797252">
        <ele>344.77</ele>
        <time>2013-06-23T11:34:13Z</time>
      </trkpt>
      <trkpt lat="41.619336806" lon="2.502789457">
        <ele>342.85</ele>
        <time>2013-06-23T11:34:17Z</time>
      </trkpt>
      <trkpt lat="41.619302944" lon="2.502913676">
        <ele>340.92</ele>
        <time>2013-06-23T11:34:19Z</time>
      </trkpt>
      <trkpt lat="41.619171096" lon="2.503367808">
        <ele>336.12</ele>
        <time>2013-06-23T11:34:25Z</time>
      </trkpt>
      <trkpt lat="41.619051989" lon="2.503706940">
        <ele>332.75</ele>
        <time>2013-06-23T11:34:29Z</time>
      </trkpt>
      <trkpt lat="41.619008571" lon="2.503859406">
        <ele>330.83</ele>
        <time>2013-06-23T11:34:31Z</time>
      </trkpt>
      <trkpt lat="41.618958028" lon="2.504024614">
        <ele>328.43</ele>
        <time>2013-06-23T11:34:34Z</time>
      </trkpt>
      <trkpt lat="41.618889967" lon="2.504028805">
        <ele>326.50</ele>
        <time>2013-06-23T11:34:38Z</time>
      </trkpt>
      <trkpt lat="41.618876808" lon="2.503979016">
        <ele>325.54</ele>
        <time>2013-06-23T11:34:39Z</time>
      </trkpt>
      <trkpt lat="41.618853925" lon="2.503749771">
        <ele>323.14</ele>
        <time>2013-06-23T11:34:42Z</time>
      </trkpt>
      <trkpt lat="41.618875047" lon="2.503417010">
        <ele>318.81</ele>
        <time>2013-06-23T11:34:46Z</time>
      </trkpt>
      <trkpt lat="41.618901786" lon="2.503276194">
        <ele>317.85</ele>
        <time>2013-06-23T11:34:48Z</time>
      </trkpt>
      <trkpt lat="41.618888123" lon="2.503109226">
        <ele>314.97</ele>
        <time>2013-06-23T11:34:52Z</time>
      </trkpt>
      <trkpt lat="41.618865157" lon="2.503103862">
        <ele>314.97</ele>
        <time>2013-06-23T11:34:53Z</time>
      </trkpt>
      <trkpt lat="41.618839424" lon="2.503108891">
        <ele>314.01</ele>
        <time>2013-06-23T11:34:54Z</time>
      </trkpt>
      <trkpt lat="41.618773794" lon="2.503131103">
        <ele>312.57</ele>
        <time>2013-06-23T11:34:56Z</time>
      </trkpt>
      <trkpt lat="41.618695339" lon="2.503183406">
        <ele>311.60</ele>
        <time>2013-06-23T11:34:58Z</time>
      </trkpt>
      <trkpt lat="41.618586375" lon="2.503230345">
        <ele>309.68</ele>
        <time>2013-06-23T11:35:00Z</time>
      </trkpt>
      <trkpt lat="41.618442876" lon="2.503350625">
        <ele>308.24</ele>
        <time>2013-06-23T11:35:03Z</time>
      </trkpt>
      <trkpt lat="41.618234335" lon="2.503691517">
        <ele>304.88</ele>
        <time>2013-06-23T11:35:08Z</time>
      </trkpt>
      <trkpt lat="41.618131992" lon="2.504055124">
        <ele>299.59</ele>
        <time>2013-06-23T11:35:12Z</time>
      </trkpt>
      <trkpt lat="41.617972568" lon="2.504454102">
        <ele>295.26</ele>
        <time>2013-06-23T11:35:16Z</time>
      </trkpt>
      <trkpt lat="41.617809624" lon="2.504807400">
        <ele>291.90</ele>
        <time>2013-06-23T11:35:20Z</time>
      </trkpt>
      <trkpt lat="41.617761847" lon="2.504897757">
        <ele>290.94</ele>
        <time>2013-06-23T11:35:21Z</time>
      </trkpt>
      <trkpt lat="41.617647350" lon="2.505180897">
        <ele>287.57</ele>
        <time>2013-06-23T11:35:24Z</time>
      </trkpt>
      <trkpt lat="41.617601250" lon="2.505408047">
        <ele>284.21</ele>
        <time>2013-06-23T11:35:27Z</time>
      </trkpt>
      <trkpt lat="41.617583396" lon="2.505499158">
        <ele>282.28</ele>
        <time>2013-06-23T11:35:28Z</time>
      </trkpt>
      <trkpt lat="41.617508546" lon="2.505778192">
        <ele>277.00</ele>
        <time>2013-06-23T11:35:31Z</time>
      </trkpt>
      <trkpt lat="41.617466133" lon="2.505961085">
        <ele>274.59</ele>
        <time>2013-06-23T11:35:33Z</time>
      </trkpt>
      <trkpt lat="41.617464457" lon="2.506314717">
        <ele>270.75</ele>
        <time>2013-06-23T11:35:37Z</time>
      </trkpt>
      <trkpt lat="41.617464876" lon="2.506513955">
        <ele>269.31</ele>
        <time>2013-06-23T11:35:39Z</time>
      </trkpt>
      <trkpt lat="41.617443167" lon="2.506845795">
        <ele>264.50</ele>
        <time>2013-06-23T11:35:42Z</time>
      </trkpt>
      <trkpt lat="41.617443754" lon="2.507304033">
        <ele>261.62</ele>
        <time>2013-06-23T11:35:46Z</time>
      </trkpt>
      <trkpt lat="41.617412405" lon="2.507583654">
        <ele>257.77</ele>
        <time>2013-06-23T11:35:49Z</time>
      </trkpt>
      <trkpt lat="41.617393797" lon="2.507789597">
        <ele>255.85</ele>
        <time>2013-06-23T11:35:51Z</time>
      </trkpt>
      <trkpt lat="41.617339399" lon="2.508241549">
        <ele>252.48</ele>
        <time>2013-06-23T11:35:55Z</time>
      </trkpt>
      <trkpt lat="41.617262034" lon="2.508465765">
        <ele>251.04</ele>
        <time>2013-06-23T11:35:57Z</time>
      </trkpt>
      <trkpt lat="41.617056174" lon="2.509099605">
        <ele>247.68</ele>
        <time>2013-06-23T11:36:02Z</time>
      </trkpt>
      <trkpt lat="41.616950227" lon="2.509419374">
        <ele>245.27</ele>
        <time>2013-06-23T11:36:05Z</time>
      </trkpt>
      <trkpt lat="41.616915694" lon="2.509513838">
        <ele>244.79</ele>
        <time>2013-06-23T11:36:06Z</time>
      </trkpt>
      <trkpt lat="41.616758198" lon="2.510097051">
        <ele>241.43</ele>
        <time>2013-06-23T11:36:12Z</time>
      </trkpt>
      <trkpt lat="41.616666584" lon="2.510505753">
        <ele>237.10</ele>
        <time>2013-06-23T11:36:17Z</time>
      </trkpt>
      <trkpt lat="41.616508166" lon="2.510736255">
        <ele>234.22</ele>
        <time>2013-06-23T11:36:20Z</time>
      </trkpt>
      <trkpt lat="41.616347904" lon="2.511134982">
        <ele>232.30</ele>
        <time>2013-06-23T11:36:24Z</time>
      </trkpt>
      <trkpt lat="41.616324015" lon="2.511239672">
        <ele>231.33</ele>
        <time>2013-06-23T11:36:25Z</time>
      </trkpt>
      <trkpt lat="41.616306497" lon="2.511422901">
        <ele>230.37</ele>
        <time>2013-06-23T11:36:27Z</time>
      </trkpt>
      <trkpt lat="41.616409175" lon="2.511789860">
        <ele>229.41</ele>
        <time>2013-06-23T11:36:32Z</time>
      </trkpt>
      <trkpt lat="41.616665829" lon="2.512268467">
        <ele>228.45</ele>
        <time>2013-06-23T11:36:38Z</time>
      </trkpt>
      <trkpt lat="41.616773285" lon="2.512543226">
        <ele>227.01</ele>
        <time>2013-06-23T11:36:41Z</time>
      </trkpt>
      <trkpt lat="41.616816536" lon="2.512726706">
        <ele>226.53</ele>
        <time>2013-06-23T11:36:43Z</time>
      </trkpt>
      <trkpt lat="41.616851488" lon="2.513007080">
        <ele>226.53</ele>
        <time>2013-06-23T11:36:46Z</time>
      </trkpt>
      <trkpt lat="41.616860038" lon="2.513351493">
        <ele>223.64</ele>
        <time>2013-06-23T11:36:52Z</time>
      </trkpt>
      <trkpt lat="41.616860960" lon="2.513374124">
        <ele>223.16</ele>
        <time>2013-06-23T11:36:57Z</time>
      </trkpt>
      <trkpt lat="41.616870767" lon="2.513384685">
        <ele>223.16</ele>
        <time>2013-06-23T11:37:11Z</time>
      </trkpt>
      <trkpt lat="41.616889794" lon="2.513398934">
        <ele>223.16</ele>
        <time>2013-06-23T11:37:26Z</time>
      </trkpt>
      <trkpt lat="41.616885938" lon="2.513403544">
        <ele>223.16</ele>
        <time>2013-06-23T11:37:44Z</time>
      </trkpt>
      <trkpt lat="41.616883507" lon="2.513421985">
        <ele>223.16</ele>
        <time>2013-06-23T11:37:50Z</time>
      </trkpt>
      <trkpt lat="41.616859032" lon="2.513308577">
        <ele>222.68</ele>
        <time>2013-06-23T11:37:57Z</time>
      </trkpt>
      <trkpt lat="41.616881412" lon="2.513142364">
        <ele>222.68</ele>
        <time>2013-06-23T11:38:03Z</time>
      </trkpt>
      <trkpt lat="41.616876131" lon="2.512917645">
        <ele>224.12</ele>
        <time>2013-06-23T11:38:09Z</time>
      </trkpt>
      <trkpt lat="41.616797928" lon="2.512582872">
        <ele>225.09</ele>
        <time>2013-06-23T11:38:18Z</time>
      </trkpt>
      <trkpt lat="41.616740763" lon="2.512372403">
        <ele>226.05</ele>
        <time>2013-06-23T11:38:24Z</time>
      </trkpt>
      <trkpt lat="41.616613610" lon="2.512129076">
        <ele>226.53</ele>
        <time>2013-06-23T11:38:32Z</time>
      </trkpt>
      <trkpt lat="41.616530797" lon="2.511945428">
        <ele>227.97</ele>
        <time>2013-06-23T11:38:38Z</time>
      </trkpt>
      <trkpt lat="41.616421748" lon="2.511688104">
        <ele>228.93</ele>
        <time>2013-06-23T11:38:46Z</time>
      </trkpt>
      <trkpt lat="41.616378162" lon="2.511477215">
        <ele>229.41</ele>
        <time>2013-06-23T11:38:51Z</time>
      </trkpt>
      <trkpt lat="41.616388723" lon="2.511253083">
        <ele>230.37</ele>
        <time>2013-06-23T11:38:57Z</time>
      </trkpt>
      <trkpt lat="41.616426107" lon="2.510985701">
        <ele>230.85</ele>
        <time>2013-06-23T11:39:04Z</time>
      </trkpt>
      <trkpt lat="41.616516464" lon="2.510760144">
        <ele>231.81</ele>
        <time>2013-06-23T11:39:11Z</time>
      </trkpt>
      <trkpt lat="41.616648479" lon="2.510583118">
        <ele>234.70</ele>
        <time>2013-06-23T11:39:20Z</time>
      </trkpt>
      <trkpt lat="41.616728358" lon="2.510389747">
        <ele>236.14</ele>
        <time>2013-06-23T11:39:29Z</time>
      </trkpt>
      <trkpt lat="41.616773872" lon="2.510181708">
        <ele>238.54</ele>
        <time>2013-06-23T11:39:38Z</time>
      </trkpt>
      <trkpt lat="41.616767753" lon="2.510043239">
        <ele>239.99</ele>
        <time>2013-06-23T11:39:45Z</time>
      </trkpt>
      <trkpt lat="41.616800191" lon="2.509814078">
        <ele>241.91</ele>
        <time>2013-06-23T11:39:56Z</time>
      </trkpt>
      <trkpt lat="41.616802035" lon="2.509799158">
        <ele>241.91</ele>
        <time>2013-06-23T11:39:57Z</time>
      </trkpt>
      <trkpt lat="41.616832545" lon="2.509710981">
        <ele>241.91</ele>
        <time>2013-06-23T11:40:04Z</time>
      </trkpt>
      <trkpt lat="41.616849141" lon="2.509698492">
        <ele>241.91</ele>
        <time>2013-06-23T11:40:11Z</time>
      </trkpt>
      <trkpt lat="41.616853416" lon="2.509673849">
        <ele>241.91</ele>
        <time>2013-06-23T11:40:23Z</time>
      </trkpt>
      <trkpt lat="41.616838999" lon="2.509690948">
        <ele>241.91</ele>
        <time>2013-06-23T11:40:32Z</time>
      </trkpt>
      <trkpt lat="41.616856769" lon="2.509702766">
        <ele>241.91</ele>
        <time>2013-06-23T11:40:49Z</time>
      </trkpt>
      <trkpt lat="41.616868755" lon="2.509700084">
        <ele>241.91</ele>
        <time>2013-06-23T11:41:01Z</time>
      </trkpt>
      <trkpt lat="41.616866576" lon="2.509717183">
        <ele>242.39</ele>
        <time>2013-06-23T11:41:14Z</time>
      </trkpt>
      <trkpt lat="41.616852829" lon="2.509720536">
        <ele>242.39</ele>
        <time>2013-06-23T11:41:35Z</time>
      </trkpt>
      <trkpt lat="41.616850566" lon="2.509725649">
        <ele>242.39</ele>
        <time>2013-06-23T11:41:44Z</time>
      </trkpt>
      <trkpt lat="41.616799437" lon="2.509806953">
        <ele>242.39</ele>
        <time>2013-06-23T11:41:51Z</time>
      </trkpt>
      <trkpt lat="41.616780829" lon="2.509885157">
        <ele>242.39</ele>
        <time>2013-06-23T11:41:54Z</time>
      </trkpt>
      <trkpt lat="41.616768172" lon="2.509945255">
        <ele>240.95</ele>
        <time>2013-06-23T11:41:56Z</time>
      </trkpt>
      <trkpt lat="41.616781332" lon="2.510137452">
        <ele>239.02</ele>
        <time>2013-06-23T11:42:01Z</time>
      </trkpt>
      <trkpt lat="41.616731124" lon="2.510368625">
        <ele>237.58</ele>
        <time>2013-06-23T11:42:06Z</time>
      </trkpt>
      <trkpt lat="41.616672367" lon="2.510488654">
        <ele>235.66</ele>
        <time>2013-06-23T11:42:09Z</time>
      </trkpt>
      <trkpt lat="41.616536077" lon="2.510660064">
        <ele>232.78</ele>
        <time>2013-06-23T11:42:14Z</time>
      </trkpt>
      <trkpt lat="41.616401715" lon="2.510926105">
        <ele>230.37</ele>
        <time>2013-06-23T11:42:20Z</time>
      </trkpt>
      <trkpt lat="41.616338432" lon="2.511212766">
        <ele>229.41</ele>
        <time>2013-06-23T11:42:26Z</time>
      </trkpt>
      <trkpt lat="41.616308592" lon="2.511493476">
        <ele>228.45</ele>
        <time>2013-06-23T11:42:32Z</time>
      </trkpt>
      <trkpt lat="41.616407415" lon="2.511766140">
        <ele>227.49</ele>
        <time>2013-06-23T11:42:38Z</time>
      </trkpt>
      <trkpt lat="41.616586788" lon="2.512090184">
        <ele>226.05</ele>
        <time>2013-06-23T11:42:45Z</time>
      </trkpt>
      <trkpt lat="41.616687538" lon="2.512297552">
        <ele>225.57</ele>
        <time>2013-06-23T11:42:50Z</time>
      </trkpt>
      <trkpt lat="41.616769429" lon="2.512553703">
        <ele>225.09</ele>
        <time>2013-06-23T11:42:57Z</time>
      </trkpt>
      <trkpt lat="41.616817374" lon="2.512863582">
        <ele>224.12</ele>
        <time>2013-06-23T11:43:03Z</time>
      </trkpt>
      <trkpt lat="41.616837155" lon="2.513430618">
        <ele>222.20</ele>
        <time>2013-06-23T11:43:12Z</time>
      </trkpt>
      <trkpt lat="41.616840927" lon="2.514015507">
        <ele>220.28</ele>
        <time>2013-06-23T11:43:20Z</time>
      </trkpt>
      <trkpt lat="41.616846711" lon="2.514432507">
        <ele>218.84</ele>
        <time>2013-06-23T11:43:25Z</time>
      </trkpt>
      <trkpt lat="41.616829695" lon="2.514787313">
        <ele>218.36</ele>
        <time>2013-06-23T11:43:29Z</time>
      </trkpt>
      <trkpt lat="41.616804969" lon="2.515646290">
        <ele>215.47</ele>
        <time>2013-06-23T11:43:39Z</time>
      </trkpt>
      <trkpt lat="41.616777644" lon="2.516421784">
        <ele>213.07</ele>
        <time>2013-06-23T11:43:48Z</time>
      </trkpt>
      <trkpt lat="41.616724167" lon="2.516891673">
        <ele>211.63</ele>
        <time>2013-06-23T11:43:53Z</time>
      </trkpt>
      <trkpt lat="41.616682928" lon="2.517180262">
        <ele>210.19</ele>
        <time>2013-06-23T11:43:56Z</time>
      </trkpt>
      <trkpt lat="41.616644036" lon="2.517787615">
        <ele>208.26</ele>
        <time>2013-06-23T11:44:02Z</time>
      </trkpt>
      <trkpt lat="41.616654430" lon="2.518258929">
        <ele>206.34</ele>
        <time>2013-06-23T11:44:07Z</time>
      </trkpt>
      <trkpt lat="41.616598187" lon="2.518578699">
        <ele>205.38</ele>
        <time>2013-06-23T11:44:12Z</time>
      </trkpt>
      <trkpt lat="41.616450079" lon="2.519005422">
        <ele>205.86</ele>
        <time>2013-06-23T11:44:20Z</time>
      </trkpt>
      <trkpt lat="41.616434489" lon="2.519074740">
        <ele>205.38</ele>
        <time>2013-06-23T11:44:21Z</time>
      </trkpt>
      <trkpt lat="41.616261989" lon="2.519839002">
        <ele>202.98</ele>
        <time>2013-06-23T11:44:31Z</time>
      </trkpt>
      <trkpt lat="41.616242627" lon="2.519920977">
        <ele>202.49</ele>
        <time>2013-06-23T11:44:32Z</time>
      </trkpt>
      <trkpt lat="41.616025619" lon="2.520568730">
        <ele>201.05</ele>
        <time>2013-06-23T11:44:40Z</time>
      </trkpt>
      <trkpt lat="41.615954289" lon="2.520822283">
        <ele>200.57</ele>
        <time>2013-06-23T11:44:43Z</time>
      </trkpt>
      <trkpt lat="41.615813641" lon="2.521553017">
        <ele>198.65</ele>
        <time>2013-06-23T11:44:51Z</time>
      </trkpt>
      <trkpt lat="41.615724541" lon="2.522145366">
        <ele>196.73</ele>
        <time>2013-06-23T11:44:58Z</time>
      </trkpt>
      <trkpt lat="41.615621612" lon="2.522937037">
        <ele>194.32</ele>
        <time>2013-06-23T11:45:06Z</time>
      </trkpt>
      <trkpt lat="41.615561094" lon="2.523463337">
        <ele>193.36</ele>
        <time>2013-06-23T11:45:11Z</time>
      </trkpt>
      <trkpt lat="41.615536368" lon="2.523670705">
        <ele>191.92</ele>
        <time>2013-06-23T11:45:13Z</time>
      </trkpt>
      <trkpt lat="41.615505606" lon="2.523970191">
        <ele>190.48</ele>
        <time>2013-06-23T11:45:16Z</time>
      </trkpt>
      <trkpt lat="41.615442993" lon="2.524713246">
        <ele>186.63</ele>
        <time>2013-06-23T11:45:24Z</time>
      </trkpt>
      <trkpt lat="41.615417261" lon="2.525363598">
        <ele>185.19</ele>
        <time>2013-06-23T11:45:31Z</time>
      </trkpt>
      <trkpt lat="41.615436707" lon="2.526035491">
        <ele>182.79</ele>
        <time>2013-06-23T11:45:38Z</time>
      </trkpt>
      <trkpt lat="41.615482975" lon="2.526718365">
        <ele>180.38</ele>
        <time>2013-06-23T11:45:45Z</time>
      </trkpt>
      <trkpt lat="41.615465624" lon="2.527172916">
        <ele>179.42</ele>
        <time>2013-06-23T11:45:49Z</time>
      </trkpt>
      <trkpt lat="41.615333190" lon="2.528017895">
        <ele>176.54</ele>
        <time>2013-06-23T11:45:56Z</time>
      </trkpt>
      <trkpt lat="41.615162283" lon="2.528940156">
        <ele>174.14</ele>
        <time>2013-06-23T11:46:04Z</time>
      </trkpt>
      <trkpt lat="41.615152728" lon="2.529049456">
        <ele>174.14</ele>
        <time>2013-06-23T11:46:05Z</time>
      </trkpt>
      <trkpt lat="41.615128756" lon="2.530066181">
        <ele>171.25</ele>
        <time>2013-06-23T11:46:14Z</time>
      </trkpt>
      <trkpt lat="41.615108136" lon="2.530860786">
        <ele>168.37</ele>
        <time>2013-06-23T11:46:21Z</time>
      </trkpt>
      <trkpt lat="41.615086846" lon="2.531194301">
        <ele>167.89</ele>
        <time>2013-06-23T11:46:24Z</time>
      </trkpt>
      <trkpt lat="41.615182232" lon="2.531695204">
        <ele>165.48</ele>
        <time>2013-06-23T11:46:29Z</time>
      </trkpt>
      <trkpt lat="41.615184998" lon="2.531921012">
        <ele>164.52</ele>
        <time>2013-06-23T11:46:31Z</time>
      </trkpt>
      <trkpt lat="41.615084164" lon="2.532548901">
        <ele>163.08</ele>
        <time>2013-06-23T11:46:37Z</time>
      </trkpt>
      <trkpt lat="41.614860451" lon="2.533358425">
        <ele>161.16</ele>
        <time>2013-06-23T11:46:46Z</time>
      </trkpt>
      <trkpt lat="41.614616035" lon="2.534100726">
        <ele>157.31</ele>
        <time>2013-06-23T11:46:55Z</time>
      </trkpt>
      <trkpt lat="41.614345551" lon="2.534930032">
        <ele>154.91</ele>
        <time>2013-06-23T11:47:05Z</time>
      </trkpt>
      <trkpt lat="41.614090992" lon="2.535662107">
        <ele>152.51</ele>
        <time>2013-06-23T11:47:14Z</time>
      </trkpt>
      <trkpt lat="41.613885384" lon="2.536275495">
        <ele>150.58</ele>
        <time>2013-06-23T11:47:22Z</time>
      </trkpt>
      <trkpt lat="41.613811037" lon="2.536408180">
        <ele>149.14</ele>
        <time>2013-06-23T11:47:26Z</time>
      </trkpt>
      <trkpt lat="41.613739874" lon="2.536544303">
        <ele>148.66</ele>
        <time>2013-06-23T11:47:33Z</time>
      </trkpt>
      <trkpt lat="41.613673574" lon="2.536652262">
        <ele>148.18</ele>
        <time>2013-06-23T11:47:41Z</time>
      </trkpt>
      <trkpt lat="41.613587491" lon="2.536814032">
        <ele>147.70</ele>
        <time>2013-06-23T11:47:49Z</time>
      </trkpt>
      <trkpt lat="41.613461428" lon="2.537032884">
        <ele>147.22</ele>
        <time>2013-06-23T11:47:57Z</time>
      </trkpt>
      <trkpt lat="41.613334023" lon="2.537193816">
        <ele>146.26</ele>
        <time>2013-06-23T11:48:04Z</time>
      </trkpt>
      <trkpt lat="41.613216089" lon="2.537325999">
        <ele>145.78</ele>
        <time>2013-06-23T11:48:11Z</time>
      </trkpt>
      <trkpt lat="41.613031939" lon="2.537518280">
        <ele>145.30</ele>
        <time>2013-06-23T11:48:18Z</time>
      </trkpt>
      <trkpt lat="41.612837730" lon="2.537744507">
        <ele>144.82</ele>
        <time>2013-06-23T11:48:25Z</time>
      </trkpt>
      <trkpt lat="41.612759527" lon="2.537866464">
        <ele>143.85</ele>
        <time>2013-06-23T11:48:30Z</time>
      </trkpt>
      <trkpt lat="41.612587363" lon="2.538050111">
        <ele>143.37</ele>
        <time>2013-06-23T11:48:37Z</time>
      </trkpt>
      <trkpt lat="41.612365578" lon="2.538336689">
        <ele>141.93</ele>
        <time>2013-06-23T11:48:44Z</time>
      </trkpt>
      <trkpt lat="41.612133231" lon="2.538761400">
        <ele>140.49</ele>
        <time>2013-06-23T11:48:53Z</time>
      </trkpt>
      <trkpt lat="41.612120658" lon="2.538801214">
        <ele>140.49</ele>
        <time>2013-06-23T11:48:54Z</time>
      </trkpt>
      <trkpt lat="41.611927875" lon="2.539027106">
        <ele>139.05</ele>
        <time>2013-06-23T11:49:02Z</time>
      </trkpt>
      <trkpt lat="41.611920750" lon="2.539041523">
        <ele>139.05</ele>
        <time>2013-06-23T11:49:03Z</time>
      </trkpt>
      <trkpt lat="41.611869956" lon="2.538905569">
        <ele>139.05</ele>
        <time>2013-06-23T11:49:10Z</time>
      </trkpt>
      <trkpt lat="41.611800553" lon="2.538773218">
        <ele>140.49</ele>
        <time>2013-06-23T11:49:17Z</time>
      </trkpt>
      <trkpt lat="41.611789908" lon="2.538734159">
        <ele>140.97</ele>
        <time>2013-06-23T11:49:19Z</time>
      </trkpt>
      <trkpt lat="41.611770127" lon="2.538717479">
        <ele>140.97</ele>
        <time>2013-06-23T11:49:21Z</time>
      </trkpt>
      <trkpt lat="41.611648170" lon="2.538740445">
        <ele>141.45</ele>
        <time>2013-06-23T11:49:28Z</time>
      </trkpt>
      <trkpt lat="41.611581199" lon="2.538736589">
        <ele>141.45</ele>
        <time>2013-06-23T11:49:30Z</time>
      </trkpt>
      <trkpt lat="41.611278696" lon="2.538754024">
        <ele>139.53</ele>
        <time>2013-06-23T11:49:37Z</time>
      </trkpt>
      <trkpt lat="41.611134108" lon="2.538768944">
        <ele>138.09</ele>
        <time>2013-06-23T11:49:42Z</time>
      </trkpt>
      <trkpt lat="41.610942833" lon="2.538847985">
        <ele>137.13</ele>
        <time>2013-06-23T11:49:49Z</time>
      </trkpt>
      <trkpt lat="41.610697327" lon="2.538979665">
        <ele>136.16</ele>
        <time>2013-06-23T11:49:56Z</time>
      </trkpt>
      <trkpt lat="41.610437405" lon="2.539137412">
        <ele>135.20</ele>
        <time>2013-06-23T11:50:03Z</time>
      </trkpt>
      <trkpt lat="41.610080503" lon="2.539343774">
        <ele>133.28</ele>
        <time>2013-06-23T11:50:12Z</time>
      </trkpt>
      <trkpt lat="41.609921415" lon="2.539447207">
        <ele>132.32</ele>
        <time>2013-06-23T11:50:17Z</time>
      </trkpt>
      <trkpt lat="41.609798117" lon="2.539535720">
        <ele>132.32</ele>
        <time>2013-06-23T11:50:20Z</time>
      </trkpt>
      <trkpt lat="41.609620169" lon="2.539642673">
        <ele>131.36</ele>
        <time>2013-06-23T11:50:25Z</time>
      </trkpt>
      <trkpt lat="41.609392014" lon="2.539774018">
        <ele>129.92</ele>
        <time>2013-06-23T11:50:33Z</time>
      </trkpt>
      <trkpt lat="41.609312805" lon="2.539828248">
        <ele>129.92</ele>
        <time>2013-06-23T11:50:35Z</time>
      </trkpt>
      <trkpt lat="41.609156398" lon="2.539988678">
        <ele>128.47</ele>
        <time>2013-06-23T11:50:41Z</time>
      </trkpt>
      <trkpt lat="41.609122619" lon="2.540098230">
        <ele>127.99</ele>
        <time>2013-06-23T11:50:47Z</time>
      </trkpt>
      <trkpt lat="41.609107364" lon="2.540151371">
        <ele>127.99</ele>
        <time>2013-06-23T11:50:53Z</time>
      </trkpt>
      <trkpt lat="41.609080207" lon="2.540177019">
        <ele>127.51</ele>
        <time>2013-06-23T11:50:56Z</time>
      </trkpt>
      <trkpt lat="41.608959759" lon="2.540251451">
        <ele>127.51</ele>
        <time>2013-06-23T11:51:03Z</time>
      </trkpt>
      <trkpt lat="41.608890105" lon="2.540395955">
        <ele>127.51</ele>
        <time>2013-06-23T11:51:10Z</time>
      </trkpt>
      <trkpt lat="41.608885244" lon="2.540442810">
        <ele>127.51</ele>
        <time>2013-06-23T11:51:17Z</time>
      </trkpt>
      <trkpt lat="41.608886585" lon="2.540464519">
        <ele>127.51</ele>
        <time>2013-06-23T11:51:26Z</time>
      </trkpt>
      <trkpt lat="41.608891698" lon="2.540471057">
        <ele>127.03</ele>
        <time>2013-06-23T11:51:44Z</time>
      </trkpt>
      <trkpt lat="41.608895302" lon="2.540465692">
        <ele>127.03</ele>
        <time>2013-06-23T11:52:00Z</time>
      </trkpt>
      <trkpt lat="41.608875437" lon="2.540434092">
        <ele>127.03</ele>
        <time>2013-06-23T11:52:20Z</time>
      </trkpt>
      <trkpt lat="41.608865462" lon="2.540448761">
        <ele>127.03</ele>
        <time>2013-06-23T11:52:40Z</time>
      </trkpt>
      <trkpt lat="41.608875102" lon="2.540447001">
        <ele>126.55</ele>
        <time>2013-06-23T11:53:00Z</time>
      </trkpt>
      <trkpt lat="41.608875521" lon="2.540457813">
        <ele>126.55</ele>
        <time>2013-06-23T11:53:23Z</time>
      </trkpt>
      <trkpt lat="41.608873677" lon="2.540446749">
        <ele>126.55</ele>
        <time>2013-06-23T11:53:50Z</time>
      </trkpt>
      <trkpt lat="41.608863618" lon="2.540492095">
        <ele>126.55</ele>
        <time>2013-06-23T11:54:13Z</time>
      </trkpt>
      <trkpt lat="41.608846855" lon="2.540494777">
        <ele>126.55</ele>
        <time>2013-06-23T11:54:32Z</time>
      </trkpt>
      <trkpt lat="41.608846268" lon="2.540476002">
        <ele>126.55</ele>
        <time>2013-06-23T11:54:48Z</time>
      </trkpt>
      <trkpt lat="41.608877532" lon="2.540484719">
        <ele>126.07</ele>
        <time>2013-06-23T11:55:03Z</time>
      </trkpt>
      <trkpt lat="41.608885076" lon="2.540463178">
        <ele>125.59</ele>
        <time>2013-06-23T11:55:17Z</time>
      </trkpt>
      <trkpt lat="41.608882729" lon="2.540439457">
        <ele>125.59</ele>
        <time>2013-06-23T11:55:33Z</time>
      </trkpt>
      <trkpt lat="41.608845597" lon="2.540446917">
        <ele>125.59</ele>
        <time>2013-06-23T11:55:58Z</time>
      </trkpt>
      <trkpt lat="41.608870994" lon="2.540480612">
        <ele>125.59</ele>
        <time>2013-06-23T11:56:09Z</time>
      </trkpt>
      <trkpt lat="41.608873760" lon="2.540472230">
        <ele>125.59</ele>
        <time>2013-06-23T11:56:32Z</time>
      </trkpt>
      <trkpt lat="41.608843837" lon="2.540439876">
        <ele>125.59</ele>
        <time>2013-06-23T11:56:55Z</time>
      </trkpt>
      <trkpt lat="41.608839898" lon="2.540450689">
        <ele>125.59</ele>
        <time>2013-06-23T11:57:18Z</time>
      </trkpt>
      <trkpt lat="41.608862613" lon="2.540457059">
        <ele>125.59</ele>
        <time>2013-06-23T11:57:38Z</time>
      </trkpt>
      <trkpt lat="41.608882981" lon="2.540411629">
        <ele>125.59</ele>
        <time>2013-06-23T11:57:51Z</time>
      </trkpt>
      <trkpt lat="41.608868564" lon="2.540423783">
        <ele>125.59</ele>
        <time>2013-06-23T11:58:10Z</time>
      </trkpt>
      <trkpt lat="41.608878119" lon="2.540471560">
        <ele>125.59</ele>
        <time>2013-06-23T11:58:32Z</time>
      </trkpt>
      <trkpt lat="41.608888680" lon="2.540477343">
        <ele>125.59</ele>
        <time>2013-06-23T11:58:43Z</time>
      </trkpt>
      <trkpt lat="41.608851046" lon="2.540487150">
        <ele>126.07</ele>
        <time>2013-06-23T11:58:49Z</time>
      </trkpt>
      <trkpt lat="41.608814500" lon="2.540347926">
        <ele>124.63</ele>
        <time>2013-06-23T11:58:54Z</time>
      </trkpt>
      <trkpt lat="41.608791534" lon="2.540339125">
        <ele>124.63</ele>
        <time>2013-06-23T11:58:55Z</time>
      </trkpt>
      <trkpt lat="41.608546112" lon="2.540350692">
        <ele>124.15</ele>
        <time>2013-06-23T11:59:02Z</time>
      </trkpt>
      <trkpt lat="41.608295158" lon="2.540404923">
        <ele>123.67</ele>
        <time>2013-06-23T11:59:09Z</time>
      </trkpt>
      <trkpt lat="41.608261882" lon="2.540410875">
        <ele>123.67</ele>
        <time>2013-06-23T11:59:10Z</time>
      </trkpt>
      <trkpt lat="41.608072786" lon="2.540431326">
        <ele>123.19</ele>
        <time>2013-06-23T11:59:15Z</time>
      </trkpt>
      <trkpt lat="41.607836500" lon="2.540459406">
        <ele>122.71</ele>
        <time>2013-06-23T11:59:21Z</time>
      </trkpt>
      <trkpt lat="41.607741533" lon="2.540469632">
        <ele>122.71</ele>
        <time>2013-06-23T11:59:24Z</time>
      </trkpt>
      <trkpt lat="41.607648494" lon="2.540584715">
        <ele>122.22</ele>
        <time>2013-06-23T11:59:28Z</time>
      </trkpt>
      <trkpt lat="41.607499631" lon="2.540772470">
        <ele>122.22</ele>
        <time>2013-06-23T11:59:35Z</time>
      </trkpt>
      <trkpt lat="41.607444562" lon="2.540813374">
        <ele>121.74</ele>
        <time>2013-06-23T11:59:37Z</time>
      </trkpt>
      <trkpt lat="41.607117919" lon="2.540761070">
        <ele>121.26</ele>
        <time>2013-06-23T11:59:46Z</time>
      </trkpt>
      <trkpt lat="41.606804101" lon="2.540663086">
        <ele>119.82</ele>
        <time>2013-06-23T11:59:54Z</time>
      </trkpt>
      <trkpt lat="41.606611652" lon="2.540572897">
        <ele>118.86</ele>
        <time>2013-06-23T11:59:59Z</time>
      </trkpt>
      <trkpt lat="41.606194904" lon="2.540355805">
        <ele>118.38</ele>
        <time>2013-06-23T12:00:10Z</time>
      </trkpt>
      <trkpt lat="41.606161544" lon="2.540331079">
        <ele>117.90</ele>
        <time>2013-06-23T12:00:14Z</time>
      </trkpt>
      <trkpt lat="41.606137656" lon="2.540320685">
        <ele>117.42</ele>
        <time>2013-06-23T12:00:24Z</time>
      </trkpt>
      <trkpt lat="41.606118377" lon="2.540317500">
        <ele>117.42</ele>
        <time>2013-06-23T12:00:26Z</time>
      </trkpt>
      <trkpt lat="41.606022405" lon="2.540328983">
        <ele>117.42</ele>
        <time>2013-06-23T12:00:32Z</time>
      </trkpt>
      <trkpt lat="41.605912853" lon="2.540369803">
        <ele>117.42</ele>
        <time>2013-06-23T12:00:39Z</time>
      </trkpt>
      <trkpt lat="41.605897263" lon="2.540389501">
        <ele>117.42</ele>
        <time>2013-06-23T12:00:41Z</time>
      </trkpt>
      <trkpt lat="41.605937328" lon="2.540452281">
        <ele>118.38</ele>
        <time>2013-06-23T12:00:46Z</time>
      </trkpt>
      <trkpt lat="41.605945291" lon="2.540484803">
        <ele>118.38</ele>
        <time>2013-06-23T12:00:53Z</time>
      </trkpt>
      <trkpt lat="41.605944621" lon="2.540542889">
        <ele>118.38</ele>
        <time>2013-06-23T12:00:56Z</time>
      </trkpt>
      <trkpt lat="41.606025757" lon="2.540617237">
        <ele>118.38</ele>
        <time>2013-06-23T12:01:01Z</time>
      </trkpt>
      <trkpt lat="41.606050652" lon="2.540623607">
        <ele>118.86</ele>
        <time>2013-06-23T12:01:02Z</time>
      </trkpt>
      <trkpt lat="41.606297750" lon="2.540690243">
        <ele>119.34</ele>
        <time>2013-06-23T12:01:11Z</time>
      </trkpt>
      <trkpt lat="41.606481398" lon="2.540806584">
        <ele>120.30</ele>
        <time>2013-06-23T12:01:19Z</time>
      </trkpt>
      <trkpt lat="41.606573850" lon="2.540998446">
        <ele>121.26</ele>
        <time>2013-06-23T12:01:25Z</time>
      </trkpt>
      <trkpt lat="41.606633529" lon="2.541206652">
        <ele>122.71</ele>
        <time>2013-06-23T12:01:32Z</time>
      </trkpt>
      <trkpt lat="41.606732100" lon="2.541566488">
        <ele>124.63</ele>
        <time>2013-06-23T12:01:42Z</time>
      </trkpt>
      <trkpt lat="41.606844334" lon="2.541908302">
        <ele>126.07</ele>
        <time>2013-06-23T12:01:52Z</time>
      </trkpt>
      <trkpt lat="41.606952796" lon="2.542167386">
        <ele>127.99</ele>
        <time>2013-06-23T12:02:01Z</time>
      </trkpt>
      <trkpt lat="41.607015828" lon="2.542304430">
        <ele>128.95</ele>
        <time>2013-06-23T12:02:06Z</time>
      </trkpt>
      <trkpt lat="41.607051283" lon="2.542343071">
        <ele>129.92</ele>
        <time>2013-06-23T12:02:12Z</time>
      </trkpt>
      <trkpt lat="41.607057067" lon="2.542360338">
        <ele>129.92</ele>
        <time>2013-06-23T12:02:22Z</time>
      </trkpt>
      <trkpt lat="41.607006105" lon="2.542386405">
        <ele>130.40</ele>
        <time>2013-06-23T12:02:42Z</time>
      </trkpt>
      <trkpt lat="41.607006775" lon="2.542406606">
        <ele>130.40</ele>
        <time>2013-06-23T12:02:59Z</time>
      </trkpt>
      <trkpt lat="41.606979869" lon="2.542416245">
        <ele>130.40</ele>
        <time>2013-06-23T12:03:17Z</time>
      </trkpt>
      <trkpt lat="41.606978193" lon="2.542405432">
        <ele>130.40</ele>
        <time>2013-06-23T12:03:24Z</time>
      </trkpt>
      <trkpt lat="41.607000237" lon="2.542391602">
        <ele>130.40</ele>
        <time>2013-06-23T12:03:33Z</time>
      </trkpt>
      <trkpt lat="41.607013062" lon="2.542392021">
        <ele>130.40</ele>
        <time>2013-06-23T12:03:47Z</time>
      </trkpt>
      <trkpt lat="41.607034352" lon="2.542419598">
        <ele>130.40</ele>
        <time>2013-06-23T12:04:03Z</time>
      </trkpt>
      <trkpt lat="41.607039046" lon="2.542310884">
        <ele>130.40</ele>
        <time>2013-06-23T12:04:15Z</time>
      </trkpt>
      <trkpt lat="41.606997471" lon="2.542262940">
        <ele>130.40</ele>
        <time>2013-06-23T12:04:29Z</time>
      </trkpt>
      <trkpt lat="41.607066874" lon="2.542251960">
        <ele>130.40</ele>
        <time>2013-06-23T12:04:46Z</time>
      </trkpt>
      <trkpt lat="41.607175419" lon="2.542196890">
        <ele>130.40</ele>
        <time>2013-06-23T12:05:01Z</time>
      </trkpt>
    </trkseg>
  </trk>
</gpx>
